Wetterdaten: Montag, 15.07.2019
Datum Zeit Temp. A. Pool Temp. Temp. 5cm Feuchte A. Luftdruck Regen Wind Richtung Richtung Sonnenschein ET UV Solar Taupunkt Windchill Windben Empfang
15.07.2019 00:00 12,7 C 20,0 C 11,1 C 96 % 1014,2 hPa 0,0 l/m 0,0 km/h (0 Bft) S-SW 204 0 min 0,000 mm 0,0 UV-I 0 W/m 12,1 C 12,7 C 0,0 km/h (0 Bft) 95,83 %
15.07.2019 00:02 12,7 C 20,0 C 11,1 C 96 % 1014,1 hPa 0,0 l/m 0,0 km/h (0 Bft) S-SW 204 0 min 0,000 mm 0,0 UV-I 0 W/m 12,1 C 12,7 C 0,0 km/h (0 Bft) 94,87 %
15.07.2019 00:04 12,6 C 20,0 C 11,7 C 96 % 1014,1 hPa 0,0 l/m 1,5 km/h (1 Bft) S-SW 204 0 min 0,000 mm 0,0 UV-I 0 W/m 12,0 C 12,6 C 1,6 km/h (1 Bft) 100,00 %
15.07.2019 00:06 12,6 C 20,0 C 11,1 C 96 % 1014,1 hPa 0,0 l/m 1,2 km/h (1 Bft) S-SW 204 0 min 0,000 mm 0,0 UV-I 0 W/m 12,0 C 12,6 C 1,6 km/h (1 Bft) 100,00 %
15.07.2019 00:08 12,4 C 20,0 C 11,1 C 96 % 1014,1 hPa 0,0 l/m 0,9 km/h (0 Bft) S-SW 204 0 min 0,000 mm 0,0 UV-I 0 W/m 11,8 C 12,4 C 1,6 km/h (1 Bft) 100,00 %
15.07.2019 00:10 12,3 C 20,0 C 11,1 C 96 % 1014,1 hPa 0,0 l/m 0,9 km/h (0 Bft) S-SW 204 0 min 0,000 mm 0,0 UV-I 0 W/m 11,7 C 12,3 C 1,6 km/h (1 Bft) 100,00 %
15.07.2019 00:12 12,4 C 20,0 C 11,7 C 96 % 1014,1 hPa 0,0 l/m 1,7 km/h (1 Bft) S-SW 204 0 min 0,000 mm 0,0 UV-I 0 W/m 11,8 C 12,4 C 3,2 km/h (1 Bft) 100,00 %
15.07.2019 00:14 12,4 C 20,0 C 11,1 C 96 % 1014,1 hPa 0,0 l/m 1,6 km/h (1 Bft) S-SW 204 0 min 0,000 mm 0,0 UV-I 0 W/m 11,8 C 12,4 C 1,6 km/h (1 Bft) 98,00 %
15.07.2019 00:16 12,4 C 20,0 C 11,1 C 96 % 1014,1 hPa 0,0 l/m 0,8 km/h (0 Bft) S-SW 204 0 min 0,000 mm 0,0 UV-I 0 W/m 11,8 C 12,4 C 1,6 km/h (1 Bft) 100,00 %
15.07.2019 00:18 12,4 C 20,0 C 10,6 C 96 % 1014,1 hPa 0,0 l/m 0,0 km/h (0 Bft) S-SW 204 0 min 0,000 mm 0,0 UV-I 0 W/m 11,8 C 12,4 C 1,6 km/h (1 Bft) 100,00 %
15.07.2019 00:20 12,4 C 20,0 C 10,6 C 96 % 1014,1 hPa 0,0 l/m 0,0 km/h (0 Bft) S-SW 204 0 min 0,000 mm 0,0 UV-I 0 W/m 11,8 C 12,4 C 0,0 km/h (0 Bft) 97,92 %
15.07.2019 00:22 12,3 C 20,0 C 10,6 C 96 % 1014,1 hPa 0,0 l/m 1,0 km/h (0 Bft) S-SW 204 0 min 0,000 mm 0,0 UV-I 0 W/m 11,7 C 12,3 C 1,6 km/h (1 Bft) 100,00 %
15.07.2019 00:24 12,2 C 20,0 C 10,6 C 96 % 1014,1 hPa 0,0 l/m 1,5 km/h (1 Bft) S-SW 204 0 min 0,000 mm 0,0 UV-I 0 W/m 11,6 C 12,2 C 1,6 km/h (1 Bft) 100,00 %
15.07.2019 00:26 12,1 C 20,0 C 10,6 C 96 % 1014,2 hPa 0,0 l/m 2,0 km/h (1 Bft) S-SW 204 0 min 0,000 mm 0,0 UV-I 0 W/m 11,5 C 12,1 C 3,2 km/h (1 Bft) 97,87 %
15.07.2019 00:28 12,1 C 20,0 C 10,6 C 96 % 1014,1 hPa 0,0 l/m 1,0 km/h (0 Bft) S-SW 204 0 min 0,000 mm 0,0 UV-I 0 W/m 11,5 C 12,1 C 3,2 km/h (1 Bft) 100,00 %
15.07.2019 00:30 12,1 C 20,0 C 10,6 C 96 % 1014,1 hPa 0,0 l/m 0,0 km/h (0 Bft) S-SW 204 0 min 0,000 mm 0,0 UV-I 0 W/m 11,5 C 12,1 C 0,0 km/h (0 Bft) 100,00 %
15.07.2019 00:32 12,3 C 20,0 C 10,6 C 97 % 1014,1 hPa 0,0 l/m 0,0 km/h (0 Bft) S-SW 204 0 min 0,000 mm 0,0 UV-I 0 W/m 11,8 C 12,3 C 0,0 km/h (0 Bft) 100,00 %
15.07.2019 00:34 12,3 C 20,0 C 10,6 C 97 % 1014,1 hPa 0,0 l/m 0,5 km/h (0 Bft) S-SW 204 0 min 0,000 mm 0,0 UV-I 0 W/m 11,8 C 12,3 C 1,6 km/h (1 Bft) 97,87 %
15.07.2019 00:36 12,3 C 20,0 C 10,6 C 97 % 1014,2 hPa 0,0 l/m 2,0 km/h (1 Bft) S-SW 204 0 min 0,000 mm 0,0 UV-I 0 W/m 11,8 C 12,3 C 3,2 km/h (1 Bft) 100,00 %
15.07.2019 00:38 12,2 C 20,0 C 10,6 C 97 % 1014,2 hPa 0,0 l/m 3,6 km/h (1 Bft) S-SW 204 0 min 0,000 mm 0,0 UV-I 0 W/m 11,7 C 12,2 C 4,8 km/h (1 Bft) 100,00 %
15.07.2019 00:40 12,1 C 20,0 C 10,6 C 96 % 1014,2 hPa 0,0 l/m 1,3 km/h (1 Bft) S-SW 204 0 min 0,000 mm 0,0 UV-I 0 W/m 11,5 C 12,1 C 3,2 km/h (1 Bft) 97,87 %
15.07.2019 00:42 12,2 C 20,0 C 10,6 C 97 % 1014,2 hPa 0,0 l/m 1,0 km/h (0 Bft) S-SW 204 0 min 0,000 mm 0,0 UV-I 0 W/m 11,7 C 12,2 C 1,6 km/h (1 Bft) 97,87 %
15.07.2019 00:44 12,3 C 20,0 C 11,1 C 97 % 1014,2 hPa 0,0 l/m 2,2 km/h (1 Bft) S-SW 204 0 min 0,000 mm 0,0 UV-I 0 W/m 11,8 C 12,3 C 3,2 km/h (1 Bft) 96,00 %
15.07.2019 00:46 12,2 C 20,0 C 11,7 C 97 % 1014,2 hPa 0,0 l/m 3,7 km/h (1 Bft) S-SW 204 0 min 0,000 mm 0,0 UV-I 0 W/m 11,7 C 12,2 C 4,8 km/h (1 Bft) 97,14 %
15.07.2019 00:48 12,2 C 20,0 C 11,7 C 97 % 1014,2 hPa 0,0 l/m 2,6 km/h (1 Bft) S-SW 204 0 min 0,000 mm 0,0 UV-I 0 W/m 11,7 C 12,2 C 3,2 km/h (1 Bft) 96,00 %
15.07.2019 00:50 12,1 C 20,0 C 11,7 C 97 % 1014,2 hPa 0,0 l/m 2,8 km/h (1 Bft) S-SW 204 0 min 0,000 mm 0,0 UV-I 0 W/m 11,6 C 12,1 C 4,8 km/h (1 Bft) 95,74 %
15.07.2019 00:52 11,9 C 20,0 C 11,7 C 96 % 1014,2 hPa 0,0 l/m 3,8 km/h (1 Bft) S-SW 202 0 min 0,000 mm 0,0 UV-I 0 W/m 11,3 C 11,9 C 6,4 km/h (2 Bft) 95,74 %
15.07.2019 00:54 12,0 C 20,0 C 11,7 C 97 % 1014,2 hPa 0,0 l/m 3,2 km/h (1 Bft) S-SW 202 0 min 0,000 mm 0,0 UV-I 0 W/m 11,5 C 12,0 C 4,8 km/h (1 Bft) 95,74 %
15.07.2019 00:56 11,9 C 20,0 C 11,7 C 97 % 1014,2 hPa 0,0 l/m 3,0 km/h (1 Bft) S-SW 202 0 min 0,000 mm 0,0 UV-I 0 W/m 11,4 C 11,9 C 3,2 km/h (1 Bft) 97,87 %
15.07.2019 00:58 12,1 C 20,0 C 11,7 C 97 % 1014,2 hPa 0,0 l/m 3,1 km/h (1 Bft) S-SW 202 0 min 0,000 mm 0,0 UV-I 0 W/m 11,6 C 12,1 C 3,2 km/h (1 Bft) 96,00 %
15.07.2019 01:00 12,1 C 20,0 C 11,7 C 97 % 1014,2 hPa 0,0 l/m 2,9 km/h (1 Bft) S-SW 202 0 min 0,000 mm 0,0 UV-I 0 W/m 11,6 C 12,1 C 4,8 km/h (1 Bft) 97,87 %
15.07.2019 01:02 12,1 C 20,0 C 11,7 C 97 % 1014,2 hPa 0,0 l/m 2,3 km/h (1 Bft) S-SW 202 0 min 0,000 mm 0,0 UV-I 0 W/m 11,6 C 12,1 C 3,2 km/h (1 Bft) 97,92 %
15.07.2019 01:04 12,1 C 20,0 C 11,7 C 97 % 1014,2 hPa 0,0 l/m 2,0 km/h (1 Bft) S-SW 202 0 min 0,000 mm 0,0 UV-I 0 W/m 11,6 C 12,1 C 3,2 km/h (1 Bft) 97,87 %
15.07.2019 01:06 12,1 C 20,0 C 11,1 C 97 % 1014,2 hPa 0,0 l/m 1,9 km/h (1 Bft) S-SW 202 0 min 0,000 mm 0,0 UV-I 0 W/m 11,6 C 12,1 C 3,2 km/h (1 Bft) 100,00 %
15.07.2019 01:08 12,1 C 20,0 C 11,1 C 97 % 1014,2 hPa 0,0 l/m 2,8 km/h (1 Bft) S-SW 202 0 min 0,000 mm 0,0 UV-I 0 W/m 11,6 C 12,1 C 3,2 km/h (1 Bft) 100,00 %
15.07.2019 01:10 12,0 C 20,0 C 11,7 C 97 % 1014,2 hPa 0,0 l/m 2,8 km/h (1 Bft) S-SW 202 0 min 0,000 mm 0,0 UV-I 0 W/m 11,5 C 12,0 C 3,2 km/h (1 Bft) 100,00 %
15.07.2019 01:12 12,0 C 20,0 C 11,7 C 97 % 1014,1 hPa 0,0 l/m 3,4 km/h (1 Bft) S-SW 202 0 min 0,000 mm 0,0 UV-I 0 W/m 11,5 C 12,0 C 4,8 km/h (1 Bft) 100,00 %
15.07.2019 01:14 11,9 C 20,0 C 11,7 C 97 % 1014,1 hPa 0,0 l/m 2,4 km/h (1 Bft) S-SW 202 0 min 0,000 mm 0,0 UV-I 0 W/m 11,4 C 11,9 C 4,8 km/h (1 Bft) 100,00 %
15.07.2019 01:16 11,9 C 20,0 C 11,1 C 97 % 1014,2 hPa 0,0 l/m 1,7 km/h (1 Bft) S-SW 202 0 min 0,000 mm 0,0 UV-I 0 W/m 11,4 C 11,9 C 3,2 km/h (1 Bft) 97,87 %
15.07.2019 01:18 11,8 C 20,0 C 11,1 C 97 % 1014,2 hPa 0,0 l/m 1,1 km/h (1 Bft) S-SW 202 0 min 0,000 mm 0,0 UV-I 0 W/m 11,3 C 11,8 C 1,6 km/h (1 Bft) 95,74 %
15.07.2019 01:20 11,7 C 20,0 C 10,6 C 97 % 1014,1 hPa 0,0 l/m 0,9 km/h (0 Bft) S-SW 202 0 min 0,000 mm 0,0 UV-I 0 W/m 11,2 C 11,7 C 1,6 km/h (1 Bft) 100,00 %
15.07.2019 01:22 11,7 C 20,0 C 10,6 C 97 % 1014,2 hPa 0,0 l/m 0,9 km/h (0 Bft) S-SW 202 0 min 0,000 mm 0,0 UV-I 0 W/m 11,2 C 11,7 C 1,6 km/h (1 Bft) 97,87 %
15.07.2019 01:24 11,8 C 20,0 C 10,6 C 97 % 1014,1 hPa 0,0 l/m 0,7 km/h (0 Bft) S-SW 202 0 min 0,000 mm 0,0 UV-I 0 W/m 11,3 C 11,8 C 1,6 km/h (1 Bft) 97,87 %
15.07.2019 01:26 11,7 C 20,0 C 10,0 C 97 % 1014,1 hPa 0,0 l/m 0,1 km/h (0 Bft) S-SW 202 0 min 0,000 mm 0,0 UV-I 0 W/m 11,2 C 11,7 C 1,6 km/h (1 Bft) 95,74 %
15.07.2019 01:28 11,8 C 20,0 C 10,0 C 97 % 1014,1 hPa 0,0 l/m 0,0 km/h (0 Bft) S-SW 202 0 min 0,000 mm 0,0 UV-I 0 W/m 11,3 C 11,8 C 0,0 km/h (0 Bft) 95,74 %
15.07.2019 01:30 11,7 C 20,0 C 10,0 C 97 % 1014,0 hPa 0,0 l/m 0,0 km/h (0 Bft) S-SW 202 0 min 0,000 mm 0,0 UV-I 0 W/m 11,2 C 11,7 C 0,0 km/h (0 Bft) 91,49 %
15.07.2019 01:32 11,8 C 20,0 C 10,0 C 97 % 1014,1 hPa 0,0 l/m 0,7 km/h (0 Bft) S-SW 202 0 min 0,000 mm 0,0 UV-I 0 W/m 11,3 C 11,8 C 1,6 km/h (1 Bft) 97,87 %
15.07.2019 01:34 11,7 C 20,0 C 10,0 C 97 % 1014,0 hPa 0,0 l/m 1,6 km/h (1 Bft) S-SW 202 0 min 0,000 mm 0,0 UV-I 0 W/m 11,2 C 11,7 C 3,2 km/h (1 Bft) 97,87 %
15.07.2019 01:36 11,6 C 20,0 C 10,0 C 97 % 1014,0 hPa 0,0 l/m 1,2 km/h (1 Bft) S-SW 202 0 min 0,000 mm 0,0 UV-I 0 W/m 11,1 C 11,6 C 1,6 km/h (1 Bft) 94,87 %
15.07.2019 01:38 11,6 C 20,0 C 10,0 C 97 % 1014,0 hPa 0,0 l/m 1,0 km/h (0 Bft) S-SW 202 0 min 0,000 mm 0,0 UV-I 0 W/m 11,1 C 11,6 C 1,6 km/h (1 Bft) 97,87 %
15.07.2019 01:40 11,6 C 20,0 C 10,0 C 97 % 1014,0 hPa 0,0 l/m 1,1 km/h (1 Bft) S-SW 202 0 min 0,000 mm 0,0 UV-I 0 W/m 11,1 C 11,6 C 1,6 km/h (1 Bft) 95,74 %
15.07.2019 01:42 11,6 C 20,0 C 10,0 C 97 % 1014,1 hPa 0,0 l/m 0,7 km/h (0 Bft) S-SW 202 0 min 0,000 mm 0,0 UV-I 0 W/m 11,1 C 11,6 C 1,6 km/h (1 Bft) 95,92 %
15.07.2019 01:44 11,6 C 20,0 C 10,0 C 97 % 1014,0 hPa 0,0 l/m 0,0 km/h (0 Bft) S-SW 202 0 min 0,000 mm 0,0 UV-I 0 W/m 11,1 C 11,6 C 0,0 km/h (0 Bft) 95,74 %
15.07.2019 01:46 11,7 C 20,0 C 10,0 C 97 % 1014,0 hPa 0,0 l/m 0,0 km/h (0 Bft) S-SW 202 0 min 0,000 mm 0,0 UV-I 0 W/m 11,2 C 11,7 C 0,0 km/h (0 Bft) 95,74 %
15.07.2019 01:48 11,7 C 20,0 C 10,6 C 97 % 1014,0 hPa 0,0 l/m 0,4 km/h (0 Bft) S-SW 202 0 min 0,000 mm 0,0 UV-I 0 W/m 11,2 C 11,7 C 1,6 km/h (1 Bft) 95,74 %
15.07.2019 01:50 11,7 C 20,0 C 10,0 C 97 % 1014,1 hPa 0,0 l/m 0,0 km/h (0 Bft) S-SW 202 0 min 0,000 mm 0,0 UV-I 0 W/m 11,2 C 11,7 C 1,6 km/h (1 Bft) 93,62 %
15.07.2019 01:52 11,6 C 20,0 C 10,6 C 97 % 1014,0 hPa 0,0 l/m 0,7 km/h (0 Bft) S-SW 202 0 min 0,000 mm 0,0 UV-I 0 W/m 11,1 C 11,6 C 1,6 km/h (1 Bft) 97,87 %
15.07.2019 01:54 11,5 C 20,0 C 10,6 C 97 % 1014,0 hPa 0,0 l/m 1,2 km/h (1 Bft) S-SW 202 0 min 0,000 mm 0,0 UV-I 0 W/m 11,0 C 11,5 C 3,2 km/h (1 Bft) 95,74 %
15.07.2019 01:56 11,4 C 20,0 C 10,0 C 97 % 1014,0 hPa 0,0 l/m 2,0 km/h (1 Bft) S-SW 202 0 min 0,000 mm 0,0 UV-I 0 W/m 10,9 C 11,4 C 3,2 km/h (1 Bft) 93,62 %
15.07.2019 01:58 11,3 C 20,0 C 10,0 C 97 % 1014,0 hPa 0,0 l/m 3,6 km/h (1 Bft) S-SW 202 0 min 0,000 mm 0,0 UV-I 0 W/m 10,8 C 11,3 C 4,8 km/h (1 Bft) 95,74 %
15.07.2019 02:00 11,3 C 20,0 C 10,0 C 97 % 1013,9 hPa 0,0 l/m 2,4 km/h (1 Bft) S-SW 202 0 min 0,000 mm 0,0 UV-I 0 W/m 10,8 C 11,3 C 3,2 km/h (1 Bft) 93,62 %
15.07.2019 02:02 11,3 C 20,0 C 10,0 C 97 % 1013,9 hPa 0,0 l/m 2,2 km/h (1 Bft) S-SW 202 0 min 0,000 mm 0,0 UV-I 0 W/m 10,8 C 11,3 C 3,2 km/h (1 Bft) 94,00 %
15.07.2019 02:04 11,4 C 20,0 C 10,6 C 97 % 1013,9 hPa 0,0 l/m 3,3 km/h (1 Bft) S-SW 202 0 min 0,000 mm 0,0 UV-I 0 W/m 10,9 C 11,4 C 4,8 km/h (1 Bft) 93,62 %
15.07.2019 02:06 11,4 C 20,0 C 10,6 C 97 % 1013,9 hPa 0,0 l/m 2,3 km/h (1 Bft) S-SW 202 0 min 0,000 mm 0,0 UV-I 0 W/m 10,9 C 11,4 C 3,2 km/h (1 Bft) 93,62 %
15.07.2019 02:08 11,3 C 20,0 C 10,6 C 97 % 1014,0 hPa 0,0 l/m 2,0 km/h (1 Bft) S-SW 202 0 min 0,000 mm 0,0 UV-I 0 W/m 10,8 C 11,3 C 3,2 km/h (1 Bft) 93,62 %
15.07.2019 02:10 11,4 C 20,0 C 10,6 C 97 % 1013,9 hPa 0,0 l/m 1,1 km/h (1 Bft) S-SW 202 0 min 0,000 mm 0,0 UV-I 0 W/m 10,9 C 11,4 C 1,6 km/h (1 Bft) 94,00 %
15.07.2019 02:12 11,4 C 20,0 C 10,0 C 97 % 1013,9 hPa 0,0 l/m 1,1 km/h (1 Bft) S-SW 202 0 min 0,000 mm 0,0 UV-I 0 W/m 10,9 C 11,4 C 3,2 km/h (1 Bft) 91,49 %
15.07.2019 02:14 11,3 C 20,0 C 10,0 C 97 % 1013,9 hPa 0,0 l/m 2,8 km/h (1 Bft) S-SW 202 0 min 0,000 mm 0,0 UV-I 0 W/m 10,8 C 11,3 C 3,2 km/h (1 Bft) 97,22 %
15.07.2019 02:16 11,3 C 20,0 C 10,0 C 97 % 1013,9 hPa 0,0 l/m 1,4 km/h (1 Bft) S-SW 202 0 min 0,000 mm 0,0 UV-I 0 W/m 10,8 C 11,3 C 3,2 km/h (1 Bft) 91,49 %
15.07.2019 02:18 11,2 C 20,0 C 10,0 C 97 % 1013,9 hPa 0,0 l/m 0,8 km/h (0 Bft) S-SW 202 0 min 0,000 mm 0,0 UV-I 0 W/m 10,7 C 11,2 C 1,6 km/h (1 Bft) 95,74 %
15.07.2019 02:20 11,1 C 20,0 C 10,0 C 97 % 1013,9 hPa 0,0 l/m 2,6 km/h (1 Bft) S-SW 202 0 min 0,000 mm 0,0 UV-I 0 W/m 10,6 C 11,1 C 3,2 km/h (1 Bft) 93,62 %
15.07.2019 02:22 11,2 C 20,0 C 10,0 C 97 % 1013,9 hPa 0,0 l/m 0,9 km/h (0 Bft) S-SW 202 0 min 0,000 mm 0,0 UV-I 0 W/m 10,7 C 11,2 C 3,2 km/h (1 Bft) 93,62 %
15.07.2019 02:24 11,3 C 20,0 C 10,0 C 97 % 1013,9 hPa 0,0 l/m 1,3 km/h (1 Bft) S-SW 202 0 min 0,000 mm 0,0 UV-I 0 W/m 10,8 C 11,3 C 3,2 km/h (1 Bft) 93,62 %
15.07.2019 02:26 11,2 C 20,0 C 10,0 C 97 % 1013,9 hPa 0,0 l/m 3,7 km/h (1 Bft) S-SW 202 0 min 0,000 mm 0,0 UV-I 0 W/m 10,7 C 11,2 C 4,8 km/h (1 Bft) 91,49 %
15.07.2019 02:28 11,2 C 20,0 C 10,6 C 97 % 1013,9 hPa 0,0 l/m 3,4 km/h (1 Bft) S-SW 202 0 min 0,000 mm 0,0 UV-I 0 W/m 10,7 C 11,2 C 4,8 km/h (1 Bft) 98,00 %
15.07.2019 02:30 11,1 C 20,0 C 10,6 C 97 % 1013,8 hPa 0,0 l/m 2,3 km/h (1 Bft) S-SW 202 0 min 0,000 mm 0,0 UV-I 0 W/m 10,6 C 11,1 C 3,2 km/h (1 Bft) 97,87 %
15.07.2019 02:32 11,2 C 20,0 C 10,6 C 97 % 1013,8 hPa 0,0 l/m 0,7 km/h (0 Bft) S-SW 202 0 min 0,000 mm 0,0 UV-I 0 W/m 10,7 C 11,2 C 1,6 km/h (1 Bft) 98,00 %
15.07.2019 02:34 11,1 C 20,0 C 10,0 C 97 % 1013,8 hPa 0,0 l/m 0,1 km/h (0 Bft) S-SW 202 0 min 0,000 mm 0,0 UV-I 0 W/m 10,6 C 11,1 C 1,6 km/h (1 Bft) 97,87 %
15.07.2019 02:36 11,1 C 20,0 C 10,0 C 97 % 1013,8 hPa 0,0 l/m 0,0 km/h (0 Bft) S-SW 202 0 min 0,000 mm 0,0 UV-I 0 W/m 10,6 C 11,1 C 0,0 km/h (0 Bft) 97,87 %
15.07.2019 02:38 11,2 C 20,0 C 9,4 C 97 % 1013,7 hPa 0,0 l/m 0,5 km/h (0 Bft) S-SW 202 0 min 0,000 mm 0,0 UV-I 0 W/m 10,7 C 11,2 C 1,6 km/h (1 Bft) 93,62 %
15.07.2019 02:40 11,2 C 20,0 C 9,4 C 97 % 1013,8 hPa 0,0 l/m 0,0 km/h (0 Bft) S-SW 202 0 min 0,000 mm 0,0 UV-I 0 W/m 10,7 C 11,2 C 0,0 km/h (0 Bft) 97,87 %
15.07.2019 02:42 11,2 C 20,0 C 9,4 C 97 % 1013,7 hPa 0,0 l/m 0,4 km/h (0 Bft) S-SW 202 0 min 0,000 mm 0,0 UV-I 0 W/m 10,7 C 11,2 C 1,6 km/h (1 Bft) 95,74 %
15.07.2019 02:44 11,2 C 20,0 C 9,4 C 97 % 1013,7 hPa 0,0 l/m 1,1 km/h (1 Bft) S-SW 202 0 min 0,000 mm 0,0 UV-I 0 W/m 10,7 C 11,2 C 1,6 km/h (1 Bft) 93,62 %
15.07.2019 02:46 11,3 C 20,0 C 9,4 C 97 % 1013,7 hPa 0,0 l/m 0,8 km/h (0 Bft) S-SW 202 0 min 0,000 mm 0,0 UV-I 0 W/m 10,8 C 11,3 C 1,6 km/h (1 Bft) 100,00 %
15.07.2019 02:48 11,3 C 20,0 C 9,4 C 97 % 1013,7 hPa 0,0 l/m 2,0 km/h (1 Bft) S-SW 202 0 min 0,000 mm 0,0 UV-I 0 W/m 10,8 C 11,3 C 3,2 km/h (1 Bft) 97,87 %
15.07.2019 02:50 11,4 C 20,0 C 9,4 C 97 % 1013,7 hPa 0,0 l/m 2,7 km/h (1 Bft) S-SW 202 0 min 0,000 mm 0,0 UV-I 0 W/m 10,9 C 11,4 C 3,2 km/h (1 Bft) 100,00 %
15.07.2019 02:52 11,4 C 20,0 C 10,0 C 97 % 1013,8 hPa 0,0 l/m 1,1 km/h (1 Bft) S-SW 202 0 min 0,000 mm 0,0 UV-I 0 W/m 10,9 C 11,4 C 3,2 km/h (1 Bft) 93,62 %
15.07.2019 02:54 11,3 C 20,0 C 10,0 C 97 % 1013,7 hPa 0,0 l/m 0,4 km/h (0 Bft) S-SW 202 0 min 0,000 mm 0,0 UV-I 0 W/m 10,8 C 11,3 C 1,6 km/h (1 Bft) 100,00 %
15.07.2019 02:56 11,2 C 20,0 C 10,0 C 97 % 1013,7 hPa 0,0 l/m 2,0 km/h (1 Bft) S-SW 202 0 min 0,000 mm 0,0 UV-I 0 W/m 10,7 C 11,2 C 3,2 km/h (1 Bft) 95,74 %
15.07.2019 02:58 11,2 C 20,0 C 10,0 C 97 % 1013,7 hPa 0,0 l/m 2,2 km/h (1 Bft) S-SW 202 0 min 0,000 mm 0,0 UV-I 0 W/m 10,7 C 11,2 C 3,2 km/h (1 Bft) 95,74 %
15.07.2019 03:00 11,0 C 20,0 C 10,0 C 97 % 1013,7 hPa 0,0 l/m 1,2 km/h (1 Bft) S-SW 202 0 min 0,000 mm 0,0 UV-I 0 W/m 10,5 C 11,0 C 1,6 km/h (1 Bft) 98,00 %
15.07.2019 03:02 10,9 C 20,0 C 10,0 C 97 % 1013,7 hPa 0,0 l/m 1,8 km/h (1 Bft) S-SW 202 0 min 0,000 mm 0,0 UV-I 0 W/m 10,4 C 10,9 C 3,2 km/h (1 Bft) 100,00 %
15.07.2019 03:04 11,0 C 20,0 C 10,0 C 97 % 1013,8 hPa 0,0 l/m 3,6 km/h (1 Bft) S-SW 204 0 min 0,000 mm 0,0 UV-I 0 W/m 10,5 C 11,0 C 4,8 km/h (1 Bft) 100,00 %
15.07.2019 03:06 11,1 C 20,0 C 10,6 C 97 % 1013,8 hPa 0,0 l/m 3,5 km/h (1 Bft) S-SW 205 0 min 0,000 mm 0,0 UV-I 0 W/m 10,6 C 11,1 C 4,8 km/h (1 Bft) 97,87 %
15.07.2019 03:08 11,1 C 20,0 C 10,6 C 97 % 1013,8 hPa 0,0 l/m 2,5 km/h (1 Bft) S-SW 206 0 min 0,000 mm 0,0 UV-I 0 W/m 10,6 C 11,1 C 3,2 km/h (1 Bft) 95,74 %
15.07.2019 03:10 11,1 C 20,0 C 10,6 C 97 % 1013,8 hPa 0,0 l/m 2,8 km/h (1 Bft) S-SW 206 0 min 0,000 mm 0,0 UV-I 0 W/m 10,6 C 11,1 C 3,2 km/h (1 Bft) 97,87 %
15.07.2019 03:12 11,1 C 20,0 C 10,6 C 97 % 1013,7 hPa 0,0 l/m 3,5 km/h (1 Bft) S-SW 206 0 min 0,000 mm 0,0 UV-I 0 W/m 10,6 C 11,1 C 4,8 km/h (1 Bft) 100,00 %
15.07.2019 03:14 11,0 C 20,0 C 10,6 C 97 % 1013,7 hPa 0,0 l/m 3,0 km/h (1 Bft) S-SW 206 0 min 0,000 mm 0,0 UV-I 0 W/m 10,5 C 11,0 C 4,8 km/h (1 Bft) 97,87 %
15.07.2019 03:16 10,9 C 20,0 C 10,6 C 97 % 1013,7 hPa 0,0 l/m 3,7 km/h (1 Bft) S-SW 209 0 min 0,000 mm 0,0 UV-I 0 W/m 10,4 C 10,9 C 6,4 km/h (2 Bft) 100,00 %
15.07.2019 03:18 10,9 C 20,0 C 10,0 C 97 % 1013,7 hPa 0,0 l/m 5,8 km/h (2 Bft) SW 214 0 min 0,000 mm 0,0 UV-I 0 W/m 10,4 C 10,9 C 6,4 km/h (2 Bft) 100,00 %
15.07.2019 03:20 10,9 C 20,0 C 10,6 C 97 % 1013,7 hPa 0,0 l/m 3,8 km/h (1 Bft) SW 214 0 min 0,000 mm 0,0 UV-I 0 W/m 10,4 C 10,9 C 6,4 km/h (2 Bft) 97,87 %
15.07.2019 03:22 10,9 C 20,0 C 10,0 C 97 % 1013,7 hPa 0,0 l/m 0,8 km/h (0 Bft) SW 214 0 min 0,000 mm 0,0 UV-I 0 W/m 10,4 C 10,9 C 1,6 km/h (1 Bft) 100,00 %
15.07.2019 03:24 10,9 C 20,0 C 10,0 C 97 % 1013,7 hPa 0,0 l/m 0,3 km/h (0 Bft) SW 214 0 min 0,000 mm 0,0 UV-I 0 W/m 10,4 C 10,9 C 1,6 km/h (1 Bft) 100,00 %
15.07.2019 03:26 11,1 C 20,0 C 9,4 C 97 % 1013,7 hPa 0,0 l/m 2,0 km/h (1 Bft) SW 216 0 min 0,000 mm 0,0 UV-I 0 W/m 10,6 C 11,1 C 4,8 km/h (1 Bft) 95,74 %
15.07.2019 03:28 11,1 C 19,4 C 9,4 C 97 % 1013,6 hPa 0,0 l/m 3,2 km/h (1 Bft) SW 216 0 min 0,000 mm 0,0 UV-I 0 W/m 10,6 C 11,1 C 4,8 km/h (1 Bft) 97,87 %
15.07.2019 03:30 11,1 C 20,0 C 10,0 C 97 % 1013,6 hPa 0,0 l/m 3,4 km/h (1 Bft) SW 216 0 min 0,000 mm 0,0 UV-I 0 W/m 10,6 C 11,1 C 4,8 km/h (1 Bft) 95,74 %
15.07.2019 03:32 11,2 C 20,0 C 10,0 C 97 % 1013,6 hPa 0,0 l/m 2,9 km/h (1 Bft) SW 216 0 min 0,000 mm 0,0 UV-I 0 W/m 10,7 C 11,2 C 4,8 km/h (1 Bft) 92,00 %
15.07.2019 03:34 11,1 C 20,0 C 10,0 C 97 % 1013,7 hPa 0,0 l/m 2,4 km/h (1 Bft) SW 216 0 min 0,000 mm 0,0 UV-I 0 W/m 10,6 C 11,1 C 4,8 km/h (1 Bft) 95,74 %
15.07.2019 03:36 11,2 C 20,0 C 10,0 C 97 % 1013,7 hPa 0,0 l/m 2,4 km/h (1 Bft) SW 216 0 min 0,000 mm 0,0 UV-I 0 W/m 10,7 C 11,2 C 3,2 km/h (1 Bft) 97,22 %
15.07.2019 03:38 11,2 C 20,0 C 10,0 C 97 % 1013,7 hPa 0,0 l/m 2,2 km/h (1 Bft) SW 216 0 min 0,000 mm 0,0 UV-I 0 W/m 10,7 C 11,2 C 3,2 km/h (1 Bft) 93,62 %
15.07.2019 03:40 11,1 C 20,0 C 10,0 C 97 % 1013,7 hPa 0,0 l/m 2,3 km/h (1 Bft) SW 216 0 min 0,000 mm 0,0 UV-I 0 W/m 10,6 C 11,1 C 3,2 km/h (1 Bft) 95,74 %
15.07.2019 03:42 11,1 C 19,4 C 10,6 C 97 % 1013,7 hPa 0,0 l/m 2,7 km/h (1 Bft) SW 216 0 min 0,000 mm 0,0 UV-I 0 W/m 10,6 C 11,1 C 3,2 km/h (1 Bft) 95,74 %
15.07.2019 03:44 11,1 C 19,4 C 10,6 C 97 % 1013,7 hPa 0,0 l/m 1,4 km/h (1 Bft) SW 216 0 min 0,000 mm 0,0 UV-I 0 W/m 10,6 C 11,1 C 3,2 km/h (1 Bft) 95,74 %
15.07.2019 03:46 11,0 C 19,4 C 10,6 C 97 % 1013,7 hPa 0,0 l/m 0,8 km/h (0 Bft) SW 216 0 min 0,000 mm 0,0 UV-I 0 W/m 10,5 C 11,0 C 1,6 km/h (1 Bft) 96,00 %
15.07.2019 03:48 11,1 C 19,4 C 10,6 C 97 % 1013,7 hPa 0,0 l/m 1,4 km/h (1 Bft) SW 216 0 min 0,000 mm 0,0 UV-I 0 W/m 10,6 C 11,1 C 3,2 km/h (1 Bft) 97,87 %
15.07.2019 03:50 11,1 C 19,4 C 11,1 C 97 % 1013,7 hPa 0,0 l/m 1,2 km/h (1 Bft) SW 216 0 min 0,000 mm 0,0 UV-I 0 W/m 10,6 C 11,1 C 1,6 km/h (1 Bft) 95,74 %
15.07.2019 03:52 11,2 C 19,4 C 11,1 C 97 % 1013,7 hPa 0,0 l/m 0,9 km/h (0 Bft) SW 216 0 min 0,000 mm 0,0 UV-I 0 W/m 10,7 C 11,2 C 3,2 km/h (1 Bft) 97,87 %
15.07.2019 03:54 11,3 C 19,4 C 11,7 C 97 % 1013,7 hPa 0,0 l/m 3,2 km/h (1 Bft) SW 216 0 min 0,000 mm 0,0 UV-I 0 W/m 10,8 C 11,3 C 4,8 km/h (1 Bft) 97,87 %
15.07.2019 03:56 11,3 C 19,4 C 11,7 C 97 % 1013,7 hPa 0,0 l/m 2,9 km/h (1 Bft) SW 215 0 min 0,000 mm 0,0 UV-I 0 W/m 10,8 C 11,3 C 4,8 km/h (1 Bft) 97,87 %
15.07.2019 03:58 11,3 C 19,4 C 11,7 C 97 % 1013,6 hPa 0,0 l/m 2,8 km/h (1 Bft) SW 215 0 min 0,000 mm 0,0 UV-I 0 W/m 10,8 C 11,3 C 3,2 km/h (1 Bft) 94,00 %
15.07.2019 04:00 11,3 C 19,4 C 11,7 C 97 % 1013,6 hPa 0,0 l/m 2,1 km/h (1 Bft) SW 215 0 min 0,000 mm 0,0 UV-I 0 W/m 10,8 C 11,3 C 3,2 km/h (1 Bft) 97,87 %
15.07.2019 04:02 11,4 C 19,4 C 11,7 C 97 % 1013,6 hPa 0,0 l/m 1,8 km/h (1 Bft) SW 215 0 min 0,000 mm 0,0 UV-I 0 W/m 10,9 C 11,4 C 3,2 km/h (1 Bft) 100,00 %
15.07.2019 04:04 11,4 C 19,4 C 11,7 C 97 % 1013,6 hPa 0,0 l/m 2,3 km/h (1 Bft) SW 215 0 min 0,000 mm 0,0 UV-I 0 W/m 10,9 C 11,4 C 3,2 km/h (1 Bft) 97,22 %
15.07.2019 04:06 11,4 C 19,4 C 11,7 C 97 % 1013,5 hPa 0,0 l/m 1,7 km/h (1 Bft) SW 215 0 min 0,000 mm 0,0 UV-I 0 W/m 10,9 C 11,4 C 3,2 km/h (1 Bft) 98,00 %
15.07.2019 04:08 11,5 C 19,4 C 11,7 C 98 % 1013,5 hPa 0,0 l/m 2,4 km/h (1 Bft) SW 216 0 min 0,000 mm 0,0 UV-I 0 W/m 11,2 C 11,5 C 3,2 km/h (1 Bft) 95,74 %
15.07.2019 04:10 11,4 C 19,4 C 11,7 C 97 % 1013,6 hPa 0,0 l/m 2,5 km/h (1 Bft) SW 216 0 min 0,000 mm 0,0 UV-I 0 W/m 10,9 C 11,4 C 4,8 km/h (1 Bft) 100,00 %
15.07.2019 04:12 11,3 C 19,4 C 11,7 C 97 % 1013,6 hPa 0,0 l/m 2,6 km/h (1 Bft) SW 216 0 min 0,000 mm 0,0 UV-I 0 W/m 10,8 C 11,3 C 3,2 km/h (1 Bft) 100,00 %
15.07.2019 04:14 11,4 C 19,4 C 12,2 C 97 % 1013,6 hPa 0,0 l/m 2,4 km/h (1 Bft) SW 216 0 min 0,000 mm 0,0 UV-I 0 W/m 10,9 C 11,4 C 3,2 km/h (1 Bft) 97,87 %
15.07.2019 04:16 11,3 C 19,4 C 12,2 C 97 % 1013,5 hPa 0,0 l/m 1,2 km/h (1 Bft) SW 216 0 min 0,000 mm 0,0 UV-I 0 W/m 10,8 C 11,3 C 1,6 km/h (1 Bft) 97,87 %
15.07.2019 04:18 11,3 C 19,4 C 12,2 C 97 % 1013,5 hPa 0,0 l/m 1,5 km/h (1 Bft) SW 216 0 min 0,000 mm 0,0 UV-I 0 W/m 10,8 C 11,3 C 3,2 km/h (1 Bft) 91,49 %
15.07.2019 04:20 11,3 C 19,4 C 12,2 C 97 % 1013,5 hPa 0,0 l/m 0,7 km/h (0 Bft) SW 216 0 min 0,000 mm 0,0 UV-I 0 W/m 10,8 C 11,3 C 1,6 km/h (1 Bft) 100,00 %
15.07.2019 04:22 11,2 C 19,4 C 12,2 C 97 % 1013,5 hPa 0,0 l/m 0,6 km/h (0 Bft) SW 216 0 min 0,000 mm 0,0 UV-I 0 W/m 10,7 C 11,2 C 1,6 km/h (1 Bft) 97,87 %
15.07.2019 04:24 11,3 C 19,4 C 12,2 C 97 % 1013,5 hPa 0,0 l/m 1,4 km/h (1 Bft) SW 216 0 min 0,000 mm 0,0 UV-I 0 W/m 10,8 C 11,3 C 3,2 km/h (1 Bft) 100,00 %
15.07.2019 04:26 11,3 C 19,4 C 12,2 C 97 % 1013,5 hPa 0,0 l/m 1,2 km/h (1 Bft) SW 216 0 min 0,000 mm 0,0 UV-I 0 W/m 10,8 C 11,3 C 3,2 km/h (1 Bft) 100,00 %
15.07.2019 04:28 11,3 C 19,4 C 12,2 C 97 % 1013,6 hPa 0,0 l/m 0,8 km/h (0 Bft) SW 216 0 min 0,000 mm 0,0 UV-I 0 W/m 10,8 C 11,3 C 1,6 km/h (1 Bft) 100,00 %
15.07.2019 04:30 11,3 C 19,4 C 12,2 C 97 % 1013,5 hPa 0,0 l/m 0,7 km/h (0 Bft) SW 216 0 min 0,000 mm 0,0 UV-I 0 W/m 10,8 C 11,3 C 1,6 km/h (1 Bft) 100,00 %
15.07.2019 04:32 11,3 C 19,4 C 12,2 C 97 % 1013,5 hPa 0,0 l/m 0,8 km/h (0 Bft) SW 216 0 min 0,000 mm 0,0 UV-I 0 W/m 10,8 C 11,3 C 1,6 km/h (1 Bft) 100,00 %
15.07.2019 04:34 11,4 C 19,4 C 12,2 C 97 % 1013,5 hPa 0,0 l/m 1,3 km/h (1 Bft) SW 216 0 min 0,000 mm 0,0 UV-I 0 W/m 10,9 C 11,4 C 3,2 km/h (1 Bft) 100,00 %
15.07.2019 04:36 11,4 C 19,4 C 12,2 C 97 % 1013,5 hPa 0,0 l/m 1,9 km/h (1 Bft) SW 216 0 min 0,000 mm 0,0 UV-I 0 W/m 10,9 C 11,4 C 3,2 km/h (1 Bft) 100,00 %
15.07.2019 04:38 11,3 C 19,4 C 12,2 C 97 % 1013,6 hPa 0,0 l/m 1,3 km/h (1 Bft) SW 216 0 min 0,000 mm 0,0 UV-I 0 W/m 10,8 C 11,3 C 3,2 km/h (1 Bft) 97,87 %
15.07.2019 04:40 11,3 C 19,4 C 12,2 C 97 % 1013,6 hPa 0,0 l/m 1,3 km/h (1 Bft) SW 216 0 min 0,000 mm 0,0 UV-I 0 W/m 10,8 C 11,3 C 3,2 km/h (1 Bft) 100,00 %
15.07.2019 04:42 11,3 C 19,4 C 12,2 C 97 % 1013,6 hPa 0,0 l/m 1,1 km/h (1 Bft) SW 216 0 min 0,000 mm 0,0 UV-I 0 W/m 10,8 C 11,3 C 3,2 km/h (1 Bft) 100,00 %
15.07.2019 04:44 11,3 C 19,4 C 12,2 C 98 % 1013,7 hPa 0,0 l/m 2,1 km/h (1 Bft) SW 216 0 min 0,000 mm 0,0 UV-I 0 W/m 11,0 C 11,3 C 3,2 km/h (1 Bft) 100,00 %
15.07.2019 04:46 11,3 C 19,4 C 12,2 C 97 % 1013,6 hPa 0,0 l/m 1,4 km/h (1 Bft) SW 216 0 min 0,000 mm 0,0 UV-I 0 W/m 10,8 C 11,3 C 3,2 km/h (1 Bft) 97,87 %
15.07.2019 04:48 11,3 C 19,4 C 12,2 C 98 % 1013,7 hPa 0,0 l/m 0,7 km/h (0 Bft) SW 216 0 min 0,000 mm 0,0 UV-I 0 W/m 11,0 C 11,3 C 1,6 km/h (1 Bft) 97,87 %
15.07.2019 04:50 11,4 C 19,4 C 12,2 C 97 % 1013,7 hPa 0,0 l/m 1,4 km/h (1 Bft) SW 216 0 min 0,000 mm 0,0 UV-I 0 W/m 10,9 C 11,4 C 3,2 km/h (1 Bft) 95,83 %
15.07.2019 04:52 11,4 C 19,4 C 12,2 C 97 % 1013,7 hPa 0,0 l/m 2,4 km/h (1 Bft) SW 216 0 min 0,000 mm 0,0 UV-I 0 W/m 10,9 C 11,4 C 3,2 km/h (1 Bft) 95,74 %
15.07.2019 04:54 11,4 C 19,4 C 12,2 C 97 % 1013,7 hPa 0,0 l/m 3,5 km/h (1 Bft) SW 216 0 min 0,000 mm 0,0 UV-I 0 W/m 10,9 C 11,4 C 4,8 km/h (1 Bft) 95,92 %
15.07.2019 04:56 11,5 C 19,4 C 12,2 C 97 % 1013,7 hPa 0,0 l/m 3,8 km/h (1 Bft) SW 215 0 min 0,000 mm 0,0 UV-I 0 W/m 11,0 C 11,5 C 4,8 km/h (1 Bft) 97,87 %
15.07.2019 04:58 11,6 C 19,4 C 12,8 C 97 % 1013,8 hPa 0,0 l/m 4,0 km/h (1 Bft) SW 217 0 min 0,000 mm 0,0 UV-I 0 W/m 11,1 C 11,6 C 6,4 km/h (2 Bft) 97,87 %
15.07.2019 05:00 11,6 C 19,4 C 12,8 C 97 % 1013,8 hPa 0,0 l/m 3,7 km/h (1 Bft) SW 221 0 min 0,000 mm 0,0 UV-I 0 W/m 11,1 C 11,6 C 4,8 km/h (1 Bft) 97,87 %
15.07.2019 05:02 11,6 C 19,4 C 12,8 C 98 % 1013,8 hPa 0,0 l/m 3,5 km/h (1 Bft) SW 221 0 min 0,000 mm 0,0 UV-I 0 W/m 11,3 C 11,6 C 6,4 km/h (2 Bft) 97,37 %
15.07.2019 05:04 11,5 C 19,4 C 12,2 C 97 % 1013,8 hPa 0,0 l/m 3,8 km/h (1 Bft) SW 223 0 min 0,000 mm 0,0 UV-I 1 W/m 11,0 C 11,5 C 4,8 km/h (1 Bft) 97,87 %
15.07.2019 05:06 11,5 C 19,4 C 12,2 C 97 % 1013,8 hPa 0,0 l/m 2,7 km/h (1 Bft) SW 223 0 min 0,000 mm 0,0 UV-I 5 W/m 11,0 C 11,5 C 4,8 km/h (1 Bft) 94,00 %
15.07.2019 05:08 11,5 C 19,4 C 12,2 C 97 % 1013,9 hPa 0,0 l/m 3,7 km/h (1 Bft) SW 224 0 min 0,000 mm 0,0 UV-I 5 W/m 11,0 C 11,5 C 4,8 km/h (1 Bft) 97,87 %
15.07.2019 05:10 11,6 C 19,4 C 12,2 C 97 % 1013,8 hPa 0,0 l/m 3,0 km/h (1 Bft) SW 224 0 min 0,000 mm 0,0 UV-I 5 W/m 11,1 C 11,6 C 4,8 km/h (1 Bft) 95,74 %
15.07.2019 05:12 11,6 C 19,4 C 12,2 C 97 % 1013,7 hPa 0,0 l/m 2,6 km/h (1 Bft) SW 224 0 min 0,000 mm 0,0 UV-I 5 W/m 11,1 C 11,6 C 3,2 km/h (1 Bft) 95,74 %
15.07.2019 05:14 11,6 C 19,4 C 12,2 C 97 % 1013,8 hPa 0,0 l/m 2,2 km/h (1 Bft) SW 224 0 min 0,000 mm 0,0 UV-I 5 W/m 11,1 C 11,6 C 3,2 km/h (1 Bft) 97,87 %
15.07.2019 05:16 11,6 C 19,4 C 12,8 C 98 % 1013,9 hPa 0,0 l/m 2,8 km/h (1 Bft) SW 225 0 min 0,000 mm 0,0 UV-I 5 W/m 11,3 C 11,6 C 4,8 km/h (1 Bft) 97,87 %
15.07.2019 05:18 11,7 C 19,4 C 12,8 C 98 % 1013,9 hPa 0,0 l/m 2,5 km/h (1 Bft) SW 225 0 min 0,000 mm 0,0 UV-I 5 W/m 11,4 C 11,7 C 3,2 km/h (1 Bft) 95,74 %
15.07.2019 05:20 11,7 C 19,4 C 12,8 C 98 % 1013,9 hPa 0,0 l/m 1,8 km/h (1 Bft) SW 225 0 min 0,000 mm 0,0 UV-I 6 W/m 11,4 C 11,7 C 3,2 km/h (1 Bft) 95,74 %
15.07.2019 05:22 11,7 C 19,4 C 12,8 C 98 % 1013,9 hPa 0,0 l/m 1,6 km/h (1 Bft) SW 225 0 min 0,000 mm 0,0 UV-I 7 W/m 11,4 C 11,7 C 3,2 km/h (1 Bft) 98,00 %
15.07.2019 05:24 11,6 C 19,4 C 12,8 C 98 % 1013,9 hPa 0,0 l/m 2,1 km/h (1 Bft) SW 225 0 min 0,000 mm 0,0 UV-I 7 W/m 11,3 C 11,6 C 3,2 km/h (1 Bft) 97,44 %
15.07.2019 05:26 11,6 C 19,4 C 12,8 C 98 % 1013,9 hPa 0,0 l/m 2,0 km/h (1 Bft) SW 225 0 min 0,000 mm 0,0 UV-I 8 W/m 11,3 C 11,6 C 3,2 km/h (1 Bft) 97,87 %
15.07.2019 05:28 11,6 C 19,4 C 12,8 C 98 % 1013,9 hPa 0,0 l/m 2,6 km/h (1 Bft) SW 225 0 min 0,000 mm 0,0 UV-I 9 W/m 11,3 C 11,6 C 3,2 km/h (1 Bft) 97,87 %
15.07.2019 05:30 11,6 C 19,4 C 12,8 C 98 % 1013,9 hPa 0,0 l/m 1,9 km/h (1 Bft) SW 225 0 min 0,000 mm 0,0 UV-I 9 W/m 11,3 C 11,6 C 3,2 km/h (1 Bft) 97,96 %
15.07.2019 05:32 11,7 C 19,4 C 12,8 C 98 % 1013,9 hPa 0,0 l/m 2,6 km/h (1 Bft) SW 225 2 min 0,000 mm 0,0 UV-I 11 W/m 11,4 C 11,7 C 3,2 km/h (1 Bft) 97,87 %
15.07.2019 05:34 11,7 C 19,4 C 12,8 C 98 % 1013,9 hPa 0,0 l/m 2,4 km/h (1 Bft) SW 225 0 min 0,000 mm 0,0 UV-I 11 W/m 11,4 C 11,7 C 3,2 km/h (1 Bft) 93,62 %
15.07.2019 05:36 11,8 C 19,4 C 12,8 C 98 % 1013,9 hPa 0,0 l/m 2,6 km/h (1 Bft) SW 225 0 min 0,000 mm 0,0 UV-I 12 W/m 11,5 C 11,8 C 4,8 km/h (1 Bft) 95,74 %
15.07.2019 05:38 11,8 C 19,4 C 12,8 C 98 % 1013,8 hPa 0,0 l/m 2,2 km/h (1 Bft) SW 225 0 min 0,000 mm 0,0 UV-I 13 W/m 11,5 C 11,8 C 4,8 km/h (1 Bft) 94,00 %
15.07.2019 05:40 11,8 C 19,4 C 12,8 C 98 % 1013,9 hPa 0,0 l/m 2,0 km/h (1 Bft) SW 225 0 min 0,000 mm 0,0 UV-I 14 W/m 11,5 C 11,8 C 3,2 km/h (1 Bft) 93,62 %
15.07.2019 05:42 11,9 C 19,4 C 12,8 C 98 % 1013,9 hPa 0,0 l/m 1,5 km/h (1 Bft) SW 225 0 min 0,000 mm 0,0 UV-I 16 W/m 11,6 C 11,9 C 3,2 km/h (1 Bft) 95,74 %
15.07.2019 05:44 11,8 C 19,4 C 12,8 C 98 % 1014,0 hPa 0,0 l/m 1,0 km/h (0 Bft) SW 225 0 min 0,000 mm 0,0 UV-I 16 W/m 11,5 C 11,8 C 3,2 km/h (1 Bft) 93,62 %
15.07.2019 05:46 11,9 C 19,4 C 12,8 C 98 % 1013,9 hPa 0,0 l/m 0,0 km/h (0 Bft) SW 225 0 min 0,000 mm 0,0 UV-I 18 W/m 11,6 C 11,9 C 1,6 km/h (1 Bft) 95,74 %
15.07.2019 05:48 11,9 C 19,4 C 12,8 C 98 % 1013,9 hPa 0,0 l/m 2,0 km/h (1 Bft) SW 225 0 min 0,000 mm 0,0 UV-I 18 W/m 11,6 C 11,9 C 3,2 km/h (1 Bft) 95,74 %
15.07.2019 05:50 11,8 C 19,4 C 12,8 C 98 % 1014,0 hPa 0,0 l/m 1,5 km/h (1 Bft) SW 225 0 min 0,000 mm 0,0 UV-I 18 W/m 11,5 C 11,8 C 4,8 km/h (1 Bft) 93,62 %
15.07.2019 05:52 11,8 C 19,4 C 12,8 C 98 % 1014,0 hPa 0,0 l/m 2,5 km/h (1 Bft) SW 225 0 min 0,000 mm 0,0 UV-I 19 W/m 11,5 C 11,8 C 4,8 km/h (1 Bft) 94,74 %
15.07.2019 05:54 11,8 C 19,4 C 12,8 C 98 % 1014,0 hPa 0,0 l/m 2,9 km/h (1 Bft) SW 225 0 min 0,000 mm 0,0 UV-I 19 W/m 11,5 C 11,8 C 4,8 km/h (1 Bft) 95,74 %
15.07.2019 05:56 11,9 C 19,4 C 13,3 C 98 % 1014,1 hPa 0,0 l/m 3,0 km/h (1 Bft) SW 225 0 min 0,000 mm 0,0 UV-I 20 W/m 11,6 C 11,9 C 4,8 km/h (1 Bft) 93,62 %
15.07.2019 05:58 11,9 C 19,4 C 13,3 C 98 % 1014,1 hPa 0,0 l/m 4,0 km/h (1 Bft) SW 227 0 min 0,000 mm 0,0 UV-I 19 W/m 11,6 C 11,9 C 4,8 km/h (1 Bft) 93,62 %
15.07.2019 06:00 11,9 C 19,4 C 13,3 C 98 % 1014,1 hPa 0,0 l/m 4,0 km/h (1 Bft) SW 230 0 min 0,000 mm 0,0 UV-I 19 W/m 11,6 C 11,9 C 6,4 km/h (2 Bft) 96,00 %
15.07.2019 06:02 11,9 C 19,4 C 13,3 C 98 % 1014,2 hPa 0,0 l/m 3,4 km/h (1 Bft) SW 230 0 min 0,000 mm 0,0 UV-I 20 W/m 11,6 C 11,9 C 4,8 km/h (1 Bft) 92,00 %
15.07.2019 06:04 11,9 C 19,4 C 13,3 C 98 % 1014,2 hPa 0,0 l/m 1,9 km/h (1 Bft) W-SW 244 0 min 0,000 mm 0,0 UV-I 21 W/m 11,6 C 11,9 C 3,2 km/h (1 Bft) 95,83 %
15.07.2019 06:06 11,9 C 19,4 C 13,3 C 98 % 1014,2 hPa 0,0 l/m 1,4 km/h (1 Bft) W-SW 244 0 min 0,000 mm 0,0 UV-I 23 W/m 11,6 C 11,9 C 3,2 km/h (1 Bft) 95,74 %
15.07.2019 06:09 11,9 C 19,4 C 13,3 C 98 % 1014,2 hPa 0,0 l/m 0,7 km/h (0 Bft) W-SW 244 0 min 0,000 mm 0,0 UV-I 25 W/m 11,6 C 11,9 C 1,6 km/h (1 Bft) 97,26 %
15.07.2019 06:10 11,9 C 19,4 C 13,3 C 98 % 1014,1 hPa 0,0 l/m 0,1 km/h (0 Bft) W-SW 244 0 min 0,000 mm 0,0 UV-I 27 W/m 11,6 C 11,9 C 1,6 km/h (1 Bft) 100,00 %
15.07.2019 06:12 11,9 C 19,4 C 13,3 C 98 % 1014,1 hPa 0,0 l/m 1,3 km/h (1 Bft) W-SW 244 0 min 0,000 mm 0,0 UV-I 30 W/m 11,6 C 11,9 C 3,2 km/h (1 Bft) 100,00 %
15.07.2019 06:14 11,9 C 19,4 C 13,3 C 98 % 1014,1 hPa 0,0 l/m 0,9 km/h (0 Bft) W-SW 244 0 min 0,000 mm 0,0 UV-I 32 W/m 11,6 C 11,9 C 1,6 km/h (1 Bft) 96,00 %
15.07.2019 06:16 12,0 C 19,4 C 13,3 C 98 % 1014,1 hPa 0,0 l/m 0,7 km/h (0 Bft) W-SW 244 0 min 0,000 mm 0,0 UV-I 33 W/m 11,7 C 12,0 C 1,6 km/h (1 Bft) 94,00 %
15.07.2019 06:18 12,1 C 19,4 C 13,3 C 98 % 1014,0 hPa 0,0 l/m 2,0 km/h (1 Bft) W-SW 244 0 min 0,000 mm 0,0 UV-I 34 W/m 11,8 C 12,1 C 3,2 km/h (1 Bft) 97,87 %
15.07.2019 06:20 12,1 C 19,4 C 13,9 C 98 % 1014,0 hPa 0,0 l/m 1,8 km/h (1 Bft) W-SW 244 0 min 0,000 mm 0,0 UV-I 34 W/m 11,8 C 12,1 C 3,2 km/h (1 Bft) 95,74 %
15.07.2019 06:22 12,1 C 19,4 C 13,3 C 98 % 1014,0 hPa 0,2 l/m 1,9 km/h (1 Bft) W-SW 244 0 min 0,000 mm 0,0 UV-I 33 W/m 11,8 C 12,1 C 3,2 km/h (1 Bft) 96,00 %
15.07.2019 06:24 12,1 C 19,4 C 13,9 C 98 % 1014,1 hPa 0,0 l/m 1,7 km/h (1 Bft) W-SW 244 0 min 0,000 mm 0,0 UV-I 33 W/m 11,8 C 12,1 C 3,2 km/h (1 Bft) 95,74 %
15.07.2019 06:26 12,1 C 19,4 C 13,9 C 98 % 1014,1 hPa 0,0 l/m 0,8 km/h (0 Bft) W-SW 244 0 min 0,000 mm 0,0 UV-I 33 W/m 11,8 C 12,1 C 1,6 km/h (1 Bft) 97,87 %
15.07.2019 06:28 12,2 C 19,4 C 13,9 C 98 % 1014,1 hPa 0,0 l/m 1,1 km/h (1 Bft) W-SW 244 0 min 0,000 mm 0,0 UV-I 33 W/m 11,9 C 12,2 C 3,2 km/h (1 Bft) 97,87 %
15.07.2019 06:30 12,1 C 19,4 C 13,3 C 98 % 1014,2 hPa 0,0 l/m 1,2 km/h (1 Bft) W-SW 244 0 min 0,000 mm 0,0 UV-I 34 W/m 11,8 C 12,1 C 3,2 km/h (1 Bft) 97,37 %
15.07.2019 06:32 12,1 C 19,4 C 13,3 C 98 % 1014,1 hPa 0,0 l/m 0,5 km/h (0 Bft) W-SW 244 0 min 0,000 mm 0,0 UV-I 37 W/m 11,8 C 12,1 C 1,6 km/h (1 Bft) 95,74 %
15.07.2019 06:34 12,1 C 19,4 C 13,9 C 98 % 1014,2 hPa 0,0 l/m 1,0 km/h (0 Bft) W-SW 244 0 min 0,000 mm 0,0 UV-I 39 W/m 11,8 C 12,1 C 3,2 km/h (1 Bft) 97,87 %
15.07.2019 06:36 12,1 C 19,4 C 13,9 C 98 % 1014,2 hPa 0,0 l/m 2,4 km/h (1 Bft) W-SW 244 0 min 0,000 mm 0,0 UV-I 40 W/m 11,8 C 12,1 C 3,2 km/h (1 Bft) 95,74 %
15.07.2019 06:38 12,2 C 19,4 C 13,9 C 98 % 1014,2 hPa 0,0 l/m 3,2 km/h (1 Bft) W-SW 244 0 min 0,000 mm 0,0 UV-I 39 W/m 11,9 C 12,2 C 4,8 km/h (1 Bft) 100,00 %
15.07.2019 06:40 12,2 C 19,4 C 13,9 C 98 % 1014,2 hPa 0,0 l/m 2,3 km/h (1 Bft) W-SW 244 0 min 0,000 mm 0,0 UV-I 36 W/m 11,9 C 12,2 C 4,8 km/h (1 Bft) 100,00 %
15.07.2019 06:42 12,2 C 19,4 C 13,9 C 98 % 1014,3 hPa 0,0 l/m 3,1 km/h (1 Bft) W-SW 244 0 min 0,000 mm 0,0 UV-I 33 W/m 11,9 C 12,2 C 4,8 km/h (1 Bft) 100,00 %
15.07.2019 06:44 12,2 C 19,4 C 13,9 C 98 % 1014,3 hPa 0,0 l/m 2,5 km/h (1 Bft) W-SW 244 0 min 0,000 mm 0,0 UV-I 31 W/m 11,9 C 12,2 C 4,8 km/h (1 Bft) 100,00 %
15.07.2019 06:46 12,2 C 19,4 C 13,9 C 98 % 1014,3 hPa 0,0 l/m 2,6 km/h (1 Bft) SW 223 0 min 0,000 mm 0,0 UV-I 28 W/m 11,9 C 12,2 C 6,4 km/h (2 Bft) 97,87 %
15.07.2019 06:48 12,2 C 19,4 C 13,9 C 98 % 1014,3 hPa 0,0 l/m 3,0 km/h (1 Bft) S-SW 195 0 min 0,000 mm 0,0 UV-I 26 W/m 11,9 C 12,2 C 4,8 km/h (1 Bft) 100,00 %
15.07.2019 06:50 12,2 C 19,4 C 13,9 C 98 % 1014,3 hPa 0,0 l/m 5,0 km/h (1 Bft) S-SW 194 0 min 0,000 mm 0,0 UV-I 25 W/m 11,9 C 12,2 C 6,4 km/h (2 Bft) 100,00 %
15.07.2019 06:52 12,2 C 19,4 C 13,9 C 98 % 1014,3 hPa 0,0 l/m 4,0 km/h (1 Bft) S-SW 194 0 min 0,000 mm 0,0 UV-I 26 W/m 11,9 C 12,2 C 4,8 km/h (1 Bft) 98,00 %
15.07.2019 06:54 12,2 C 19,4 C 13,9 C 98 % 1014,2 hPa 0,0 l/m 3,1 km/h (1 Bft) S-SW 194 0 min 0,000 mm 0,0 UV-I 26 W/m 11,9 C 12,2 C 4,8 km/h (1 Bft) 100,00 %
15.07.2019 06:56 12,2 C 19,4 C 13,9 C 98 % 1014,3 hPa 0,0 l/m 3,5 km/h (1 Bft) S-SW 194 0 min 0,000 mm 0,0 UV-I 26 W/m 11,9 C 12,2 C 6,4 km/h (2 Bft) 100,00 %
15.07.2019 06:58 12,2 C 19,4 C 13,9 C 98 % 1014,3 hPa 0,0 l/m 3,2 km/h (1 Bft) S-SW 194 0 min 0,000 mm 0,0 UV-I 29 W/m 11,9 C 12,2 C 4,8 km/h (1 Bft) 97,37 %
15.07.2019 07:00 12,3 C 19,4 C 13,9 C 98 % 1014,3 hPa 0,0 l/m 3,6 km/h (1 Bft) S-SW 194 0 min 0,025 mm 0,0 UV-I 32 W/m 12,0 C 12,3 C 4,8 km/h (1 Bft) 100,00 %
15.07.2019 07:02 12,3 C 19,4 C 13,9 C 98 % 1014,3 hPa 0,0 l/m 3,2 km/h (1 Bft) S-SW 192 0 min 0,000 mm 0,0 UV-I 39 W/m 12,0 C 12,3 C 4,8 km/h (1 Bft) 100,00 %
15.07.2019 07:04 12,3 C 19,4 C 13,9 C 98 % 1014,3 hPa 0,0 l/m 2,3 km/h (1 Bft) S-SW 198 0 min 0,000 mm 0,0 UV-I 48 W/m 12,0 C 12,3 C 4,8 km/h (1 Bft) 100,00 %
15.07.2019 07:06 12,3 C 19,4 C 13,9 C 98 % 1014,3 hPa 0,0 l/m 2,0 km/h (1 Bft) S-SW 198 0 min 0,000 mm 0,0 UV-I 58 W/m 12,0 C 12,3 C 3,2 km/h (1 Bft) 100,00 %
15.07.2019 07:08 12,4 C 19,4 C 14,4 C 98 % 1014,3 hPa 0,0 l/m 2,5 km/h (1 Bft) S-SW 198 0 min 0,000 mm 0,0 UV-I 66 W/m 12,1 C 12,4 C 3,2 km/h (1 Bft) 100,00 %
15.07.2019 07:10 12,4 C 19,4 C 14,4 C 98 % 1014,3 hPa 0,0 l/m 1,0 km/h (0 Bft) S-SW 198 0 min 0,000 mm 0,0 UV-I 72 W/m 12,1 C 12,4 C 1,6 km/h (1 Bft) 100,00 %
15.07.2019 07:12 12,3 C 19,4 C 14,4 C 98 % 1014,2 hPa 0,0 l/m 0,5 km/h (0 Bft) S-SW 198 0 min 0,000 mm 0,0 UV-I 74 W/m 12,0 C 12,3 C 3,2 km/h (1 Bft) 100,00 %
15.07.2019 07:14 12,2 C 19,4 C 14,4 C 98 % 1014,3 hPa 0,0 l/m 0,6 km/h (0 Bft) S-SW 198 0 min 0,000 mm 0,0 UV-I 74 W/m 11,9 C 12,2 C 1,6 km/h (1 Bft) 100,00 %
15.07.2019 07:16 12,3 C 19,4 C 14,4 C 98 % 1014,3 hPa 0,0 l/m 0,0 km/h (0 Bft) S-SW 198 0 min 0,000 mm 0,0 UV-I 70 W/m 12,0 C 12,3 C 0,0 km/h (0 Bft) 97,87 %
15.07.2019 07:18 12,3 C 19,4 C 14,4 C 98 % 1014,3 hPa 0,0 l/m 0,5 km/h (0 Bft) S-SW 198 0 min 0,000 mm 0,0 UV-I 71 W/m 12,0 C 12,3 C 1,6 km/h (1 Bft) 94,87 %
15.07.2019 07:20 12,3 C 19,4 C 14,4 C 98 % 1014,4 hPa 0,0 l/m 1,0 km/h (0 Bft) S-SW 198 0 min 0,000 mm 0,0 UV-I 71 W/m 12,0 C 12,3 C 1,6 km/h (1 Bft) 97,87 %
15.07.2019 07:22 12,4 C 19,4 C 14,4 C 98 % 1014,4 hPa 0,0 l/m 0,9 km/h (0 Bft) S-SW 198 0 min 0,000 mm 0,0 UV-I 75 W/m 12,1 C 12,4 C 1,6 km/h (1 Bft) 100,00 %
15.07.2019 07:24 12,4 C 19,4 C 14,4 C 98 % 1014,4 hPa 0,0 l/m 0,8 km/h (0 Bft) S-SW 198 0 min 0,000 mm 0,0 UV-I 65 W/m 12,1 C 12,4 C 1,6 km/h (1 Bft) 97,87 %
15.07.2019 07:26 12,4 C 19,4 C 14,4 C 98 % 1014,4 hPa 0,0 l/m 0,1 km/h (0 Bft) S-SW 198 0 min 0,000 mm 0,0 UV-I 54 W/m 12,1 C 12,4 C 1,6 km/h (1 Bft) 98,00 %
15.07.2019 07:28 12,5 C 19,4 C 14,4 C 98 % 1014,4 hPa 0,0 l/m 0,6 km/h (0 Bft) S-SW 198 0 min 0,000 mm 0,0 UV-I 55 W/m 12,2 C 12,5 C 3,2 km/h (1 Bft) 100,00 %
15.07.2019 07:30 12,4 C 19,4 C 14,4 C 98 % 1014,4 hPa 0,0 l/m 2,6 km/h (1 Bft) S-SW 198 0 min 0,000 mm 0,0 UV-I 62 W/m 12,1 C 12,4 C 3,2 km/h (1 Bft) 97,87 %
15.07.2019 07:32 12,4 C 19,4 C 14,4 C 98 % 1014,4 hPa 0,0 l/m 2,4 km/h (1 Bft) S-SW 198 0 min 0,000 mm 0,0 UV-I 68 W/m 12,1 C 12,4 C 3,2 km/h (1 Bft) 100,00 %
15.07.2019 07:34 12,4 C 19,4 C 14,4 C 98 % 1014,4 hPa 0,0 l/m 2,5 km/h (1 Bft) S-SW 197 0 min 0,000 mm 0,0 UV-I 76 W/m 12,1 C 12,4 C 3,2 km/h (1 Bft) 97,87 %
15.07.2019 07:36 12,4 C 19,4 C 14,4 C 98 % 1014,4 hPa 0,0 l/m 3,2 km/h (1 Bft) O-NO 57 0 min 0,000 mm 0,0 UV-I 79 W/m 12,1 C 12,4 C 4,8 km/h (1 Bft) 94,00 %
15.07.2019 07:38 12,4 C 19,4 C 14,4 C 98 % 1014,4 hPa 0,0 l/m 2,8 km/h (1 Bft) O-NO 57 0 min 0,000 mm 0,3 UV-I 81 W/m 12,1 C 12,4 C 4,8 km/h (1 Bft) 97,87 %
15.07.2019 07:40 12,4 C 19,4 C 13,9 C 98 % 1014,3 hPa 0,0 l/m 2,2 km/h (1 Bft) O-NO 57 0 min 0,000 mm 0,5 UV-I 76 W/m 12,1 C 12,4 C 3,2 km/h (1 Bft) 94,00 %
15.07.2019 07:42 12,4 C 19,4 C 13,9 C 98 % 1014,3 hPa 0,0 l/m 2,3 km/h (1 Bft) O-NO 57 0 min 0,000 mm 0,5 UV-I 72 W/m 12,1 C 12,4 C 3,2 km/h (1 Bft) 97,37 %
15.07.2019 07:44 12,4 C 19,4 C 13,9 C 98 % 1014,4 hPa 0,0 l/m 0,5 km/h (0 Bft) O-NO 57 0 min 0,000 mm 0,5 UV-I 81 W/m 12,1 C 12,4 C 3,2 km/h (1 Bft) 91,84 %
15.07.2019 07:46 12,3 C 19,4 C 14,4 C 98 % 1014,3 hPa 0,0 l/m 0,6 km/h (0 Bft) O-NO 57 0 min 0,000 mm 0,5 UV-I 122 W/m 12,0 C 12,3 C 3,2 km/h (1 Bft) 93,62 %
15.07.2019 07:48 12,4 C 19,4 C 15,0 C 98 % 1014,4 hPa 0,0 l/m 1,8 km/h (1 Bft) O-NO 57 0 min 0,000 mm 0,5 UV-I 154 W/m 12,1 C 12,4 C 3,2 km/h (1 Bft) 95,74 %
15.07.2019 07:50 12,4 C 19,4 C 15,6 C 98 % 1014,4 hPa 0,0 l/m 2,4 km/h (1 Bft) O-SO 115 0 min 0,000 mm 0,5 UV-I 190 W/m 12,1 C 12,4 C 6,4 km/h (2 Bft) 94,00 %
15.07.2019 07:52 12,4 C 19,4 C 15,6 C 98 % 1014,3 hPa 0,0 l/m 3,2 km/h (1 Bft) O-SO 121 0 min 0,000 mm 0,5 UV-I 147 W/m 12,1 C 12,4 C 4,8 km/h (1 Bft) 91,49 %
15.07.2019 07:54 12,4 C 19,4 C 15,6 C 98 % 1014,4 hPa 0,0 l/m 3,4 km/h (1 Bft) S 172 0 min 0,000 mm 0,5 UV-I 130 W/m 12,1 C 12,4 C 4,8 km/h (1 Bft) 95,74 %
15.07.2019 07:56 12,5 C 19,4 C 15,6 C 98 % 1014,3 hPa 0,0 l/m 1,9 km/h (1 Bft) S 172 0 min 0,000 mm 0,6 UV-I 173 W/m 12,2 C 12,5 C 4,8 km/h (1 Bft) 96,00 %
15.07.2019 07:58 12,6 C 19,4 C 16,1 C 98 % 1014,3 hPa 0,0 l/m 0,7 km/h (0 Bft) S 172 0 min 0,000 mm 0,6 UV-I 186 W/m 12,3 C 12,6 C 1,6 km/h (1 Bft) 93,75 %
15.07.2019 08:00 12,7 C 19,4 C 15,6 C 98 % 1014,3 hPa 0,0 l/m 1,4 km/h (1 Bft) S 172 0 min 0,051 mm 0,6 UV-I 159 W/m 12,4 C 12,7 C 3,2 km/h (1 Bft) 91,49 %
15.07.2019 08:02 12,8 C 19,4 C 15,6 C 98 % 1014,3 hPa 0,0 l/m 3,2 km/h (1 Bft) SO 133 0 min 0,000 mm 0,6 UV-I 157 W/m 12,5 C 12,8 C 6,4 km/h (2 Bft) 94,29 %
15.07.2019 08:04 12,8 C 19,4 C 16,1 C 98 % 1014,4 hPa 0,0 l/m 3,8 km/h (1 Bft) SO 134 0 min 0,000 mm 0,6 UV-I 208 W/m 12,5 C 12,8 C 4,8 km/h (1 Bft) 97,87 %
15.07.2019 08:06 12,9 C 19,4 C 16,7 C 98 % 1014,3 hPa 0,0 l/m 2,2 km/h (1 Bft) SO 134 2 min 0,000 mm 0,6 UV-I 242 W/m 12,6 C 12,9 C 3,2 km/h (1 Bft) 95,74 %
15.07.2019 08:08 12,8 C 19,4 C 16,7 C 98 % 1014,3 hPa 0,0 l/m 0,5 km/h (0 Bft) SO 134 2 min 0,000 mm 0,7 UV-I 260 W/m 12,5 C 12,8 C 1,6 km/h (1 Bft) 97,87 %
15.07.2019 08:10 12,8 C 19,4 C 17,2 C 98 % 1014,4 hPa 0,0 l/m 0,7 km/h (0 Bft) SO 134 0 min 0,000 mm 0,7 UV-I 227 W/m 12,5 C 12,8 C 1,6 km/h (1 Bft) 100,00 %
15.07.2019 08:12 12,8 C 19,4 C 17,8 C 98 % 1014,4 hPa 0,0 l/m 0,8 km/h (0 Bft) SO 134 2 min 0,000 mm 0,7 UV-I 275 W/m 12,5 C 12,8 C 1,6 km/h (1 Bft) 100,00 %
15.07.2019 08:14 12,8 C 19,4 C 17,2 C 98 % 1014,3 hPa 0,0 l/m 2,7 km/h (1 Bft) SO 134 2 min 0,000 mm 0,8 UV-I 246 W/m 12,5 C 12,8 C 4,8 km/h (1 Bft) 97,87 %
15.07.2019 08:16 13,2 C 19,4 C 17,2 C 98 % 1014,4 hPa 0,0 l/m 3,2 km/h (1 Bft) SO 133 2 min 0,000 mm 0,8 UV-I 250 W/m 12,9 C 13,2 C 4,8 km/h (1 Bft) 100,00 %
15.07.2019 08:18 13,3 C 19,4 C 17,2 C 98 % 1014,4 hPa 0,0 l/m 1,4 km/h (1 Bft) SO 133 2 min 0,000 mm 0,9 UV-I 260 W/m 13,0 C 13,3 C 3,2 km/h (1 Bft) 100,00 %
15.07.2019 08:20 13,1 C 19,4 C 17,2 C 98 % 1014,4 hPa 0,0 l/m 0,9 km/h (0 Bft) SO 133 0 min 0,000 mm 0,8 UV-I 227 W/m 12,8 C 13,1 C 3,2 km/h (1 Bft) 97,87 %
15.07.2019 08:22 13,1 C 19,4 C 17,8 C 98 % 1014,4 hPa 0,0 l/m 1,7 km/h (1 Bft) SO 133 0 min 0,000 mm 0,8 UV-I 223 W/m 12,8 C 13,1 C 4,8 km/h (1 Bft) 100,00 %
15.07.2019 08:24 13,2 C 19,4 C 17,8 C 98 % 1014,4 hPa 0,0 l/m 3,2 km/h (1 Bft) O-SO 103 0 min 0,000 mm 0,8 UV-I 222 W/m 12,9 C 13,2 C 6,4 km/h (2 Bft) 100,00 %
15.07.2019 08:26 13,4 C 19,4 C 17,8 C 98 % 1014,4 hPa 0,0 l/m 4,0 km/h (1 Bft) O 101 0 min 0,000 mm 0,8 UV-I 213 W/m 13,1 C 13,4 C 4,8 km/h (1 Bft) 97,87 %
15.07.2019 08:28 13,3 C 19,4 C 17,8 C 98 % 1014,4 hPa 0,0 l/m 2,3 km/h (1 Bft) SO 129 0 min 0,000 mm 0,8 UV-I 234 W/m 13,0 C 13,3 C 3,2 km/h (1 Bft) 100,00 %
15.07.2019 08:30 13,3 C 19,4 C 18,3 C 98 % 1014,4 hPa 0,0 l/m 2,0 km/h (1 Bft) SO 129 2 min 0,000 mm 0,9 UV-I 290 W/m 13,0 C 13,3 C 4,8 km/h (1 Bft) 100,00 %
15.07.2019 08:32 13,4 C 19,4 C 18,3 C 98 % 1014,5 hPa 0,0 l/m 2,6 km/h (1 Bft) SO 129 2 min 0,000 mm 0,9 UV-I 306 W/m 13,1 C 13,4 C 4,8 km/h (1 Bft) 97,92 %
15.07.2019 08:34 13,5 C 19,4 C 18,3 C 98 % 1014,4 hPa 0,0 l/m 2,7 km/h (1 Bft) SO 129 0 min 0,000 mm 0,9 UV-I 256 W/m 13,2 C 13,5 C 4,8 km/h (1 Bft) 100,00 %
15.07.2019 08:36 13,6 C 19,4 C 18,9 C 98 % 1014,5 hPa 0,0 l/m 2,9 km/h (1 Bft) SO 127 2 min 0,000 mm 1,0 UV-I 351 W/m 13,3 C 13,6 C 4,8 km/h (1 Bft) 100,00 %
15.07.2019 08:38 13,8 C 19,4 C 19,4 C 98 % 1014,5 hPa 0,0 l/m 1,8 km/h (1 Bft) SO 127 2 min 0,000 mm 1,2 UV-I 345 W/m 13,5 C 13,8 C 4,8 km/h (1 Bft) 100,00 %
15.07.2019 08:40 13,8 C 19,4 C 19,4 C 98 % 1014,5 hPa 0,0 l/m 3,6 km/h (1 Bft) O 93 2 min 0,000 mm 1,2 UV-I 350 W/m 13,5 C 13,8 C 6,4 km/h (2 Bft) 97,87 %
15.07.2019 08:42 14,1 C 19,4 C 19,4 C 98 % 1014,5 hPa 0,0 l/m 4,3 km/h (1 Bft) SO 131 2 min 0,000 mm 1,2 UV-I 424 W/m 13,8 C 14,1 C 6,4 km/h (2 Bft) 100,00 %
15.07.2019 08:44 13,8 C 19,4 C 18,9 C 98 % 1014,5 hPa 0,0 l/m 8,9 km/h (2 Bft) O-SO 120 2 min 0,000 mm 1,2 UV-I 364 W/m 13,5 C 12,3 C 14,5 km/h (3 Bft) 100,00 %
15.07.2019 08:46 13,7 C 19,4 C 18,9 C 98 % 1014,4 hPa 0,0 l/m 5,0 km/h (1 Bft) SO 140 2 min 0,000 mm 1,1 UV-I 306 W/m 13,4 C 13,7 C 8,0 km/h (2 Bft) 97,37 %
15.07.2019 08:48 13,9 C 19,4 C 20,0 C 98 % 1014,5 hPa 0,0 l/m 2,4 km/h (1 Bft) SO 144 2 min 0,000 mm 1,2 UV-I 313 W/m 13,6 C 13,9 C 4,8 km/h (1 Bft) 100,00 %
15.07.2019 08:50 14,0 C 19,4 C 20,0 C 98 % 1014,5 hPa 0,0 l/m 3,7 km/h (1 Bft) O-SO 114 2 min 0,000 mm 1,2 UV-I 313 W/m 13,7 C 14,0 C 11,3 km/h (2 Bft) 100,00 %
15.07.2019 08:52 14,1 C 19,4 C 20,0 C 98 % 1014,4 hPa 0,0 l/m 5,3 km/h (1 Bft) O-SO 122 2 min 0,000 mm 1,2 UV-I 305 W/m 13,8 C 14,1 C 9,7 km/h (2 Bft) 98,00 %
15.07.2019 08:54 14,0 C 19,4 C 20,0 C 98 % 1014,4 hPa 0,0 l/m 3,8 km/h (1 Bft) O-SO 113 2 min 0,000 mm 1,2 UV-I 306 W/m 13,7 C 14,0 C 6,4 km/h (2 Bft) 97,87 %
15.07.2019 08:56 14,2 C 19,4 C 20,6 C 98 % 1014,4 hPa 0,0 l/m 4,0 km/h (1 Bft) SO 130 2 min 0,000 mm 1,4 UV-I 410 W/m 13,9 C 14,2 C 8,0 km/h (2 Bft) 97,87 %
15.07.2019 08:58 14,1 C 19,4 C 20,0 C 98 % 1014,4 hPa 0,0 l/m 3,1 km/h (1 Bft) S-SO 162 2 min 0,000 mm 1,4 UV-I 412 W/m 13,8 C 14,1 C 6,4 km/h (2 Bft) 95,74 %
15.07.2019 09:00 14,2 C 19,4 C 21,1 C 98 % 1014,5 hPa 0,0 l/m 4,4 km/h (1 Bft) O-SO 111 0 min 0,153 mm 1,6 UV-I 290 W/m 13,9 C 14,2 C 6,4 km/h (2 Bft) 98,00 %
15.07.2019 09:02 14,2 C 19,4 C 21,1 C 98 % 1014,5 hPa 0,0 l/m 5,2 km/h (1 Bft) S-SO 147 0 min 0,000 mm 1,6 UV-I 303 W/m 13,9 C 14,2 C 9,7 km/h (2 Bft) 97,87 %
15.07.2019 09:04 14,4 C 19,4 C 22,8 C 98 % 1014,5 hPa 0,0 l/m 2,8 km/h (1 Bft) O 88 2 min 0,000 mm 1,6 UV-I 437 W/m 14,1 C 14,4 C 4,8 km/h (1 Bft) 93,62 %
15.07.2019 09:06 14,7 C 19,4 C 22,8 C 98 % 1014,5 hPa 0,0 l/m 6,5 km/h (2 Bft) S-SO 162 2 min 0,000 mm 1,5 UV-I 403 W/m 14,4 C 14,7 C 11,3 km/h (2 Bft) 93,62 %
15.07.2019 09:08 14,7 C 19,4 C 22,8 C 98 % 1014,6 hPa 0,0 l/m 5,2 km/h (1 Bft) SO 144 2 min 0,000 mm 1,5 UV-I 450 W/m 14,4 C 14,7 C 8,0 km/h (2 Bft) 97,44 %
15.07.2019 09:10 14,7 C 19,4 C 22,2 C 98 % 1014,6 hPa 0,0 l/m 5,7 km/h (1 Bft) S-SO 153 2 min 0,000 mm 1,4 UV-I 333 W/m 14,4 C 14,7 C 11,3 km/h (2 Bft) 91,49 %
15.07.2019 09:12 14,9 C 19,4 C 23,9 C 97 % 1014,6 hPa 0,0 l/m 4,6 km/h (1 Bft) O-SO 113 2 min 0,000 mm 1,8 UV-I 535 W/m 14,4 C 14,9 C 8,0 km/h (2 Bft) 98,00 %
15.07.2019 09:14 15,2 C 20,0 C 25,0 C 97 % 1014,6 hPa 0,0 l/m 4,8 km/h (1 Bft) O-SO 109 2 min 0,000 mm 1,9 UV-I 714 W/m 14,7 C 15,2 C 9,7 km/h (2 Bft) 93,62 %
15.07.2019 09:16 15,4 C 20,0 C 26,1 C 97 % 1014,6 hPa 0,0 l/m 6,0 km/h (2 Bft) O-NO 67 2 min 0,000 mm 1,9 UV-I 648 W/m 14,9 C 15,4 C 9,7 km/h (2 Bft) 95,74 %
15.07.2019 09:19 15,7 C 20,0 C 26,7 C 96 % 1014,6 hPa 0,0 l/m 9,0 km/h (2 Bft) O-SO 109 3 min 0,000 mm 2,1 UV-I 610 W/m 15,1 C 14,3 C 14,5 km/h (3 Bft) 90,41 %
15.07.2019 09:20 15,6 C 20,0 C 26,7 C 95 % 1014,6 hPa 0,0 l/m 9,1 km/h (2 Bft) O-SO 103 1 min 0,000 mm 2,1 UV-I 621 W/m 14,8 C 14,2 C 12,9 km/h (3 Bft) 100,00 %
15.07.2019 09:22 15,5 C 20,0 C 26,1 C 94 % 1014,6 hPa 0,0 l/m 8,5 km/h (2 Bft) O 90 2 min 0,000 mm 2,0 UV-I 639 W/m 14,5 C 14,4 C 12,9 km/h (3 Bft) 94,74 %
15.07.2019 09:24 15,6 C 20,0 C 27,2 C 94 % 1014,6 hPa 0,0 l/m 6,8 km/h (2 Bft) NO 56 2 min 0,000 mm 2,1 UV-I 618 W/m 14,6 C 15,4 C 11,3 km/h (2 Bft) 94,00 %
15.07.2019 09:26 15,7 C 20,0 C 27,8 C 94 % 1014,6 hPa 0,0 l/m 5,1 km/h (1 Bft) O-SO 107 2 min 0,000 mm 2,1 UV-I 647 W/m 14,7 C 15,7 C 11,3 km/h (2 Bft) 95,74 %
15.07.2019 09:28 15,6 C 20,0 C 28,9 C 93 % 1014,6 hPa 0,0 l/m 7,2 km/h (2 Bft) O-SO 112 2 min 0,000 mm 2,2 UV-I 624 W/m 14,5 C 15,2 C 14,5 km/h (3 Bft) 96,00 %
15.07.2019 09:30 15,9 C 20,0 C 28,3 C 94 % 1014,6 hPa 0,0 l/m 8,9 km/h (2 Bft) O 84 2 min 0,000 mm 2,2 UV-I 637 W/m 14,9 C 14,6 C 12,9 km/h (3 Bft) 93,62 %
15.07.2019 09:32 16,1 C 20,0 C 28,3 C 92 % 1014,6 hPa 0,0 l/m 8,7 km/h (2 Bft) O-NO 70 2 min 0,000 mm 2,3 UV-I 654 W/m 14,8 C 14,9 C 14,5 km/h (3 Bft) 93,62 %
15.07.2019 09:34 16,1 C 20,0 C 27,8 C 91 % 1014,6 hPa 0,0 l/m 5,0 km/h (1 Bft) O-NO 69 2 min 0,000 mm 1,9 UV-I 629 W/m 14,6 C 16,1 C 6,4 km/h (2 Bft) 95,74 %
15.07.2019 09:36 16,2 C 20,0 C 28,9 C 91 % 1014,5 hPa 0,0 l/m 7,5 km/h (2 Bft) O-NO 77 2 min 0,000 mm 2,2 UV-I 641 W/m 14,7 C 15,6 C 9,7 km/h (2 Bft) 94,00 %
15.07.2019 09:38 16,3 C 20,0 C 29,4 C 90 % 1014,5 hPa 0,0 l/m 5,1 km/h (1 Bft) O 94 2 min 0,000 mm 2,4 UV-I 639 W/m 14,7 C 16,3 C 6,4 km/h (2 Bft) 94,74 %
15.07.2019 09:40 16,4 C 20,0 C 29,4 C 90 % 1014,4 hPa 0,0 l/m 6,0 km/h (2 Bft) O-SO 117 2 min 0,000 mm 2,3 UV-I 597 W/m 14,8 C 16,4 C 9,7 km/h (2 Bft) 96,00 %
15.07.2019 09:42 16,6 C 20,0 C 29,4 C 88 % 1014,4 hPa 0,0 l/m 6,7 km/h (2 Bft) O-NO 67 2 min 0,000 mm 2,4 UV-I 480 W/m 14,6 C 16,5 C 9,7 km/h (2 Bft) 96,00 %
15.07.2019 09:44 16,7 C 20,0 C 30,0 C 88 % 1014,5 hPa 0,0 l/m 6,6 km/h (2 Bft) O-SO 110 2 min 0,000 mm 2,6 UV-I 673 W/m 14,7 C 16,6 C 12,9 km/h (3 Bft) 95,74 %
15.07.2019 09:46 16,8 C 20,0 C 29,4 C 87 % 1014,5 hPa 0,0 l/m 8,9 km/h (2 Bft) O 99 2 min 0,000 mm 2,5 UV-I 648 W/m 14,6 C 15,6 C 14,5 km/h (3 Bft) 93,62 %
15.07.2019 09:48 16,8 C 20,0 C 29,4 C 87 % 1014,4 hPa 0,0 l/m 9,9 km/h (2 Bft) O 94 2 min 0,000 mm 2,4 UV-I 545 W/m 14,6 C 15,1 C 12,9 km/h (3 Bft) 93,62 %
15.07.2019 09:50 16,8 C 20,0 C 29,4 C 86 % 1014,4 hPa 0,0 l/m 5,6 km/h (1 Bft) SO 124 2 min 0,000 mm 2,4 UV-I 781 W/m 14,4 C 16,8 C 12,9 km/h (3 Bft) 93,75 %
15.07.2019 09:52 16,8 C 20,0 C 28,3 C 86 % 1014,5 hPa 0,0 l/m 5,8 km/h (2 Bft) O-NO 66 2 min 0,000 mm 2,4 UV-I 809 W/m 14,4 C 16,8 C 11,3 km/h (2 Bft) 95,74 %
15.07.2019 09:54 16,7 C 20,0 C 26,7 C 85 % 1014,5 hPa 0,0 l/m 5,4 km/h (1 Bft) O-SO 109 2 min 0,000 mm 2,0 UV-I 647 W/m 14,2 C 16,7 C 16,1 km/h (3 Bft) 97,87 %
15.07.2019 09:56 16,7 C 20,0 C 27,8 C 86 % 1014,5 hPa 0,0 l/m 6,7 km/h (2 Bft) O-NO 78 0 min 0,000 mm 2,6 UV-I 323 W/m 14,3 C 16,6 C 11,3 km/h (2 Bft) 100,00 %
15.07.2019 09:58 16,7 C 20,0 C 27,2 C 85 % 1014,5 hPa 0,0 l/m 6,8 km/h (2 Bft) O-SO 117 0 min 0,000 mm 2,1 UV-I 342 W/m 14,2 C 16,5 C 12,9 km/h (3 Bft) 96,00 %
15.07.2019 10:00 16,7 C 20,0 C 25,6 C 85 % 1014,5 hPa 0,0 l/m 6,4 km/h (2 Bft) O-NO 65 0 min 0,304 mm 1,8 UV-I 336 W/m 14,2 C 16,7 C 11,3 km/h (2 Bft) 95,74 %
15.07.2019 10:02 16,7 C 20,0 C 24,4 C 86 % 1014,4 hPa 0,0 l/m 6,1 km/h (2 Bft) O-NO 68 0 min 0,000 mm 1,6 UV-I 287 W/m 14,3 C 16,7 C 12,9 km/h (3 Bft) 97,87 %
15.07.2019 10:04 16,7 C 20,0 C 23,9 C 85 % 1014,4 hPa 0,0 l/m 5,8 km/h (2 Bft) O-SO 106 0 min 0,000 mm 1,7 UV-I 326 W/m 14,2 C 16,7 C 12,9 km/h (3 Bft) 100,00 %
15.07.2019 10:06 16,7 C 20,0 C 23,9 C 85 % 1014,4 hPa 0,0 l/m 6,0 km/h (2 Bft) SO 142 0 min 0,000 mm 2,0 UV-I 371 W/m 14,2 C 16,7 C 11,3 km/h (2 Bft) 100,00 %
15.07.2019 10:08 16,7 C 20,0 C 25,0 C 85 % 1014,4 hPa 0,0 l/m 4,2 km/h (1 Bft) SO 130 2 min 0,000 mm 2,3 UV-I 443 W/m 14,2 C 16,7 C 14,5 km/h (3 Bft) 100,00 %
15.07.2019 10:10 16,9 C 20,0 C 25,6 C 85 % 1014,4 hPa 0,0 l/m 7,2 km/h (2 Bft) S-SO 162 2 min 0,000 mm 2,3 UV-I 457 W/m 14,4 C 16,5 C 14,5 km/h (3 Bft) 100,00 %
15.07.2019 10:12 17,2 C 20,0 C 26,1 C 85 % 1014,4 hPa 0,0 l/m 8,8 km/h (2 Bft) O 96 0 min 0,000 mm 2,3 UV-I 375 W/m 14,7 C 16,0 C 14,5 km/h (3 Bft) 97,87 %
15.07.2019 10:14 17,3 C 20,0 C 27,2 C 84 % 1014,4 hPa 0,0 l/m 8,0 km/h (2 Bft) O 92 0 min 0,000 mm 2,7 UV-I 364 W/m 14,6 C 16,5 C 12,9 km/h (3 Bft) 97,87 %
15.07.2019 10:16 17,4 C 20,0 C 26,1 C 84 % 1014,4 hPa 0,0 l/m 6,0 km/h (2 Bft) O 101 0 min 0,000 mm 2,2 UV-I 354 W/m 14,7 C 17,4 C 9,7 km/h (2 Bft) 96,00 %
15.07.2019 10:18 17,5 C 20,0 C 25,0 C 84 % 1014,4 hPa 0,0 l/m 8,8 km/h (2 Bft) O 92 0 min 0,000 mm 2,1 UV-I 303 W/m 14,8 C 16,4 C 16,1 km/h (3 Bft) 97,37 %
15.07.2019 10:20 17,3 C 20,0 C 23,9 C 82 % 1014,4 hPa 0,0 l/m 7,0 km/h (2 Bft) O 98 0 min 0,000 mm 1,9 UV-I 240 W/m 14,2 C 17,0 C 11,3 km/h (2 Bft) 97,87 %
15.07.2019 10:22 17,3 C 20,0 C 22,8 C 82 % 1014,4 hPa 0,0 l/m 11,5 km/h (2 Bft) SO 132 0 min 0,000 mm 1,8 UV-I 220 W/m 14,2 C 15,1 C 14,5 km/h (3 Bft) 97,92 %
15.07.2019 10:24 17,2 C 20,0 C 22,2 C 83 % 1014,4 hPa 0,0 l/m 7,5 km/h (2 Bft) O 83 0 min 0,000 mm 1,6 UV-I 208 W/m 14,3 C 16,7 C 11,3 km/h (2 Bft) 100,00 %
15.07.2019 10:26 17,1 C 20,0 C 21,7 C 83 % 1014,4 hPa 0,0 l/m 5,1 km/h (1 Bft) O-NO 76 0 min 0,000 mm 1,8 UV-I 237 W/m 14,2 C 17,1 C 11,3 km/h (2 Bft) 100,00 %
15.07.2019 10:28 17,1 C 20,0 C 21,7 C 83 % 1014,4 hPa 0,0 l/m 6,5 km/h (2 Bft) O 98 0 min 0,000 mm 1,7 UV-I 239 W/m 14,2 C 17,1 C 11,3 km/h (2 Bft) 100,00 %
15.07.2019 10:30 17,0 C 20,0 C 21,7 C 83 % 1014,4 hPa 0,0 l/m 3,7 km/h (1 Bft) O-SO 110 0 min 0,000 mm 1,8 UV-I 270 W/m 14,1 C 17,0 C 6,4 km/h (2 Bft) 100,00 %
15.07.2019 10:32 17,2 C 20,0 C 22,8 C 83 % 1014,4 hPa 0,0 l/m 7,8 km/h (2 Bft) O-SO 108 0 min 0,000 mm 2,3 UV-I 344 W/m 14,3 C 16,5 C 11,3 km/h (2 Bft) 100,00 %
15.07.2019 10:34 17,3 C 20,0 C 23,9 C 84 % 1014,3 hPa 0,0 l/m 7,7 km/h (2 Bft) O 96 0 min 0,000 mm 2,7 UV-I 344 W/m 14,6 C 16,7 C 11,3 km/h (2 Bft) 100,00 %
15.07.2019 10:36 17,4 C 20,0 C 26,1 C 80 % 1014,3 hPa 0,0 l/m 5,5 km/h (1 Bft) S-SO 151 2 min 0,000 mm 3,3 UV-I 519 W/m 13,9 C 17,4 C 11,3 km/h (2 Bft) 98,00 %
15.07.2019 10:38 17,5 C 20,0 C 26,7 C 81 % 1014,3 hPa 0,0 l/m 4,8 km/h (1 Bft) O-SO 121 2 min 0,000 mm 2,8 UV-I 758 W/m 14,2 C 17,5 C 11,3 km/h (2 Bft) 97,37 %
15.07.2019 10:40 17,8 C 20,0 C 26,1 C 82 % 1014,3 hPa 0,0 l/m 4,8 km/h (1 Bft) O-SO 105 2 min 0,000 mm 2,7 UV-I 620 W/m 14,7 C 17,8 C 9,7 km/h (2 Bft) 94,00 %
15.07.2019 10:42 17,9 C 20,0 C 25,6 C 82 % 1014,4 hPa 0,0 l/m 6,1 km/h (2 Bft) O 92 0 min 0,000 mm 2,1 UV-I 234 W/m 14,8 C 17,9 C 9,7 km/h (2 Bft) 94,00 %
15.07.2019 10:44 17,8 C 20,0 C 24,4 C 81 % 1014,3 hPa 0,0 l/m 6,4 km/h (2 Bft) O-SO 123 0 min 0,000 mm 2,0 UV-I 194 W/m 14,5 C 17,8 C 11,3 km/h (2 Bft) 97,87 %
15.07.2019 10:46 17,5 C 20,0 C 23,3 C 80 % 1014,3 hPa 0,0 l/m 5,7 km/h (1 Bft) SO 124 0 min 0,000 mm 2,0 UV-I 193 W/m 14,0 C 17,5 C 8,0 km/h (2 Bft) 93,62 %
15.07.2019 10:48 17,3 C 20,0 C 22,8 C 82 % 1014,4 hPa 0,0 l/m 5,6 km/h (1 Bft) SO 146 0 min 0,000 mm 1,9 UV-I 200 W/m 14,2 C 17,3 C 9,7 km/h (2 Bft) 97,14 %
15.07.2019 10:50 17,3 C 20,0 C 22,2 C 79 % 1014,4 hPa 0,0 l/m 5,4 km/h (1 Bft) S-SO 167 0 min 0,000 mm 1,8 UV-I 231 W/m 13,6 C 17,3 C 9,7 km/h (2 Bft) 98,00 %
15.07.2019 10:52 17,3 C 20,0 C 21,7 C 80 % 1014,4 hPa 0,0 l/m 3,6 km/h (1 Bft) SO 126 0 min 0,000 mm 1,9 UV-I 262 W/m 13,8 C 17,3 C 6,4 km/h (2 Bft) 98,00 %
15.07.2019 10:54 17,4 C 20,0 C 22,8 C 81 % 1014,4 hPa 0,0 l/m 3,9 km/h (1 Bft) O 96 0 min 0,000 mm 2,0 UV-I 332 W/m 14,1 C 17,4 C 4,8 km/h (1 Bft) 97,87 %
15.07.2019 10:56 17,6 C 20,0 C 23,9 C 82 % 1014,3 hPa 0,0 l/m 1,5 km/h (1 Bft) O 96 0 min 0,000 mm 2,2 UV-I 356 W/m 14,5 C 17,6 C 3,2 km/h (1 Bft) 95,74 %
15.07.2019 10:58 17,8 C 20,0 C 24,4 C 79 % 1014,4 hPa 0,0 l/m 1,7 km/h (1 Bft) O 96 0 min 0,000 mm 2,2 UV-I 353 W/m 14,1 C 17,8 C 4,8 km/h (1 Bft) 97,87 %
15.07.2019 11:00 17,9 C 20,0 C 25,6 C 77 % 1014,3 hPa 0,0 l/m 5,7 km/h (1 Bft) O-SO 111 0 min 0,204 mm 1,3 UV-I 366 W/m 13,8 C 17,9 C 11,3 km/h (2 Bft) 96,00 %
15.07.2019 11:02 18,1 C 20,0 C 26,7 C 76 % 1014,3 hPa 0,0 l/m 4,5 km/h (1 Bft) O-SO 106 0 min 0,000 mm 1,0 UV-I 424 W/m 13,8 C 18,1 C 9,7 km/h (2 Bft) 97,87 %
15.07.2019 11:04 18,3 C 20,0 C 28,9 C 77 % 1014,3 hPa 0,0 l/m 13,9 km/h (3 Bft) O 88 2 min 0,000 mm 0,2 UV-I 452 W/m 14,2 C 15,5 C 19,3 km/h (3 Bft) 97,87 %
15.07.2019 11:06 18,6 C 20,0 C 31,1 C 76 % 1014,3 hPa 0,0 l/m 5,0 km/h (1 Bft) O-SO 121 2 min 0,000 mm 3,3 UV-I 994 W/m 14,3 C 18,6 C 12,9 km/h (3 Bft) 97,92 %
15.07.2019 11:08 18,8 C 20,0 C 32,8 C 75 % 1014,2 hPa 0,0 l/m 7,5 km/h (2 Bft) S 180 2 min 0,000 mm 3,7 UV-I 1081 W/m 14,3 C 18,3 C 16,1 km/h (3 Bft) 100,00 %
15.07.2019 11:10 19,1 C 20,0 C 33,9 C 74 % 1014,3 hPa 0,0 l/m 12,1 km/h (2 Bft) SO 142 2 min 0,000 mm 4,2 UV-I 1052 W/m 14,4 C 17,0 C 20,9 km/h (4 Bft) 100,00 %
15.07.2019 11:12 19,3 C 20,0 C 34,4 C 74 % 1014,3 hPa 0,0 l/m 8,1 km/h (2 Bft) SO 144 2 min 0,000 mm 4,1 UV-I 1041 W/m 14,5 C 18,6 C 14,5 km/h (3 Bft) 100,00 %
15.07.2019 11:14 19,5 C 20,0 C 35,0 C 72 % 1014,3 hPa 0,0 l/m 11,2 km/h (2 Bft) SO 136 2 min 0,000 mm 3,8 UV-I 1041 W/m 14,3 C 17,7 C 16,1 km/h (3 Bft) 93,62 %
15.07.2019 11:16 19,6 C 20,0 C 33,9 C 72 % 1014,3 hPa 0,0 l/m 7,8 km/h (2 Bft) O 82 2 min 0,000 mm 3,6 UV-I 1047 W/m 14,4 C 19,0 C 14,5 km/h (3 Bft) 97,87 %
15.07.2019 11:18 19,3 C 20,0 C 31,1 C 73 % 1014,3 hPa 0,0 l/m 8,4 km/h (2 Bft) O-SO 118 0 min 0,000 mm 2,6 UV-I 427 W/m 14,3 C 18,5 C 14,5 km/h (3 Bft) 100,00 %
15.07.2019 11:20 19,1 C 20,0 C 32,2 C 73 % 1014,2 hPa 0,0 l/m 10,1 km/h (2 Bft) SO 146 2 min 0,000 mm 3,9 UV-I 541 W/m 14,1 C 17,6 C 14,5 km/h (3 Bft) 97,87 %
15.07.2019 11:22 19,3 C 20,0 C 34,4 C 72 % 1014,2 hPa 0,0 l/m 14,2 km/h (3 Bft) O-NO 78 2 min 0,000 mm 4,7 UV-I 1055 W/m 14,1 C 16,6 C 19,3 km/h (3 Bft) 97,87 %
15.07.2019 11:24 19,4 C 20,0 C 33,3 C 73 % 1014,2 hPa 0,0 l/m 8,9 km/h (2 Bft) O-NO 61 2 min 0,000 mm 3,4 UV-I 763 W/m 14,4 C 18,4 C 14,5 km/h (3 Bft) 100,00 %
15.07.2019 11:26 19,8 C 20,0 C 35,0 C 73 % 1014,2 hPa 0,0 l/m 5,8 km/h (2 Bft) O-NO 75 2 min 0,000 mm 4,2 UV-I 611 W/m 14,8 C 19,8 C 11,3 km/h (2 Bft) 100,00 %
15.07.2019 11:28 19,8 C 20,0 C 32,8 C 69 % 1014,2 hPa 0,0 l/m 14,2 km/h (3 Bft) O-SO 114 2 min 0,000 mm 3,7 UV-I 766 W/m 13,9 C 17,2 C 20,9 km/h (4 Bft) 98,00 %
15.07.2019 11:30 19,4 C 20,0 C 32,2 C 71 % 1014,2 hPa 0,0 l/m 7,4 km/h (2 Bft) O-SO 119 0 min 0,000 mm 3,8 UV-I 362 W/m 14,0 C 19,0 C 12,9 km/h (3 Bft) 94,29 %
15.07.2019 11:32 19,5 C 20,0 C 33,3 C 73 % 1014,1 hPa 0,0 l/m 7,6 km/h (2 Bft) O-SO 109 2 min 0,000 mm 4,6 UV-I 923 W/m 14,5 C 19,0 C 11,3 km/h (2 Bft) 98,04 %
15.07.2019 11:34 19,7 C 20,0 C 34,4 C 70 % 1014,2 hPa 0,0 l/m 9,6 km/h (2 Bft) O-SO 113 2 min 0,000 mm 4,8 UV-I 946 W/m 14,1 C 18,4 C 16,1 km/h (3 Bft) 95,74 %
15.07.2019 11:36 19,7 C 20,0 C 35,0 C 70 % 1014,2 hPa 0,0 l/m 9,3 km/h (2 Bft) S 186 2 min 0,000 mm 4,9 UV-I 932 W/m 14,1 C 18,6 C 14,5 km/h (3 Bft) 97,87 %
15.07.2019 11:38 20,0 C 20,0 C 36,1 C 70 % 1014,2 hPa 0,0 l/m 6,2 km/h (2 Bft) O-SO 108 2 min 0,000 mm 4,8 UV-I 903 W/m 14,4 C 20,0 C 8,0 km/h (2 Bft) 96,00 %
15.07.2019 11:40 20,3 C 20,0 C 35,0 C 68 % 1014,2 hPa 0,0 l/m 13,8 km/h (3 Bft) O-NO 71 2 min 0,000 mm 4,6 UV-I 917 W/m 14,2 C 17,9 C 19,3 km/h (3 Bft) 98,00 %
15.07.2019 11:42 20,0 C 20,0 C 32,8 C 67 % 1014,1 hPa 0,0 l/m 12,8 km/h (3 Bft) O-SO 104 2 min 0,000 mm 4,3 UV-I 908 W/m 13,7 C 17,8 C 17,7 km/h (3 Bft) 93,62 %
15.07.2019 11:44 19,8 C 20,0 C 32,8 C 67 % 1014,1 hPa 0,0 l/m 12,7 km/h (3 Bft) SO 126 2 min 0,000 mm 4,8 UV-I 868 W/m 13,5 C 17,6 C 20,9 km/h (4 Bft) 97,44 %
15.07.2019 11:46 19,7 C 20,0 C 33,9 C 68 % 1014,1 hPa 0,0 l/m 11,9 km/h (2 Bft) O-SO 117 2 min 0,000 mm 4,9 UV-I 881 W/m 13,6 C 17,7 C 17,7 km/h (3 Bft) 95,74 %
15.07.2019 11:48 19,7 C 20,0 C 34,4 C 68 % 1014,1 hPa 0,0 l/m 11,0 km/h (2 Bft) O-SO 123 2 min 0,000 mm 5,0 UV-I 886 W/m 13,6 C 18,0 C 20,9 km/h (4 Bft) 97,87 %
15.07.2019 11:50 19,8 C 20,0 C 35,0 C 71 % 1014,1 hPa 0,0 l/m 13,9 km/h (3 Bft) O 96 2 min 0,000 mm 5,0 UV-I 882 W/m 14,4 C 17,3 C 20,9 km/h (4 Bft) 98,00 %
15.07.2019 11:52 19,9 C 20,0 C 35,0 C 69 % 1014,2 hPa 0,0 l/m 6,9 km/h (2 Bft) SO 146 2 min 0,000 mm 5,0 UV-I 881 W/m 14,0 C 19,7 C 16,1 km/h (3 Bft) 93,62 %
15.07.2019 11:54 19,9 C 20,0 C 36,1 C 69 % 1014,1 hPa 0,0 l/m 5,8 km/h (2 Bft) O 82 2 min 0,000 mm 5,1 UV-I 894 W/m 14,0 C 19,9 C 9,7 km/h (2 Bft) 96,00 %
15.07.2019 11:56 20,3 C 20,0 C 36,7 C 71 % 1014,1 hPa 0,0 l/m 9,9 km/h (2 Bft) O 80 2 min 0,000 mm 5,1 UV-I 908 W/m 14,9 C 19,0 C 16,1 km/h (3 Bft) 97,87 %
15.07.2019 11:58 20,5 C 20,0 C 35,6 C 67 % 1014,1 hPa 0,0 l/m 14,5 km/h (3 Bft) SO 132 2 min 0,000 mm 5,1 UV-I 904 W/m 14,2 C 18,0 C 19,3 km/h (3 Bft) 97,87 %
15.07.2019 12:00 20,3 C 20,0 C 35,6 C 64 % 1014,2 hPa 0,0 l/m 8,7 km/h (2 Bft) O 99 2 min 0,508 mm 5,2 UV-I 902 W/m 13,3 C 19,4 C 16,1 km/h (3 Bft) 100,00 %
15.07.2019 12:02 20,3 C 20,0 C 35,6 C 66 % 1014,1 hPa 0,0 l/m 8,8 km/h (2 Bft) O 93 2 min 0,000 mm 5,0 UV-I 892 W/m 13,7 C 19,4 C 16,1 km/h (3 Bft) 97,87 %
15.07.2019 12:04 20,2 C 20,0 C 35,0 C 66 % 1014,1 hPa 0,0 l/m 14,6 km/h (3 Bft) O 100 2 min 0,000 mm 5,1 UV-I 884 W/m 13,6 C 17,6 C 17,7 km/h (3 Bft) 100,00 %
15.07.2019 12:06 20,2 C 20,0 C 35,0 C 65 % 1014,1 hPa 0,0 l/m 9,5 km/h (2 Bft) SO 124 2 min 0,000 mm 5,1 UV-I 894 W/m 13,4 C 19,0 C 16,1 km/h (3 Bft) 95,74 %
15.07.2019 12:08 20,2 C 20,0 C 35,6 C 67 % 1014,1 hPa 0,0 l/m 6,1 km/h (2 Bft) O 93 2 min 0,000 mm 5,2 UV-I 912 W/m 13,9 C 20,2 C 11,3 km/h (2 Bft) 98,00 %
15.07.2019 12:10 20,5 C 20,0 C 36,1 C 67 % 1014,1 hPa 0,0 l/m 11,8 km/h (2 Bft) NO 49 2 min 0,000 mm 5,2 UV-I 927 W/m 14,2 C 18,7 C 22,5 km/h (4 Bft) 97,87 %
15.07.2019 12:12 20,7 C 20,0 C 36,7 C 67 % 1014,2 hPa 0,0 l/m 9,8 km/h (2 Bft) O-SO 121 2 min 0,000 mm 5,3 UV-I 926 W/m 14,3 C 19,5 C 14,5 km/h (3 Bft) 98,00 %
15.07.2019 12:14 20,7 C 20,0 C 36,7 C 70 % 1014,1 hPa 0,0 l/m 9,9 km/h (2 Bft) NO 48 2 min 0,000 mm 5,3 UV-I 918 W/m 15,0 C 19,4 C 17,7 km/h (3 Bft) 97,87 %
15.07.2019 12:16 21,1 C 20,0 C 36,1 C 65 % 1014,1 hPa 0,0 l/m 12,7 km/h (3 Bft) O-NO 63 2 min 0,000 mm 5,3 UV-I 901 W/m 14,3 C 19,1 C 19,3 km/h (3 Bft) 97,87 %
15.07.2019 12:18 21,2 C 20,6 C 36,7 C 64 % 1014,1 hPa 0,0 l/m 8,0 km/h (2 Bft) O-SO 123 2 min 0,000 mm 5,3 UV-I 899 W/m 14,1 C 20,6 C 16,1 km/h (3 Bft) 95,74 %
15.07.2019 12:20 21,3 C 20,6 C 37,2 C 65 % 1014,1 hPa 0,0 l/m 12,3 km/h (3 Bft) O-SO 111 2 min 0,000 mm 5,3 UV-I 903 W/m 14,4 C 19,5 C 19,3 km/h (3 Bft) 95,83 %
15.07.2019 12:22 21,2 C 20,6 C 37,2 C 63 % 1014,1 hPa 0,0 l/m 11,6 km/h (2 Bft) O-NO 78 2 min 0,000 mm 5,3 UV-I 741 W/m 13,9 C 19,5 C 16,1 km/h (3 Bft) 100,00 %
15.07.2019 12:24 21,2 C 20,6 C 36,7 C 62 % 1014,1 hPa 0,0 l/m 7,6 km/h (2 Bft) S-SO 150 2 min 0,000 mm 5,4 UV-I 743 W/m 13,6 C 20,8 C 14,5 km/h (3 Bft) 95,74 %
15.07.2019 12:26 21,1 C 20,6 C 36,7 C 63 % 1014,1 hPa 0,0 l/m 5,6 km/h (1 Bft) O 83 2 min 0,000 mm 4,9 UV-I 940 W/m 13,8 C 21,1 C 11,3 km/h (2 Bft) 95,74 %
15.07.2019 12:28 20,8 C 20,6 C 32,2 C 65 % 1014,1 hPa 0,0 l/m 7,9 km/h (2 Bft) NO 40 0 min 0,000 mm 3,3 UV-I 317 W/m 14,0 C 20,2 C 12,9 km/h (3 Bft) 95,74 %
15.07.2019 12:30 20,5 C 20,6 C 29,4 C 65 % 1014,2 hPa 0,0 l/m 7,4 km/h (2 Bft) NO 36 0 min 0,000 mm 3,4 UV-I 230 W/m 13,7 C 20,1 C 11,3 km/h (2 Bft) 97,87 %
15.07.2019 12:32 20,2 C 20,6 C 27,8 C 66 % 1014,2 hPa 0,0 l/m 10,2 km/h (2 Bft) N-NO 30 0 min 0,000 mm 3,8 UV-I 231 W/m 13,6 C 18,8 C 17,7 km/h (3 Bft) 97,87 %
15.07.2019 12:34 20,3 C 20,6 C 30,6 C 65 % 1014,2 hPa 0,0 l/m 5,8 km/h (2 Bft) N-NO 19 2 min 0,000 mm 5,4 UV-I 918 W/m 13,5 C 20,3 C 11,3 km/h (2 Bft) 98,00 %
15.07.2019 12:36 20,6 C 20,6 C 32,8 C 65 % 1014,2 hPa 0,0 l/m 6,8 km/h (2 Bft) O-SO 121 2 min 0,000 mm 5,4 UV-I 902 W/m 13,8 C 20,4 C 14,5 km/h (3 Bft) 98,00 %
15.07.2019 12:38 20,8 C 20,6 C 35,0 C 64 % 1014,2 hPa 0,0 l/m 4,2 km/h (1 Bft) S-SW 192 2 min 0,000 mm 5,4 UV-I 923 W/m 13,7 C 20,8 C 8,0 km/h (2 Bft) 98,00 %
15.07.2019 12:40 20,9 C 20,6 C 36,1 C 60 % 1014,2 hPa 0,0 l/m 7,7 km/h (2 Bft) SO 129 2 min 0,000 mm 5,4 UV-I 922 W/m 12,8 C 20,4 C 16,1 km/h (3 Bft) 100,00 %
15.07.2019 12:42 20,8 C 20,6 C 36,7 C 62 % 1014,1 hPa 0,0 l/m 5,5 km/h (1 Bft) O 96 2 min 0,000 mm 5,3 UV-I 928 W/m 13,2 C 20,8 C 12,9 km/h (3 Bft) 100,00 %
15.07.2019 12:44 20,9 C 20,6 C 36,1 C 63 % 1014,1 hPa 0,0 l/m 12,8 km/h (3 Bft) O-NO 70 2 min 0,000 mm 5,4 UV-I 928 W/m 13,6 C 18,9 C 17,7 km/h (3 Bft) 98,11 %
15.07.2019 12:46 20,8 C 20,6 C 32,2 C 61 % 1014,1 hPa 0,0 l/m 10,3 km/h (2 Bft) O-NO 66 2 min 0,000 mm 3,6 UV-I 562 W/m 13,0 C 19,4 C 17,7 km/h (3 Bft) 97,87 %
15.07.2019 12:48 20,6 C 20,6 C 30,0 C 60 % 1014,1 hPa 0,0 l/m 10,3 km/h (2 Bft) O-NO 77 0 min 0,000 mm 4,0 UV-I 189 W/m 12,6 C 19,2 C 14,5 km/h (3 Bft) 100,00 %
15.07.2019 12:50 20,6 C 20,6 C 32,2 C 63 % 1014,1 hPa 0,0 l/m 4,4 km/h (1 Bft) O 95 2 min 0,000 mm 5,5 UV-I 777 W/m 13,3 C 20,6 C 8,0 km/h (2 Bft) 98,00 %
15.07.2019 12:52 20,6 C 20,6 C 33,9 C 65 % 1014,1 hPa 0,0 l/m 5,3 km/h (1 Bft) O-NO 69 2 min 0,000 mm 5,5 UV-I 922 W/m 13,8 C 20,6 C 12,9 km/h (3 Bft) 100,00 %
15.07.2019 12:54 20,8 C 20,6 C 35,0 C 63 % 1014,2 hPa 0,0 l/m 10,0 km/h (2 Bft) O-SO 105 2 min 0,000 mm 5,5 UV-I 922 W/m 13,5 C 19,5 C 17,7 km/h (3 Bft) 97,87 %
15.07.2019 12:56 20,9 C 20,6 C 36,1 C 62 % 1014,2 hPa 0,0 l/m 8,6 km/h (2 Bft) O 80 2 min 0,000 mm 5,6 UV-I 925 W/m 13,3 C 20,1 C 12,9 km/h (3 Bft) 100,00 %
15.07.2019 12:58 21,1 C 20,6 C 36,1 C 59 % 1014,1 hPa 0,0 l/m 6,0 km/h (2 Bft) O-SO 102 2 min 0,000 mm 5,6 UV-I 931 W/m 12,8 C 21,1 C 9,7 km/h (2 Bft) 100,00 %
15.07.2019 13:00 20,9 C 20,6 C 37,2 C 58 % 1014,1 hPa 0,0 l/m 5,3 km/h (1 Bft) W-NW 286 2 min 0,508 mm 5,6 UV-I 939 W/m 12,3 C 20,9 C 12,9 km/h (3 Bft) 100,00 %
15.07.2019 13:02 20,8 C 20,6 C 35,0 C 60 % 1014,1 hPa 0,0 l/m 3,5 km/h (1 Bft) NW 326 2 min 0,000 mm 4,8 UV-I 949 W/m 12,7 C 20,8 C 6,4 km/h (2 Bft) 100,00 %
15.07.2019 13:04 20,9 C 20,6 C 36,1 C 61 % 1014,0 hPa 0,0 l/m 5,4 km/h (1 Bft) O-SO 122 2 min 0,000 mm 5,6 UV-I 944 W/m 13,1 C 20,9 C 11,3 km/h (2 Bft) 95,74 %
15.07.2019 13:06 21,0 C 20,6 C 36,7 C 61 % 1014,0 hPa 0,0 l/m 1,8 km/h (1 Bft) O-SO 122 2 min 0,000 mm 5,6 UV-I 935 W/m 13,2 C 21,0 C 3,2 km/h (1 Bft) 97,87 %
15.07.2019 13:08 21,3 C 20,6 C 37,2 C 59 % 1014,0 hPa 0,0 l/m 9,0 km/h (2 Bft) O-NO 76 2 min 0,000 mm 5,6 UV-I 931 W/m 13,0 C 20,4 C 17,7 km/h (3 Bft) 97,87 %
15.07.2019 13:10 21,4 C 20,6 C 36,1 C 60 % 1014,0 hPa 0,0 l/m 8,5 km/h (2 Bft) O-NO 69 2 min 0,000 mm 5,7 UV-I 960 W/m 13,3 C 20,7 C 14,5 km/h (3 Bft) 93,62 %
15.07.2019 13:12 21,5 C 20,6 C 36,7 C 62 % 1014,0 hPa 0,0 l/m 9,4 km/h (2 Bft) O-SO 120 2 min 0,000 mm 5,5 UV-I 958 W/m 13,9 C 20,5 C 14,5 km/h (3 Bft) 98,00 %
15.07.2019 13:14 21,4 C 20,6 C 37,2 C 57 % 1014,0 hPa 0,0 l/m 3,3 km/h (1 Bft) O 89 2 min 0,000 mm 5,6 UV-I 929 W/m 12,5 C 21,4 C 6,4 km/h (2 Bft) 97,14 %
15.07.2019 13:16 21,5 C 20,6 C 37,8 C 60 % 1013,9 hPa 0,0 l/m 6,7 km/h (2 Bft) O-NO 57 2 min 0,000 mm 5,7 UV-I 944 W/m 13,4 C 21,4 C 16,1 km/h (3 Bft) 92,00 %
15.07.2019 13:18 21,8 C 20,6 C 37,2 C 62 % 1013,9 hPa 0,0 l/m 10,0 km/h (2 Bft) O-NO 74 2 min 0,000 mm 5,7 UV-I 955 W/m 14,2 C 20,6 C 17,7 km/h (3 Bft) 98,11 %
15.07.2019 13:20 21,9 C 20,6 C 37,8 C 60 % 1013,9 hPa 0,0 l/m 5,2 km/h (1 Bft) O-SO 123 2 min 0,000 mm 5,7 UV-I 964 W/m 13,8 C 21,9 C 9,7 km/h (2 Bft) 95,74 %
15.07.2019 13:22 21,8 C 20,6 C 38,3 C 60 % 1013,9 hPa 0,0 l/m 7,2 km/h (2 Bft) O 89 2 min 0,000 mm 5,6 UV-I 955 W/m 13,7 C 21,5 C 12,9 km/h (3 Bft) 97,37 %
15.07.2019 13:24 21,7 C 20,6 C 38,9 C 57 % 1013,9 hPa 0,0 l/m 6,7 km/h (2 Bft) O 100 2 min 0,000 mm 5,7 UV-I 963 W/m 12,8 C 21,6 C 11,3 km/h (2 Bft) 96,00 %
15.07.2019 13:26 21,5 C 20,6 C 38,9 C 57 % 1013,9 hPa 0,0 l/m 2,0 km/h (1 Bft) W 263 2 min 0,000 mm 5,8 UV-I 996 W/m 12,6 C 21,5 C 6,4 km/h (2 Bft) 93,62 %
15.07.2019 13:28 21,6 C 20,6 C 38,9 C 60 % 1013,9 hPa 0,0 l/m 4,9 km/h (1 Bft) O-NO 76 2 min 0,000 mm 5,8 UV-I 1019 W/m 13,5 C 21,6 C 11,3 km/h (2 Bft) 93,62 %
15.07.2019 13:30 21,9 C 20,6 C 39,4 C 61 % 1013,9 hPa 0,0 l/m 5,6 km/h (1 Bft) SO 132 2 min 0,000 mm 5,7 UV-I 1011 W/m 14,0 C 21,9 C 16,1 km/h (3 Bft) 93,62 %
15.07.2019 13:32 22,1 C 20,6 C 39,4 C 56 % 1014,0 hPa 0,0 l/m 8,0 km/h (2 Bft) S 186 2 min 0,000 mm 5,6 UV-I 1038 W/m 12,9 C 21,6 C 16,1 km/h (3 Bft) 93,75 %
15.07.2019 13:34 22,1 C 20,6 C 37,2 C 55 % 1013,9 hPa 0,0 l/m 11,0 km/h (2 Bft) SO 144 2 min 0,000 mm 4,8 UV-I 1062 W/m 12,6 C 20,7 C 17,7 km/h (3 Bft) 95,74 %
15.07.2019 13:36 22,0 C 20,6 C 35,0 C 53 % 1013,9 hPa 0,0 l/m 9,9 km/h (2 Bft) O-NO 61 2 min 0,000 mm 4,3 UV-I 752 W/m 12,0 C 20,9 C 16,1 km/h (3 Bft) 95,74 %
15.07.2019 13:38 22,0 C 20,6 C 33,9 C 55 % 1013,9 hPa 0,0 l/m 9,9 km/h (2 Bft) O-NO 57 2 min 0,000 mm 4,8 UV-I 573 W/m 12,5 C 20,9 C 17,7 km/h (3 Bft) 91,49 %
15.07.2019 13:40 22,0 C 20,6 C 33,9 C 55 % 1013,8 hPa 0,0 l/m 11,3 km/h (2 Bft) NO 51 2 min 0,000 mm 5,1 UV-I 532 W/m 12,5 C 20,5 C 14,5 km/h (3 Bft) 91,49 %
15.07.2019 13:42 21,9 C 20,6 C 34,4 C 53 % 1013,9 hPa 0,0 l/m 5,6 km/h (1 Bft) O-SO 123 2 min 0,000 mm 5,2 UV-I 594 W/m 11,9 C 21,9 C 11,3 km/h (2 Bft) 90,00 %
15.07.2019 13:44 21,8 C 20,6 C 33,3 C 55 % 1013,8 hPa 0,0 l/m 7,6 km/h (2 Bft) NO 42 2 min 0,000 mm 4,7 UV-I 628 W/m 12,4 C 21,4 C 11,3 km/h (2 Bft) 91,49 %
15.07.2019 13:46 21,8 C 20,6 C 31,7 C 54 % 1013,8 hPa 0,0 l/m 5,7 km/h (1 Bft) N 10 2 min 0,000 mm 4,5 UV-I 554 W/m 12,1 C 21,8 C 9,7 km/h (2 Bft) 91,49 %
15.07.2019 13:48 21,7 C 21,1 C 33,9 C 52 % 1013,7 hPa 0,0 l/m 5,1 km/h (1 Bft) W 262 2 min 0,000 mm 5,7 UV-I 918 W/m 11,4 C 21,7 C 6,4 km/h (2 Bft) 93,62 %
15.07.2019 13:50 21,8 C 21,1 C 36,7 C 56 % 1013,7 hPa 0,0 l/m 5,4 km/h (1 Bft) SO 128 2 min 0,000 mm 5,8 UV-I 1065 W/m 12,6 C 21,8 C 9,7 km/h (2 Bft) 93,62 %
15.07.2019 13:52 22,2 C 21,1 C 37,8 C 53 % 1013,6 hPa 0,0 l/m 7,2 km/h (2 Bft) S-SO 161 2 min 0,000 mm 5,4 UV-I 1085 W/m 12,2 C 21,9 C 14,5 km/h (3 Bft) 93,62 %
15.07.2019 13:54 22,4 C 21,1 C 37,8 C 51 % 1013,6 hPa 0,0 l/m 9,9 km/h (2 Bft) O-NO 67 2 min 0,000 mm 4,9 UV-I 1085 W/m 11,8 C 21,3 C 12,9 km/h (3 Bft) 95,74 %
15.07.2019 13:56 22,5 C 21,1 C 36,1 C 52 % 1013,6 hPa 0,0 l/m 11,2 km/h (2 Bft) O-NO 71 2 min 0,000 mm 4,3 UV-I 1085 W/m 12,1 C 21,1 C 17,7 km/h (3 Bft) 95,74 %
15.07.2019 13:58 22,6 C 21,1 C 34,4 C 51 % 1013,6 hPa 0,0 l/m 12,4 km/h (3 Bft) O-SO 111 2 min 0,000 mm 3,8 UV-I 983 W/m 11,9 C 20,9 C 14,5 km/h (3 Bft) 97,87 %
15.07.2019 14:00 22,2 C 21,1 C 33,3 C 52 % 1013,6 hPa 0,0 l/m 7,0 km/h (2 Bft) O 100 2 min 0,558 mm 3,5 UV-I 490 W/m 11,9 C 22,0 C 12,9 km/h (3 Bft) 95,74 %
15.07.2019 14:02 22,1 C 21,1 C 32,2 C 53 % 1013,6 hPa 0,0 l/m 7,6 km/h (2 Bft) O 99 2 min 0,000 mm 3,7 UV-I 508 W/m 12,1 C 21,7 C 12,9 km/h (3 Bft) 95,74 %
15.07.2019 14:04 21,9 C 21,1 C 31,1 C 52 % 1013,6 hPa 0,0 l/m 8,2 km/h (2 Bft) O-SO 117 2 min 0,000 mm 3,4 UV-I 502 W/m 11,6 C 21,3 C 11,3 km/h (2 Bft) 93,62 %
15.07.2019 14:06 21,8 C 21,1 C 30,6 C 52 % 1013,6 hPa 0,0 l/m 3,5 km/h (1 Bft) O-SO 109 0 min 0,000 mm 3,1 UV-I 406 W/m 11,5 C 21,8 C 6,4 km/h (2 Bft) 95,74 %
15.07.2019 14:08 21,7 C 21,1 C 30,0 C 52 % 1013,5 hPa 0,0 l/m 3,7 km/h (1 Bft) SO 125 0 min 0,000 mm 3,0 UV-I 384 W/m 11,4 C 21,7 C 6,4 km/h (2 Bft) 95,74 %
15.07.2019 14:10 21,4 C 21,1 C 31,1 C 51 % 1013,5 hPa 0,0 l/m 2,3 km/h (1 Bft) SO 125 0 min 0,000 mm 3,9 UV-I 468 W/m 10,8 C 21,4 C 3,2 km/h (1 Bft) 100,00 %
15.07.2019 14:12 21,8 C 21,1 C 33,3 C 53 % 1013,5 hPa 0,0 l/m 4,4 km/h (1 Bft) O-SO 103 2 min 0,000 mm 4,1 UV-I 554 W/m 11,8 C 21,8 C 9,7 km/h (2 Bft) 95,74 %
15.07.2019 14:14 22,0 C 21,1 C 32,8 C 55 % 1013,5 hPa 0,0 l/m 2,1 km/h (1 Bft) O-SO 103 2 min 0,000 mm 3,5 UV-I 600 W/m 12,5 C 22,0 C 4,8 km/h (1 Bft) 95,74 %
15.07.2019 14:16 21,8 C 21,1 C 32,2 C 53 % 1013,5 hPa 0,0 l/m 2,4 km/h (1 Bft) SW 215 0 min 0,000 mm 3,4 UV-I 458 W/m 11,8 C 21,8 C 4,8 km/h (1 Bft) 97,87 %
15.07.2019 14:18 21,7 C 21,1 C 31,1 C 56 % 1013,5 hPa 0,0 l/m 3,3 km/h (1 Bft) O-NO 65 2 min 0,000 mm 3,5 UV-I 473 W/m 12,5 C 21,7 C 8,0 km/h (2 Bft) 97,87 %
15.07.2019 14:20 21,9 C 21,1 C 31,7 C 55 % 1013,5 hPa 0,0 l/m 6,5 km/h (2 Bft) SO 142 0 min 0,000 mm 4,2 UV-I 466 W/m 12,4 C 21,9 C 12,9 km/h (3 Bft) 94,00 %
15.07.2019 14:22 22,0 C 21,1 C 31,1 C 52 % 1013,5 hPa 0,0 l/m 8,4 km/h (2 Bft) S-SO 154 2 min 0,000 mm 3,5 UV-I 489 W/m 11,7 C 21,3 C 14,5 km/h (3 Bft) 97,87 %
15.07.2019 14:24 22,1 C 21,1 C 31,1 C 52 % 1013,5 hPa 0,0 l/m 5,4 km/h (1 Bft) SO 135 2 min 0,000 mm 3,7 UV-I 501 W/m 11,8 C 22,1 C 9,7 km/h (2 Bft) 98,00 %
15.07.2019 14:26 21,9 C 21,1 C 31,1 C 52 % 1013,5 hPa 0,0 l/m 1,3 km/h (1 Bft) SO 136 0 min 0,000 mm 3,5 UV-I 433 W/m 11,6 C 21,9 C 3,2 km/h (1 Bft) 97,87 %
15.07.2019 14:28 22,2 C 21,1 C 33,3 C 52 % 1013,5 hPa 0,0 l/m 4,8 km/h (1 Bft) S-SO 151 0 min 0,000 mm 4,3 UV-I 436 W/m 11,9 C 22,2 C 9,7 km/h (2 Bft) 100,00 %
15.07.2019 14:30 22,3 C 21,1 C 32,8 C 49 % 1013,4 hPa 0,0 l/m 3,9 km/h (1 Bft) SO 135 0 min 0,000 mm 3,7 UV-I 463 W/m 11,1 C 22,3 C 14,5 km/h (3 Bft) 97,87 %
15.07.2019 14:32 22,3 C 21,1 C 32,8 C 51 % 1013,5 hPa 0,0 l/m 9,8 km/h (2 Bft) SO 131 2 min 0,000 mm 3,4 UV-I 586 W/m 11,7 C 21,2 C 17,7 km/h (3 Bft) 100,00 %
15.07.2019 14:34 22,3 C 21,1 C 32,2 C 50 % 1013,3 hPa 0,0 l/m 6,8 km/h (2 Bft) S 171 0 min 0,000 mm 3,3 UV-I 452 W/m 11,4 C 22,2 C 11,3 km/h (2 Bft) 97,87 %
15.07.2019 14:36 22,0 C 21,1 C 30,6 C 51 % 1013,4 hPa 0,0 l/m 5,9 km/h (2 Bft) S-SO 166 0 min 0,000 mm 2,6 UV-I 339 W/m 11,4 C 22,0 C 9,7 km/h (2 Bft) 95,74 %
15.07.2019 14:38 21,8 C 21,1 C 28,9 C 52 % 1013,4 hPa 0,0 l/m 10,1 km/h (2 Bft) O 94 0 min 0,000 mm 2,6 UV-I 325 W/m 11,5 C 20,6 C 17,7 km/h (3 Bft) 97,37 %
15.07.2019 14:40 21,8 C 21,1 C 27,8 C 48 % 1013,4 hPa 0,0 l/m 6,5 km/h (2 Bft) O-NO 68 0 min 0,000 mm 2,5 UV-I 315 W/m 10,3 C 21,8 C 16,1 km/h (3 Bft) 100,00 %
15.07.2019 14:42 21,8 C 21,1 C 27,2 C 51 % 1013,4 hPa 0,0 l/m 3,2 km/h (1 Bft) NO 46 0 min 0,000 mm 2,5 UV-I 324 W/m 11,2 C 21,8 C 6,4 km/h (2 Bft) 100,00 %
15.07.2019 14:44 21,9 C 21,1 C 27,2 C 53 % 1013,4 hPa 0,0 l/m 3,9 km/h (1 Bft) SO 140 0 min 0,000 mm 2,7 UV-I 363 W/m 11,9 C 21,9 C 6,4 km/h (2 Bft) 100,00 %
15.07.2019 14:46 21,8 C 21,1 C 27,2 C 54 % 1013,4 hPa 0,0 l/m 3,2 km/h (1 Bft) SO 141 0 min 0,000 mm 2,7 UV-I 367 W/m 12,1 C 21,8 C 6,4 km/h (2 Bft) 97,87 %
15.07.2019 14:48 21,8 C 21,1 C 27,8 C 55 % 1013,4 hPa 0,0 l/m 4,1 km/h (1 Bft) O 81 0 min 0,000 mm 2,7 UV-I 403 W/m 12,4 C 21,8 C 6,4 km/h (2 Bft) 100,00 %
15.07.2019 14:50 21,9 C 21,1 C 27,2 C 51 % 1013,4 hPa 0,0 l/m 3,5 km/h (1 Bft) O-NO 70 0 min 0,000 mm 2,7 UV-I 349 W/m 11,3 C 21,9 C 6,4 km/h (2 Bft) 95,74 %
15.07.2019 14:52 21,8 C 21,1 C 26,7 C 53 % 1013,4 hPa 0,0 l/m 6,1 km/h (2 Bft) O-NO 67 0 min 0,000 mm 2,4 UV-I 317 W/m 11,8 C 21,8 C 14,5 km/h (3 Bft) 97,87 %
15.07.2019 14:54 21,8 C 21,1 C 26,1 C 54 % 1013,4 hPa 0,0 l/m 7,1 km/h (2 Bft) O-NO 78 0 min 0,000 mm 2,2 UV-I 291 W/m 12,1 C 21,6 C 14,5 km/h (3 Bft) 97,87 %
15.07.2019 14:56 21,7 C 21,1 C 25,6 C 52 % 1013,3 hPa 0,0 l/m 7,9 km/h (2 Bft) O-SO 105 0 min 0,000 mm 2,2 UV-I 285 W/m 11,4 C 21,2 C 12,9 km/h (3 Bft) 100,00 %
15.07.2019 14:58 21,6 C 21,1 C 25,0 C 51 % 1013,4 hPa 0,0 l/m 7,3 km/h (2 Bft) O 101 0 min 0,000 mm 2,2 UV-I 275 W/m 11,0 C 21,3 C 9,7 km/h (2 Bft) 97,87 %
15.07.2019 15:00 21,6 C 21,1 C 25,0 C 53 % 1013,4 hPa 0,0 l/m 3,0 km/h (1 Bft) O-NO 58 0 min 0,305 mm 2,1 UV-I 273 W/m 11,6 C 21,6 C 6,4 km/h (2 Bft) 100,00 %
15.07.2019 15:02 21,6 C 21,1 C 25,0 C 54 % 1013,4 hPa 0,0 l/m 5,3 km/h (1 Bft) N-NO 33 0 min 0,000 mm 2,1 UV-I 273 W/m 11,9 C 21,6 C 8,0 km/h (2 Bft) 100,00 %
15.07.2019 15:04 21,7 C 21,1 C 24,4 C 53 % 1013,4 hPa 0,0 l/m 7,4 km/h (2 Bft) N-NW 348 0 min 0,000 mm 2,0 UV-I 264 W/m 11,7 C 21,3 C 11,3 km/h (2 Bft) 100,00 %
15.07.2019 15:06 21,7 C 21,1 C 23,9 C 52 % 1013,3 hPa 0,0 l/m 6,6 km/h (2 Bft) N-NO 13 0 min 0,000 mm 2,0 UV-I 255 W/m 11,4 C 21,6 C 12,9 km/h (3 Bft) 100,00 %
15.07.2019 15:08 21,7 C 21,1 C 23,9 C 55 % 1013,3 hPa 0,0 l/m 7,8 km/h (2 Bft) NO 54 0 min 0,000 mm 2,0 UV-I 256 W/m 12,3 C 21,2 C 12,9 km/h (3 Bft) 100,00 %
15.07.2019 15:10 21,8 C 21,1 C 23,9 C 55 % 1013,3 hPa 0,0 l/m 7,5 km/h (2 Bft) NO 55 0 min 0,000 mm 2,0 UV-I 263 W/m 12,4 C 21,4 C 11,3 km/h (2 Bft) 93,62 %
15.07.2019 15:12 21,8 C 21,1 C 23,9 C 53 % 1013,3 hPa 0,0 l/m 8,6 km/h (2 Bft) O-NO 63 0 min 0,000 mm 2,0 UV-I 264 W/m 11,8 C 21,0 C 17,7 km/h (3 Bft) 95,74 %
15.07.2019 15:14 21,7 C 21,1 C 23,9 C 54 % 1013,3 hPa 0,0 l/m 11,3 km/h (2 Bft) O-NO 59 0 min 0,000 mm 2,0 UV-I 259 W/m 12,0 C 20,2 C 17,7 km/h (3 Bft) 93,62 %
15.07.2019 15:16 21,7 C 21,1 C 23,9 C 54 % 1013,3 hPa 0,0 l/m 8,9 km/h (2 Bft) O-NO 68 0 min 0,000 mm 2,1 UV-I 260 W/m 12,0 C 20,8 C 12,9 km/h (3 Bft) 95,74 %
15.07.2019 15:18 21,7 C 21,1 C 23,9 C 52 % 1013,3 hPa 0,0 l/m 5,5 km/h (1 Bft) O 85 0 min 0,000 mm 2,1 UV-I 260 W/m 11,4 C 21,7 C 8,0 km/h (2 Bft) 95,74 %
15.07.2019 15:20 21,7 C 21,1 C 23,9 C 53 % 1013,3 hPa 0,0 l/m 5,4 km/h (1 Bft) NO 39 0 min 0,000 mm 2,2 UV-I 262 W/m 11,7 C 21,7 C 9,7 km/h (2 Bft) 95,74 %
15.07.2019 15:22 21,7 C 21,1 C 23,9 C 52 % 1013,3 hPa 0,0 l/m 6,3 km/h (2 Bft) N-NO 19 0 min 0,000 mm 2,3 UV-I 259 W/m 11,4 C 21,7 C 9,7 km/h (2 Bft) 93,62 %
15.07.2019 15:24 21,7 C 21,1 C 24,4 C 52 % 1013,3 hPa 0,0 l/m 6,7 km/h (2 Bft) O-NO 59 0 min 0,000 mm 2,4 UV-I 286 W/m 11,4 C 21,6 C 11,3 km/h (2 Bft) 93,62 %
15.07.2019 15:26 21,7 C 21,1 C 25,0 C 53 % 1013,3 hPa 0,0 l/m 5,2 km/h (1 Bft) SO 130 0 min 0,000 mm 2,5 UV-I 323 W/m 11,7 C 21,7 C 6,4 km/h (2 Bft) 95,74 %
15.07.2019 15:28 21,8 C 21,1 C 26,1 C 54 % 1013,2 hPa 0,0 l/m 2,9 km/h (1 Bft) O-SO 119 0 min 0,000 mm 2,6 UV-I 358 W/m 12,1 C 21,8 C 6,4 km/h (2 Bft) 95,83 %
15.07.2019 15:30 22,0 C 21,1 C 27,8 C 51 % 1013,2 hPa 0,0 l/m 3,5 km/h (1 Bft) SO 133 0 min 0,000 mm 3,2 UV-I 350 W/m 11,4 C 22,0 C 6,4 km/h (2 Bft) 96,00 %
15.07.2019 15:32 22,2 C 21,1 C 30,0 C 50 % 1013,2 hPa 0,0 l/m 2,6 km/h (1 Bft) S 190 2 min 0,000 mm 3,1 UV-I 679 W/m 11,3 C 22,2 C 4,8 km/h (1 Bft) 95,74 %
15.07.2019 15:34 22,2 C 21,1 C 30,6 C 50 % 1013,2 hPa 0,0 l/m 1,9 km/h (1 Bft) S 190 2 min 0,000 mm 2,9 UV-I 608 W/m 11,3 C 22,2 C 4,8 km/h (1 Bft) 93,62 %
15.07.2019 15:36 22,3 C 21,1 C 33,9 C 49 % 1013,2 hPa 0,0 l/m 2,1 km/h (1 Bft) O 98 2 min 0,000 mm 3,7 UV-I 758 W/m 11,1 C 22,3 C 4,8 km/h (1 Bft) 94,74 %
15.07.2019 15:38 22,8 C 21,1 C 35,6 C 56 % 1013,2 hPa 0,0 l/m 11,1 km/h (2 Bft) NO 49 2 min 0,000 mm 3,7 UV-I 941 W/m 13,6 C 21,5 C 19,3 km/h (3 Bft) 97,87 %
15.07.2019 15:40 23,3 C 21,1 C 36,7 C 54 % 1013,2 hPa 0,0 l/m 14,9 km/h (3 Bft) N-NO 33 2 min 0,000 mm 3,7 UV-I 954 W/m 13,5 C 21,3 C 24,1 km/h (4 Bft) 96,00 %
15.07.2019 15:42 23,4 C 21,1 C 37,2 C 53 % 1013,2 hPa 0,0 l/m 15,4 km/h (3 Bft) O 79 2 min 0,000 mm 3,7 UV-I 964 W/m 13,3 C 21,3 C 22,5 km/h (4 Bft) 97,87 %
15.07.2019 15:44 23,4 C 21,1 C 37,2 C 56 % 1013,2 hPa 0,0 l/m 16,1 km/h (3 Bft) O-NO 69 2 min 0,000 mm 3,5 UV-I 974 W/m 14,1 C 21,2 C 20,9 km/h (4 Bft) 95,74 %
15.07.2019 15:46 23,6 C 21,1 C 37,8 C 54 % 1013,2 hPa 0,0 l/m 13,7 km/h (3 Bft) O-NO 59 2 min 0,000 mm 3,6 UV-I 963 W/m 13,7 C 21,8 C 20,9 km/h (4 Bft) 95,74 %
15.07.2019 15:48 23,5 C 21,1 C 37,2 C 52 % 1013,3 hPa 0,0 l/m 11,1 km/h (2 Bft) O-NO 65 2 min 0,000 mm 3,4 UV-I 963 W/m 13,1 C 22,3 C 17,7 km/h (3 Bft) 97,87 %
15.07.2019 15:50 23,4 C 21,1 C 36,7 C 53 % 1013,2 hPa 0,0 l/m 10,7 km/h (2 Bft) O 97 2 min 0,000 mm 3,2 UV-I 936 W/m 13,3 C 22,2 C 16,1 km/h (3 Bft) 100,00 %
15.07.2019 15:52 23,2 C 21,1 C 35,6 C 52 % 1013,2 hPa 0,0 l/m 9,8 km/h (2 Bft) O 80 2 min 0,000 mm 2,9 UV-I 583 W/m 12,8 C 22,2 C 16,1 km/h (3 Bft) 100,00 %
15.07.2019 15:54 23,0 C 21,1 C 33,9 C 53 % 1013,2 hPa 0,0 l/m 11,7 km/h (2 Bft) NO 51 2 min 0,000 mm 2,6 UV-I 504 W/m 12,9 C 21,6 C 17,7 km/h (3 Bft) 97,87 %
15.07.2019 15:56 23,1 C 21,1 C 33,3 C 55 % 1013,2 hPa 0,0 l/m 10,8 km/h (2 Bft) NO 37 2 min 0,000 mm 2,6 UV-I 577 W/m 13,6 C 21,9 C 16,1 km/h (3 Bft) 98,00 %
15.07.2019 15:58 22,9 C 21,1 C 31,7 C 55 % 1013,1 hPa 0,0 l/m 7,6 km/h (2 Bft) O-NO 74 2 min 0,000 mm 2,3 UV-I 407 W/m 13,4 C 22,5 C 11,3 km/h (2 Bft) 100,00 %
15.07.2019 16:00 22,9 C 21,1 C 31,1 C 55 % 1013,2 hPa 0,0 l/m 11,9 km/h (2 Bft) O-NO 65 0 min 0,381 mm 2,7 UV-I 379 W/m 13,4 C 21,4 C 17,7 km/h (3 Bft) 100,00 %
15.07.2019 16:02 23,0 C 21,1 C 32,2 C 55 % 1013,2 hPa 0,0 l/m 13,7 km/h (3 Bft) O-NO 57 0 min 0,000 mm 2,8 UV-I 380 W/m 13,5 C 21,1 C 19,3 km/h (3 Bft) 98,04 %
15.07.2019 16:04 23,1 C 21,1 C 32,8 C 51 % 1013,2 hPa 0,0 l/m 13,3 km/h (3 Bft) NO 51 0 min 0,000 mm 2,7 UV-I 380 W/m 12,4 C 21,3 C 17,7 km/h (3 Bft) 100,00 %
15.07.2019 16:06 23,1 C 21,1 C 33,9 C 51 % 1013,2 hPa 0,0 l/m 10,2 km/h (2 Bft) NO 56 2 min 0,000 mm 2,8 UV-I 583 W/m 12,4 C 22,0 C 14,5 km/h (3 Bft) 97,87 %
15.07.2019 16:08 23,1 C 21,1 C 32,2 C 51 % 1013,2 hPa 0,0 l/m 10,7 km/h (2 Bft) O 80 2 min 0,000 mm 2,5 UV-I 803 W/m 12,4 C 21,9 C 16,1 km/h (3 Bft) 100,00 %
15.07.2019 16:10 22,8 C 21,1 C 30,6 C 53 % 1013,2 hPa 0,0 l/m 14,3 km/h (3 Bft) O-NO 60 2 min 0,000 mm 2,6 UV-I 563 W/m 12,7 C 20,8 C 20,9 km/h (4 Bft) 100,00 %
15.07.2019 16:12 22,6 C 21,1 C 30,6 C 52 % 1013,2 hPa 0,0 l/m 10,0 km/h (2 Bft) O-NO 67 2 min 0,000 mm 2,8 UV-I 515 W/m 12,2 C 21,5 C 16,1 km/h (3 Bft) 100,00 %
15.07.2019 16:14 22,6 C 21,1 C 31,7 C 53 % 1013,2 hPa 0,0 l/m 12,6 km/h (3 Bft) O-NO 64 2 min 0,000 mm 2,9 UV-I 693 W/m 12,5 C 20,9 C 16,1 km/h (3 Bft) 100,00 %
15.07.2019 16:16 22,6 C 21,1 C 31,1 C 51 % 1013,2 hPa 0,0 l/m 6,7 km/h (2 Bft) O-NO 67 2 min 0,000 mm 2,7 UV-I 758 W/m 11,9 C 22,5 C 12,9 km/h (3 Bft) 100,00 %
15.07.2019 16:18 22,7 C 21,1 C 32,2 C 49 % 1013,1 hPa 0,0 l/m 8,8 km/h (2 Bft) NO 48 2 min 0,000 mm 2,9 UV-I 724 W/m 11,4 C 21,9 C 14,5 km/h (3 Bft) 100,00 %
15.07.2019 16:20 22,9 C 21,1 C 33,9 C 50 % 1013,1 hPa 0,0 l/m 7,8 km/h (2 Bft) NO 49 2 min 0,000 mm 2,8 UV-I 688 W/m 11,9 C 22,5 C 11,3 km/h (2 Bft) 100,00 %
15.07.2019 16:22 23,2 C 21,1 C 34,4 C 46 % 1013,1 hPa 0,0 l/m 8,2 km/h (2 Bft) N-NO 30 2 min 0,000 mm 2,8 UV-I 683 W/m 10,9 C 22,7 C 11,3 km/h (2 Bft) 100,00 %
15.07.2019 16:24 23,3 C 21,1 C 35,0 C 46 % 1013,1 hPa 0,0 l/m 6,7 km/h (2 Bft) O-NO 78 2 min 0,000 mm 2,7 UV-I 667 W/m 11,0 C 23,2 C 8,0 km/h (2 Bft) 100,00 %
15.07.2019 16:26 23,5 C 21,1 C 36,1 C 41 % 1013,1 hPa 0,0 l/m 4,8 km/h (1 Bft) O-SO 104 2 min 0,000 mm 2,7 UV-I 648 W/m 9,5 C 23,5 C 9,7 km/h (2 Bft) 97,87 %
15.07.2019 16:28 23,4 C 21,1 C 35,6 C 41 % 1013,1 hPa 0,0 l/m 8,8 km/h (2 Bft) O 96 2 min 0,000 mm 2,7 UV-I 652 W/m 9,4 C 22,7 C 17,7 km/h (3 Bft) 100,00 %
15.07.2019 16:30 23,3 C 21,1 C 36,1 C 42 % 1013,1 hPa 0,0 l/m 9,9 km/h (2 Bft) O-NO 59 2 min 0,000 mm 2,6 UV-I 648 W/m 9,7 C 22,3 C 14,5 km/h (3 Bft) 97,87 %
15.07.2019 16:32 23,3 C 21,1 C 36,1 C 40 % 1013,1 hPa 0,0 l/m 3,6 km/h (1 Bft) O 79 2 min 0,000 mm 2,6 UV-I 643 W/m 8,9 C 23,3 C 6,4 km/h (2 Bft) 100,00 %
15.07.2019 16:34 23,2 C 21,1 C 35,0 C 43 % 1013,0 hPa 0,0 l/m 9,2 km/h (2 Bft) NO 42 2 min 0,000 mm 2,6 UV-I 628 W/m 9,9 C 22,4 C 14,5 km/h (3 Bft) 97,37 %
15.07.2019 16:36 23,4 C 21,1 C 33,9 C 44 % 1013,0 hPa 0,0 l/m 10,1 km/h (2 Bft) N 9 2 min 0,000 mm 2,5 UV-I 619 W/m 10,4 C 22,4 C 14,5 km/h (3 Bft) 100,00 %
15.07.2019 16:38 23,7 C 21,1 C 35,0 C 45 % 1013,0 hPa 0,0 l/m 8,7 km/h (2 Bft) NO 50 2 min 0,000 mm 2,5 UV-I 615 W/m 11,1 C 23,0 C 14,5 km/h (3 Bft) 100,00 %
15.07.2019 16:40 23,8 C 21,1 C 35,0 C 43 % 1013,0 hPa 0,0 l/m 8,9 km/h (2 Bft) N-NO 28 2 min 0,000 mm 2,4 UV-I 609 W/m 10,5 C 23,1 C 14,5 km/h (3 Bft) 100,00 %
15.07.2019 16:42 23,7 C 21,1 C 35,0 C 38 % 1013,0 hPa 0,0 l/m 6,2 km/h (2 Bft) N-NO 15 2 min 0,000 mm 2,4 UV-I 608 W/m 8,5 C 23,7 C 11,3 km/h (2 Bft) 97,87 %
15.07.2019 16:44 23,6 C 21,1 C 35,0 C 43 % 1013,0 hPa 0,0 l/m 8,3 km/h (2 Bft) O-NO 71 2 min 0,000 mm 2,4 UV-I 600 W/m 10,3 C 23,0 C 14,5 km/h (3 Bft) 95,74 %
15.07.2019 16:46 23,6 C 21,1 C 35,0 C 41 % 1013,0 hPa 0,0 l/m 8,1 km/h (2 Bft) NO 36 2 min 0,000 mm 2,3 UV-I 593 W/m 9,6 C 23,1 C 14,5 km/h (3 Bft) 97,87 %
15.07.2019 16:48 23,6 C 21,1 C 34,4 C 40 % 1013,0 hPa 0,0 l/m 9,0 km/h (2 Bft) NO 55 2 min 0,000 mm 2,3 UV-I 588 W/m 9,2 C 22,9 C 14,5 km/h (3 Bft) 97,87 %
15.07.2019 16:50 23,4 C 21,1 C 31,7 C 41 % 1013,0 hPa 0,0 l/m 8,9 km/h (2 Bft) O-SO 118 2 min 0,000 mm 1,8 UV-I 573 W/m 9,4 C 22,7 C 14,5 km/h (3 Bft) 95,74 %
15.07.2019 16:52 23,1 C 21,1 C 32,8 C 40 % 1013,0 hPa 0,0 l/m 6,7 km/h (2 Bft) O-SO 118 2 min 0,000 mm 2,1 UV-I 577 W/m 8,8 C 23,0 C 12,9 km/h (3 Bft) 95,74 %
15.07.2019 16:54 23,1 C 21,1 C 33,9 C 41 % 1013,0 hPa 0,0 l/m 6,8 km/h (2 Bft) O 88 2 min 0,000 mm 2,2 UV-I 575 W/m 9,1 C 23,0 C 11,3 km/h (2 Bft) 97,87 %
15.07.2019 16:56 23,2 C 21,1 C 35,0 C 41 % 1012,9 hPa 0,0 l/m 6,5 km/h (2 Bft) O 87 2 min 0,000 mm 2,1 UV-I 568 W/m 9,2 C 23,2 C 9,7 km/h (2 Bft) 97,87 %
15.07.2019 16:58 23,2 C 21,7 C 34,4 C 41 % 1012,9 hPa 0,0 l/m 5,8 km/h (2 Bft) N-NO 30 2 min 0,000 mm 2,1 UV-I 561 W/m 9,2 C 23,2 C 8,0 km/h (2 Bft) 97,87 %
15.07.2019 17:00 23,2 C 21,7 C 33,9 C 40 % 1012,9 hPa 0,0 l/m 6,9 km/h (2 Bft) N-NO 24 2 min 0,000 mm 2,1 UV-I 559 W/m 8,8 C 23,0 C 9,7 km/h (2 Bft) 97,87 %
15.07.2019 17:02 23,4 C 21,7 C 34,4 C 40 % 1012,9 hPa 0,0 l/m 5,7 km/h (1 Bft) O 85 2 min 0,432 mm 2,0 UV-I 552 W/m 9,0 C 23,4 C 8,0 km/h (2 Bft) 95,74 %
15.07.2019 17:04 23,3 C 21,7 C 35,6 C 41 % 1013,0 hPa 0,0 l/m 1,8 km/h (1 Bft) O 88 2 min 0,000 mm 2,0 UV-I 547 W/m 9,3 C 23,3 C 3,2 km/h (1 Bft) 98,00 %
15.07.2019 17:06 23,3 C 21,7 C 36,7 C 42 % 1012,9 hPa 0,0 l/m 1,5 km/h (1 Bft) O 88 2 min 0,000 mm 2,0 UV-I 544 W/m 9,7 C 23,3 C 3,2 km/h (1 Bft) 97,87 %
15.07.2019 17:08 23,3 C 21,7 C 37,2 C 41 % 1012,9 hPa 0,0 l/m 2,7 km/h (1 Bft) N-NO 28 2 min 0,000 mm 1,9 UV-I 538 W/m 9,3 C 23,3 C 4,8 km/h (1 Bft) 100,00 %
15.07.2019 17:10 23,5 C 21,7 C 36,7 C 42 % 1012,9 hPa 0,0 l/m 5,0 km/h (1 Bft) O-NO 75 2 min 0,000 mm 1,9 UV-I 533 W/m 9,8 C 23,5 C 8,0 km/h (2 Bft) 97,87 %
15.07.2019 17:12 23,6 C 21,7 C 36,1 C 40 % 1012,8 hPa 0,0 l/m 8,9 km/h (2 Bft) O-SO 109 2 min 0,000 mm 1,8 UV-I 528 W/m 9,2 C 22,9 C 14,5 km/h (3 Bft) 97,87 %
15.07.2019 17:14 23,4 C 21,7 C 36,1 C 43 % 1012,9 hPa 0,0 l/m 4,3 km/h (1 Bft) O-NO 76 2 min 0,000 mm 1,8 UV-I 521 W/m 10,1 C 23,4 C 8,0 km/h (2 Bft) 97,87 %
15.07.2019 17:16 23,5 C 21,7 C 35,6 C 42 % 1012,9 hPa 0,0 l/m 8,1 km/h (2 Bft) O-NO 67 2 min 0,000 mm 1,8 UV-I 519 W/m 9,8 C 23,0 C 11,3 km/h (2 Bft) 97,22 %
15.07.2019 17:18 23,4 C 21,7 C 35,6 C 40 % 1012,9 hPa 0,0 l/m 5,0 km/h (1 Bft) O-NO 61 2 min 0,000 mm 1,7 UV-I 514 W/m 9,0 C 23,4 C 9,7 km/h (2 Bft) 95,74 %
15.07.2019 17:20 23,6 C 21,7 C 35,0 C 42 % 1012,8 hPa 0,0 l/m 6,6 km/h (2 Bft) O-NO 69 2 min 0,000 mm 1,7 UV-I 513 W/m 9,9 C 23,5 C 11,3 km/h (2 Bft) 98,00 %
15.07.2019 17:22 23,6 C 21,7 C 35,0 C 42 % 1012,8 hPa 0,0 l/m 4,3 km/h (1 Bft) NO 40 2 min 0,000 mm 1,7 UV-I 507 W/m 9,9 C 23,6 C 6,4 km/h (2 Bft) 97,87 %
15.07.2019 17:24 23,5 C 21,7 C 34,4 C 42 % 1012,8 hPa 0,0 l/m 5,7 km/h (1 Bft) N-NO 17 2 min 0,000 mm 1,6 UV-I 493 W/m 9,8 C 23,5 C 8,0 km/h (2 Bft) 96,00 %
15.07.2019 17:26 23,6 C 21,7 C 34,4 C 41 % 1012,8 hPa 0,0 l/m 5,8 km/h (2 Bft) N-NO 33 2 min 0,000 mm 1,6 UV-I 492 W/m 9,6 C 23,6 C 8,0 km/h (2 Bft) 97,87 %
15.07.2019 17:28 23,6 C 21,7 C 33,9 C 40 % 1012,7 hPa 0,0 l/m 8,4 km/h (2 Bft) O 85 2 min 0,000 mm 1,5 UV-I 481 W/m 9,2 C 23,0 C 14,5 km/h (3 Bft) 95,74 %
15.07.2019 17:30 23,4 C 21,7 C 33,9 C 40 % 1012,8 hPa 0,0 l/m 2,5 km/h (1 Bft) O-NO 65 2 min 0,000 mm 1,5 UV-I 471 W/m 9,0 C 23,4 C 6,4 km/h (2 Bft) 96,00 %
15.07.2019 17:32 23,3 C 21,7 C 33,9 C 43 % 1012,7 hPa 0,0 l/m 4,9 km/h (1 Bft) O-NO 76 2 min 0,000 mm 1,5 UV-I 471 W/m 10,0 C 23,3 C 9,7 km/h (2 Bft) 94,74 %
15.07.2019 17:34 23,4 C 21,7 C 34,4 C 42 % 1012,7 hPa 0,0 l/m 5,3 km/h (1 Bft) NO 55 2 min 0,000 mm 1,4 UV-I 468 W/m 9,7 C 23,4 C 11,3 km/h (2 Bft) 91,49 %
15.07.2019 17:36 23,4 C 21,7 C 33,9 C 41 % 1012,7 hPa 0,0 l/m 5,7 km/h (1 Bft) O-NO 67 2 min 0,000 mm 1,3 UV-I 438 W/m 9,4 C 23,4 C 8,0 km/h (2 Bft) 98,00 %
15.07.2019 17:38 23,3 C 21,7 C 33,9 C 42 % 1012,7 hPa 0,0 l/m 2,6 km/h (1 Bft) NO 44 2 min 0,000 mm 1,4 UV-I 441 W/m 9,7 C 23,3 C 6,4 km/h (2 Bft) 97,87 %
15.07.2019 17:40 23,4 C 21,7 C 33,9 C 42 % 1012,6 hPa 0,0 l/m 8,6 km/h (2 Bft) O-NO 71 2 min 0,000 mm 1,3 UV-I 448 W/m 9,7 C 22,8 C 14,5 km/h (3 Bft) 94,00 %
15.07.2019 17:42 23,3 C 21,7 C 33,9 C 40 % 1012,6 hPa 0,0 l/m 6,8 km/h (2 Bft) O 95 2 min 0,000 mm 1,3 UV-I 443 W/m 8,9 C 23,2 C 12,9 km/h (3 Bft) 97,87 %
15.07.2019 17:44 23,3 C 21,7 C 33,9 C 42 % 1012,6 hPa 0,0 l/m 7,3 km/h (2 Bft) O 99 2 min 0,000 mm 1,3 UV-I 431 W/m 9,7 C 23,0 C 9,7 km/h (2 Bft) 100,00 %
15.07.2019 17:46 23,3 C 21,7 C 33,3 C 42 % 1012,6 hPa 0,0 l/m 6,4 km/h (2 Bft) NO 39 2 min 0,000 mm 1,3 UV-I 426 W/m 9,7 C 23,3 C 9,7 km/h (2 Bft) 100,00 %
15.07.2019 17:48 23,5 C 21,7 C 33,9 C 43 % 1012,6 hPa 0,0 l/m 5,6 km/h (1 Bft) NO 36 2 min 0,000 mm 1,2 UV-I 421 W/m 10,2 C 23,5 C 9,7 km/h (2 Bft) 97,87 %
15.07.2019 17:50 23,4 C 21,7 C 33,3 C 40 % 1012,6 hPa 0,0 l/m 5,4 km/h (1 Bft) O-SO 109 2 min 0,000 mm 1,2 UV-I 412 W/m 9,0 C 23,4 C 9,7 km/h (2 Bft) 97,87 %
15.07.2019 17:52 23,4 C 21,7 C 33,9 C 42 % 1012,6 hPa 0,0 l/m 4,8 km/h (1 Bft) O-NO 57 2 min 0,000 mm 1,2 UV-I 407 W/m 9,7 C 23,4 C 9,7 km/h (2 Bft) 97,87 %
15.07.2019 17:54 23,3 C 21,7 C 33,9 C 39 % 1012,6 hPa 0,0 l/m 4,1 km/h (1 Bft) O 88 2 min 0,000 mm 1,1 UV-I 403 W/m 8,6 C 23,3 C 6,4 km/h (2 Bft) 97,87 %
15.07.2019 17:56 23,2 C 21,7 C 33,9 C 43 % 1012,6 hPa 0,0 l/m 2,1 km/h (1 Bft) O 93 2 min 0,000 mm 1,1 UV-I 403 W/m 9,9 C 23,2 C 3,2 km/h (1 Bft) 97,44 %
15.07.2019 17:58 23,3 C 21,7 C 34,4 C 41 % 1012,6 hPa 0,0 l/m 1,6 km/h (1 Bft) O 93 2 min 0,000 mm 1,1 UV-I 402 W/m 9,3 C 23,3 C 3,2 km/h (1 Bft) 94,00 %
15.07.2019 18:00 23,3 C 21,7 C 34,4 C 40 % 1012,6 hPa 0,0 l/m 1,3 km/h (1 Bft) O 93 2 min 0,330 mm 1,1 UV-I 403 W/m 8,9 C 23,3 C 3,2 km/h (1 Bft) 95,74 %
15.07.2019 18:02 23,3 C 21,7 C 34,4 C 41 % 1012,6 hPa 0,0 l/m 4,2 km/h (1 Bft) O 84 2 min 0,000 mm 1,1 UV-I 407 W/m 9,3 C 23,3 C 6,4 km/h (2 Bft) 97,87 %
15.07.2019 18:04 23,4 C 21,7 C 35,0 C 41 % 1012,6 hPa 0,0 l/m 3,1 km/h (1 Bft) N-NO 25 2 min 0,000 mm 1,1 UV-I 414 W/m 9,4 C 23,4 C 6,4 km/h (2 Bft) 97,87 %
15.07.2019 18:06 23,4 C 21,7 C 35,0 C 40 % 1012,6 hPa 0,0 l/m 4,3 km/h (1 Bft) N-NO 19 2 min 0,000 mm 1,0 UV-I 413 W/m 9,0 C 23,4 C 6,4 km/h (2 Bft) 97,87 %
15.07.2019 18:08 23,4 C 21,7 C 35,0 C 41 % 1012,6 hPa 0,0 l/m 2,6 km/h (1 Bft) N 9 2 min 0,000 mm 1,0 UV-I 404 W/m 9,4 C 23,4 C 4,8 km/h (1 Bft) 95,74 %
15.07.2019 18:10 23,6 C 21,7 C 35,0 C 41 % 1012,6 hPa 0,0 l/m 2,7 km/h (1 Bft) NO 47 2 min 0,000 mm 1,0 UV-I 398 W/m 9,6 C 23,6 C 4,8 km/h (1 Bft) 95,74 %
15.07.2019 18:12 23,6 C 21,7 C 35,0 C 41 % 1012,6 hPa 0,0 l/m 3,4 km/h (1 Bft) O 91 2 min 0,000 mm 0,9 UV-I 395 W/m 9,6 C 23,6 C 6,4 km/h (2 Bft) 93,62 %
15.07.2019 18:14 23,6 C 21,7 C 35,0 C 44 % 1012,5 hPa 0,0 l/m 4,6 km/h (1 Bft) O-NO 67 2 min 0,000 mm 0,9 UV-I 393 W/m 10,6 C 23,6 C 6,4 km/h (2 Bft) 95,74 %
15.07.2019 18:16 23,6 C 21,7 C 34,4 C 42 % 1012,5 hPa 0,0 l/m 5,2 km/h (1 Bft) NW 326 2 min 0,000 mm 0,9 UV-I 386 W/m 9,9 C 23,6 C 17,7 km/h (3 Bft) 94,00 %
15.07.2019 18:18 23,7 C 21,7 C 33,9 C 42 % 1012,6 hPa 0,0 l/m 5,3 km/h (1 Bft) N 360 2 min 0,000 mm 0,9 UV-I 380 W/m 10,0 C 23,7 C 12,9 km/h (3 Bft) 95,74 %
15.07.2019 18:20 23,7 C 21,7 C 33,9 C 40 % 1012,6 hPa 0,0 l/m 5,7 km/h (1 Bft) N-NW 338 2 min 0,000 mm 0,8 UV-I 379 W/m 9,3 C 23,7 C 11,3 km/h (2 Bft) 95,74 %
15.07.2019 18:22 23,7 C 21,7 C 33,3 C 42 % 1012,6 hPa 0,0 l/m 7,8 km/h (2 Bft) N-NO 23 2 min 0,000 mm 0,8 UV-I 376 W/m 10,0 C 23,3 C 12,9 km/h (3 Bft) 93,62 %
15.07.2019 18:24 23,7 C 21,7 C 32,2 C 42 % 1012,6 hPa 0,0 l/m 8,6 km/h (2 Bft) NO 43 2 min 0,000 mm 0,8 UV-I 374 W/m 10,0 C 23,1 C 11,3 km/h (2 Bft) 94,29 %
15.07.2019 18:26 23,6 C 21,7 C 31,7 C 42 % 1012,6 hPa 0,0 l/m 7,1 km/h (2 Bft) N-NO 28 2 min 0,000 mm 0,8 UV-I 372 W/m 9,9 C 23,4 C 8,0 km/h (2 Bft) 92,00 %
15.07.2019 18:28 23,6 C 21,7 C 31,7 C 44 % 1012,5 hPa 0,0 l/m 6,0 km/h (2 Bft) N 9 2 min 0,000 mm 0,7 UV-I 365 W/m 10,6 C 23,6 C 8,0 km/h (2 Bft) 91,49 %
15.07.2019 18:30 23,6 C 21,7 C 31,7 C 45 % 1012,6 hPa 0,0 l/m 4,1 km/h (1 Bft) N-NO 28 2 min 0,000 mm 0,7 UV-I 357 W/m 11,0 C 23,6 C 4,8 km/h (1 Bft) 94,00 %
15.07.2019 18:32 23,6 C 21,7 C 32,2 C 44 % 1012,5 hPa 0,0 l/m 5,0 km/h (1 Bft) N-NO 15 2 min 0,000 mm 0,7 UV-I 347 W/m 10,6 C 23,6 C 6,4 km/h (2 Bft) 95,74 %
15.07.2019 18:34 23,7 C 21,7 C 32,2 C 43 % 1012,5 hPa 0,0 l/m 4,9 km/h (1 Bft) N 9 2 min 0,000 mm 0,7 UV-I 338 W/m 10,4 C 23,7 C 6,4 km/h (2 Bft) 95,74 %
15.07.2019 18:36 23,6 C 21,7 C 31,7 C 43 % 1012,5 hPa 0,0 l/m 3,7 km/h (1 Bft) N 9 2 min 0,000 mm 0,6 UV-I 340 W/m 10,3 C 23,6 C 6,4 km/h (2 Bft) 95,83 %
15.07.2019 18:38 23,5 C 21,7 C 32,2 C 41 % 1012,5 hPa 0,0 l/m 3,6 km/h (1 Bft) N 11 2 min 0,000 mm 0,6 UV-I 351 W/m 9,5 C 23,5 C 6,4 km/h (2 Bft) 95,74 %
15.07.2019 18:40 23,4 C 21,7 C 32,8 C 42 % 1012,6 hPa 0,0 l/m 2,2 km/h (1 Bft) N 11 2 min 0,000 mm 0,6 UV-I 362 W/m 9,7 C 23,4 C 4,8 km/h (1 Bft) 95,74 %
15.07.2019 18:42 23,5 C 21,7 C 33,3 C 44 % 1012,5 hPa 0,0 l/m 2,7 km/h (1 Bft) W-NW 296 2 min 0,000 mm 0,6 UV-I 366 W/m 10,5 C 23,5 C 4,8 km/h (1 Bft) 96,00 %
15.07.2019 18:44 23,6 C 21,7 C 33,3 C 42 % 1012,5 hPa 0,0 l/m 2,2 km/h (1 Bft) W-NW 300 2 min 0,000 mm 0,6 UV-I 359 W/m 9,9 C 23,6 C 4,8 km/h (1 Bft) 97,87 %
15.07.2019 18:46 23,6 C 21,7 C 32,8 C 42 % 1012,5 hPa 0,0 l/m 5,6 km/h (1 Bft) NO 52 2 min 0,000 mm 0,6 UV-I 346 W/m 9,9 C 23,6 C 9,7 km/h (2 Bft) 100,00 %
15.07.2019 18:48 23,7 C 21,7 C 32,8 C 44 % 1012,5 hPa 0,0 l/m 7,5 km/h (2 Bft) NO 41 2 min 0,000 mm 0,5 UV-I 333 W/m 10,7 C 23,4 C 8,0 km/h (2 Bft) 95,74 %
15.07.2019 18:50 23,7 C 21,7 C 32,2 C 42 % 1012,6 hPa 0,0 l/m 4,5 km/h (1 Bft) NO 44 2 min 0,000 mm 0,5 UV-I 328 W/m 10,0 C 23,7 C 6,4 km/h (2 Bft) 93,62 %
15.07.2019 18:52 23,6 C 21,7 C 32,8 C 42 % 1012,6 hPa 0,0 l/m 2,3 km/h (1 Bft) NO 44 2 min 0,000 mm 0,5 UV-I 321 W/m 9,9 C 23,6 C 4,8 km/h (1 Bft) 97,37 %
15.07.2019 18:54 23,7 C 21,7 C 32,8 C 44 % 1012,6 hPa 0,0 l/m 1,2 km/h (1 Bft) NO 44 2 min 0,000 mm 0,5 UV-I 313 W/m 10,7 C 23,7 C 3,2 km/h (1 Bft) 93,62 %
15.07.2019 18:56 23,6 C 21,7 C 32,8 C 43 % 1012,6 hPa 0,0 l/m 3,3 km/h (1 Bft) NO 53 2 min 0,000 mm 0,5 UV-I 302 W/m 10,3 C 23,6 C 6,4 km/h (2 Bft) 98,00 %
15.07.2019 18:58 23,6 C 21,7 C 31,7 C 44 % 1012,6 hPa 0,0 l/m 4,9 km/h (1 Bft) NO 53 2 min 0,000 mm 0,0 UV-I 288 W/m 10,6 C 23,6 C 6,4 km/h (2 Bft) 95,74 %
15.07.2019 19:00 23,5 C 21,7 C 31,1 C 46 % 1012,6 hPa 0,0 l/m 3,1 km/h (1 Bft) NO 53 2 min 0,254 mm 0,0 UV-I 278 W/m 11,2 C 23,5 C 4,8 km/h (1 Bft) 97,87 %
15.07.2019 19:02 23,4 C 21,7 C 30,0 C 43 % 1012,5 hPa 0,0 l/m 1,9 km/h (1 Bft) NO 53 2 min 0,000 mm 0,0 UV-I 223 W/m 10,1 C 23,4 C 3,2 km/h (1 Bft) 100,00 %
15.07.2019 19:04 23,4 C 21,7 C 30,6 C 44 % 1012,5 hPa 0,0 l/m 1,0 km/h (0 Bft) NO 53 2 min 0,000 mm 0,0 UV-I 266 W/m 10,4 C 23,4 C 1,6 km/h (1 Bft) 100,00 %
15.07.2019 19:06 23,4 C 21,7 C 31,1 C 44 % 1012,5 hPa 0,0 l/m 4,6 km/h (1 Bft) N-NW 348 2 min 0,000 mm 0,0 UV-I 254 W/m 10,4 C 23,4 C 6,4 km/h (2 Bft) 97,87 %
15.07.2019 19:08 23,3 C 21,7 C 31,1 C 46 % 1012,5 hPa 0,0 l/m 1,6 km/h (1 Bft) N-NW 344 2 min 0,000 mm 0,0 UV-I 244 W/m 11,0 C 23,3 C 4,8 km/h (1 Bft) 93,62 %
15.07.2019 19:10 23,2 C 21,7 C 31,1 C 44 % 1012,5 hPa 0,0 l/m 1,7 km/h (1 Bft) N-NW 344 2 min 0,000 mm 0,0 UV-I 236 W/m 10,3 C 23,2 C 4,8 km/h (1 Bft) 97,87 %
15.07.2019 19:12 23,2 C 21,7 C 31,1 C 44 % 1012,5 hPa 0,0 l/m 2,9 km/h (1 Bft) N-NW 340 2 min 0,000 mm 0,0 UV-I 229 W/m 10,3 C 23,2 C 4,8 km/h (1 Bft) 97,87 %
15.07.2019 19:14 23,1 C 21,7 C 31,1 C 44 % 1012,5 hPa 0,0 l/m 2,8 km/h (1 Bft) N-NW 340 2 min 0,000 mm 0,0 UV-I 223 W/m 10,2 C 23,1 C 4,8 km/h (1 Bft) 98,00 %
15.07.2019 19:16 23,1 C 21,7 C 31,1 C 45 % 1012,5 hPa 0,0 l/m 1,6 km/h (1 Bft) N-NW 340 2 min 0,000 mm 0,0 UV-I 220 W/m 10,5 C 23,1 C 3,2 km/h (1 Bft) 95,74 %
15.07.2019 19:18 23,2 C 21,7 C 30,6 C 44 % 1012,5 hPa 0,0 l/m 3,1 km/h (1 Bft) N-NW 334 2 min 0,000 mm 0,0 UV-I 215 W/m 10,3 C 23,2 C 4,8 km/h (1 Bft) 97,92 %
15.07.2019 19:20 23,1 C 21,7 C 30,6 C 46 % 1012,5 hPa 0,0 l/m 2,1 km/h (1 Bft) N-NW 333 2 min 0,000 mm 0,0 UV-I 213 W/m 10,8 C 23,1 C 4,8 km/h (1 Bft) 97,87 %
15.07.2019 19:22 23,1 C 21,7 C 30,0 C 47 % 1012,5 hPa 0,0 l/m 1,5 km/h (1 Bft) N-NW 335 2 min 0,000 mm 0,0 UV-I 207 W/m 11,2 C 23,1 C 4,8 km/h (1 Bft) 97,37 %
15.07.2019 19:24 23,2 C 21,7 C 30,0 C 47 % 1012,5 hPa 0,0 l/m 3,0 km/h (1 Bft) N-NW 343 2 min 0,000 mm 0,0 UV-I 200 W/m 11,3 C 23,2 C 4,8 km/h (1 Bft) 97,87 %
15.07.2019 19:26 23,2 C 21,7 C 29,4 C 47 % 1012,6 hPa 0,0 l/m 4,7 km/h (1 Bft) NO 34 2 min 0,000 mm 0,0 UV-I 197 W/m 11,3 C 23,2 C 6,4 km/h (2 Bft) 93,62 %
15.07.2019 19:28 23,2 C 21,7 C 28,3 C 48 % 1012,6 hPa 0,0 l/m 6,6 km/h (2 Bft) NO 36 2 min 0,000 mm 0,0 UV-I 195 W/m 11,6 C 23,1 C 9,7 km/h (2 Bft) 96,00 %
15.07.2019 19:30 23,2 C 21,7 C 27,8 C 48 % 1012,6 hPa 0,0 l/m 6,6 km/h (2 Bft) N-NW 347 2 min 0,000 mm 0,0 UV-I 193 W/m 11,6 C 23,1 C 9,7 km/h (2 Bft) 98,00 %
15.07.2019 19:32 23,1 C 21,7 C 27,8 C 47 % 1012,6 hPa 0,0 l/m 7,3 km/h (2 Bft) N-NO 15 2 min 0,000 mm 0,0 UV-I 188 W/m 11,2 C 22,8 C 12,9 km/h (3 Bft) 95,74 %
15.07.2019 19:34 23,0 C 21,7 C 27,2 C 46 % 1012,6 hPa 0,0 l/m 5,3 km/h (1 Bft) NO 36 2 min 0,000 mm 0,0 UV-I 183 W/m 10,7 C 23,0 C 8,0 km/h (2 Bft) 97,87 %
15.07.2019 19:36 23,0 C 21,7 C 27,2 C 45 % 1012,6 hPa 0,0 l/m 3,3 km/h (1 Bft) NO 36 2 min 0,000 mm 0,0 UV-I 176 W/m 10,4 C 23,0 C 6,4 km/h (2 Bft) 97,87 %
15.07.2019 19:38 23,0 C 21,7 C 27,2 C 46 % 1012,6 hPa 0,0 l/m 4,3 km/h (1 Bft) N 11 2 min 0,000 mm 0,0 UV-I 164 W/m 10,7 C 23,0 C 6,4 km/h (2 Bft) 100,00 %
15.07.2019 19:40 23,0 C 21,7 C 27,2 C 46 % 1012,6 hPa 0,0 l/m 5,8 km/h (2 Bft) NO 39 2 min 0,000 mm 0,0 UV-I 156 W/m 10,7 C 23,0 C 8,0 km/h (2 Bft) 100,00 %
15.07.2019 19:42 22,9 C 21,7 C 26,1 C 48 % 1012,6 hPa 0,0 l/m 6,1 km/h (2 Bft) N-NO 28 2 min 0,000 mm 0,0 UV-I 117 W/m 11,3 C 22,9 C 8,0 km/h (2 Bft) 97,87 %
15.07.2019 19:44 22,7 C 21,7 C 25,6 C 48 % 1012,6 hPa 0,0 l/m 3,8 km/h (1 Bft) O-NO 61 2 min 0,000 mm 0,0 UV-I 109 W/m 11,1 C 22,7 C 4,8 km/h (1 Bft) 100,00 %
15.07.2019 19:46 22,6 C 21,7 C 25,6 C 48 % 1012,7 hPa 0,0 l/m 4,5 km/h (1 Bft) O-SO 105 2 min 0,000 mm 0,0 UV-I 125 W/m 11,0 C 22,6 C 6,4 km/h (2 Bft) 100,00 %
15.07.2019 19:48 22,6 C 21,7 C 25,6 C 48 % 1012,6 hPa 0,0 l/m 5,0 km/h (1 Bft) O-SO 105 2 min 0,000 mm 0,0 UV-I 120 W/m 11,0 C 22,6 C 9,7 km/h (2 Bft) 97,87 %
15.07.2019 19:50 22,4 C 21,7 C 25,6 C 48 % 1012,6 hPa 0,0 l/m 3,8 km/h (1 Bft) O-SO 104 2 min 0,000 mm 0,0 UV-I 113 W/m 10,8 C 22,4 C 6,4 km/h (2 Bft) 97,44 %
15.07.2019 19:52 22,4 C 21,7 C 24,4 C 48 % 1012,7 hPa 0,0 l/m 3,6 km/h (1 Bft) O-SO 103 2 min 0,000 mm 0,0 UV-I 86 W/m 10,8 C 22,4 C 4,8 km/h (1 Bft) 97,87 %
15.07.2019 19:54 22,3 C 21,7 C 23,3 C 50 % 1012,6 hPa 0,0 l/m 3,2 km/h (1 Bft) O-SO 103 0 min 0,000 mm 0,0 UV-I 54 W/m 11,4 C 22,3 C 4,8 km/h (1 Bft) 97,87 %
15.07.2019 19:56 22,1 C 21,7 C 22,2 C 51 % 1012,7 hPa 0,0 l/m 2,8 km/h (1 Bft) O-SO 103 0 min 0,000 mm 0,0 UV-I 49 W/m 11,5 C 22,1 C 4,8 km/h (1 Bft) 97,87 %
15.07.2019 19:58 21,8 C 21,7 C 21,7 C 51 % 1012,7 hPa 0,0 l/m 2,1 km/h (1 Bft) O-SO 103 0 min 0,000 mm 0,0 UV-I 45 W/m 11,2 C 21,8 C 3,2 km/h (1 Bft) 97,87 %
15.07.2019 20:00 21,8 C 21,7 C 21,1 C 52 % 1012,7 hPa 0,0 l/m 2,1 km/h (1 Bft) O-SO 103 0 min 0,000 mm 0,0 UV-I 43 W/m 11,5 C 21,8 C 4,8 km/h (1 Bft) 97,87 %
15.07.2019 20:02 21,7 C 21,7 C 20,6 C 51 % 1012,7 hPa 0,0 l/m 1,2 km/h (1 Bft) O-SO 103 0 min 0,127 mm 0,0 UV-I 39 W/m 11,1 C 21,7 C 3,2 km/h (1 Bft) 96,00 %
15.07.2019 20:04 21,6 C 21,7 C 20,0 C 52 % 1012,8 hPa 0,0 l/m 0,5 km/h (0 Bft) O-SO 103 0 min 0,000 mm 0,0 UV-I 37 W/m 11,3 C 21,6 C 1,6 km/h (1 Bft) 97,87 %
15.07.2019 20:06 21,7 C 21,7 C 19,4 C 51 % 1012,7 hPa 0,0 l/m 2,8 km/h (1 Bft) O-SO 103 0 min 0,000 mm 0,0 UV-I 35 W/m 11,1 C 21,7 C 4,8 km/h (1 Bft) 97,87 %
15.07.2019 20:08 21,6 C 21,7 C 18,9 C 52 % 1012,8 hPa 0,0 l/m 2,6 km/h (1 Bft) O-SO 103 0 min 0,000 mm 0,0 UV-I 33 W/m 11,3 C 21,6 C 3,2 km/h (1 Bft) 95,74 %
15.07.2019 20:10 21,5 C 21,7 C 18,9 C 52 % 1012,7 hPa 0,0 l/m 2,1 km/h (1 Bft) O-SO 103 0 min 0,000 mm 0,0 UV-I 32 W/m 11,2 C 21,5 C 3,2 km/h (1 Bft) 97,87 %
15.07.2019 20:12 21,3 C 21,7 C 18,3 C 53 % 1012,8 hPa 0,0 l/m 1,7 km/h (1 Bft) O-SO 103 0 min 0,000 mm 0,0 UV-I 30 W/m 11,3 C 21,3 C 3,2 km/h (1 Bft) 97,87 %
15.07.2019 20:14 21,1 C 21,7 C 18,3 C 55 % 1012,8 hPa 0,0 l/m 2,1 km/h (1 Bft) O-SO 103 0 min 0,000 mm 0,0 UV-I 29 W/m 11,7 C 21,1 C 3,2 km/h (1 Bft) 97,87 %
15.07.2019 20:16 20,8 C 21,7 C 17,8 C 55 % 1012,7 hPa 0,0 l/m 2,3 km/h (1 Bft) O-SO 103 0 min 0,000 mm 0,0 UV-I 27 W/m 11,4 C 20,8 C 3,2 km/h (1 Bft) 95,74 %
15.07.2019 20:18 20,7 C 21,7 C 17,8 C 55 % 1012,8 hPa 0,0 l/m 2,2 km/h (1 Bft) O-SO 103 0 min 0,000 mm 0,0 UV-I 26 W/m 11,3 C 20,7 C 3,2 km/h (1 Bft) 100,00 %
15.07.2019 20:20 20,5 C 21,7 C 17,8 C 59 % 1012,8 hPa 0,0 l/m 1,2 km/h (1 Bft) O-SO 103 0 min 0,000 mm 0,0 UV-I 25 W/m 12,2 C 20,5 C 1,6 km/h (1 Bft) 100,00 %
15.07.2019 20:22 20,1 C 21,7 C 17,2 C 63 % 1012,7 hPa 0,0 l/m 2,3 km/h (1 Bft) O-SO 103 0 min 0,000 mm 0,0 UV-I 24 W/m 12,8 C 20,1 C 3,2 km/h (1 Bft) 100,00 %
15.07.2019 20:24 19,7 C 21,7 C 17,2 C 63 % 1012,7 hPa 0,0 l/m 3,2 km/h (1 Bft) O-SO 103 0 min 0,000 mm 0,0 UV-I 23 W/m 12,5 C 19,7 C 3,2 km/h (1 Bft) 100,00 %
15.07.2019 20:26 19,4 C 21,7 C 17,2 C 65 % 1012,7 hPa 0,0 l/m 3,5 km/h (1 Bft) O-SO 104 0 min 0,000 mm 0,0 UV-I 26 W/m 12,6 C 19,4 C 4,8 km/h (1 Bft) 95,74 %
15.07.2019 20:28 19,2 C 21,7 C 17,2 C 66 % 1012,8 hPa 0,0 l/m 2,8 km/h (1 Bft) O-SO 104 0 min 0,000 mm 0,0 UV-I 30 W/m 12,7 C 19,2 C 3,2 km/h (1 Bft) 100,00 %
15.07.2019 20:30 19,1 C 21,7 C 16,7 C 64 % 1012,8 hPa 0,0 l/m 1,3 km/h (1 Bft) O-SO 104 0 min 0,000 mm 0,0 UV-I 25 W/m 12,1 C 19,1 C 3,2 km/h (1 Bft) 100,00 %
15.07.2019 20:32 19,1 C 21,7 C 16,7 C 64 % 1012,8 hPa 0,0 l/m 0,9 km/h (0 Bft) O-SO 104 0 min 0,000 mm 0,0 UV-I 23 W/m 12,1 C 19,1 C 1,6 km/h (1 Bft) 100,00 %
15.07.2019 20:34 19,2 C 21,7 C 16,7 C 65 % 1012,8 hPa 0,0 l/m 1,0 km/h (0 Bft) O-SO 104 0 min 0,000 mm 0,0 UV-I 21 W/m 12,5 C 19,2 C 1,6 km/h (1 Bft) 100,00 %
15.07.2019 20:36 19,2 C 21,7 C 16,7 C 65 % 1012,8 hPa 0,0 l/m 0,6 km/h (0 Bft) O-SO 104 0 min 0,000 mm 0,0 UV-I 20 W/m 12,5 C 19,2 C 1,6 km/h (1 Bft) 100,00 %
15.07.2019 20:38 19,2 C 21,7 C 16,7 C 66 % 1012,8 hPa 0,0 l/m 0,3 km/h (0 Bft) O-SO 104 0 min 0,000 mm 0,0 UV-I 19 W/m 12,7 C 19,2 C 1,6 km/h (1 Bft) 100,00 %
15.07.2019 20:40 19,2 C 21,7 C 16,1 C 65 % 1012,8 hPa 0,0 l/m 0,0 km/h (0 Bft) O-SO 104 0 min 0,000 mm 0,0 UV-I 18 W/m 12,5 C 19,2 C 0,0 km/h (0 Bft) 100,00 %
15.07.2019 20:42 19,3 C 21,7 C 16,1 C 62 % 1012,9 hPa 0,0 l/m 0,0 km/h (0 Bft) O-SO 104 2 min 0,000 mm 0,0 UV-I 17 W/m 11,8 C 19,3 C 0,0 km/h (0 Bft) 100,00 %
15.07.2019 20:44 19,4 C 21,7 C 16,1 C 66 % 1012,9 hPa 0,0 l/m 0,0 km/h (0 Bft) O 98 2 min 0,000 mm 0,0 UV-I 16 W/m 12,9 C 19,4 C 0,0 km/h (0 Bft) 97,87 %
15.07.2019 20:46 18,9 C 21,7 C 16,1 C 68 % 1012,9 hPa 0,0 l/m 0,0 km/h (0 Bft) O 98 2 min 0,000 mm 0,0 UV-I 14 W/m 12,9 C 18,9 C 0,0 km/h (0 Bft) 100,00 %
15.07.2019 20:48 18,6 C 21,7 C 16,1 C 69 % 1012,9 hPa 0,0 l/m 0,0 km/h (0 Bft) O 98 0 min 0,000 mm 0,0 UV-I 14 W/m 12,8 C 18,6 C 0,0 km/h (0 Bft) 97,87 %
15.07.2019 20:50 18,4 C 21,7 C 16,1 C 69 % 1013,0 hPa 0,0 l/m 0,3 km/h (0 Bft) O 98 0 min 0,000 mm 0,0 UV-I 12 W/m 12,6 C 18,4 C 1,6 km/h (1 Bft) 96,00 %
15.07.2019 20:52 18,3 C 21,7 C 16,1 C 69 % 1012,9 hPa 0,0 l/m 1,4 km/h (1 Bft) O-SO 115 0 min 0,000 mm 0,0 UV-I 12 W/m 12,5 C 18,3 C 1,6 km/h (1 Bft) 100,00 %
15.07.2019 20:54 18,3 C 21,7 C 16,1 C 72 % 1013,0 hPa 0,0 l/m 1,8 km/h (1 Bft) O-SO 115 0 min 0,000 mm 0,0 UV-I 11 W/m 13,2 C 18,3 C 3,2 km/h (1 Bft) 100,00 %
15.07.2019 20:56 18,2 C 21,7 C 16,1 C 71 % 1013,0 hPa 0,0 l/m 2,0 km/h (1 Bft) O-SO 115 0 min 0,000 mm 0,0 UV-I 9 W/m 12,9 C 18,2 C 3,2 km/h (1 Bft) 100,00 %
15.07.2019 20:58 18,0 C 21,7 C 15,6 C 72 % 1013,0 hPa 0,0 l/m 2,4 km/h (1 Bft) O-SO 115 0 min 0,000 mm 0,0 UV-I 8 W/m 12,9 C 18,0 C 3,2 km/h (1 Bft) 100,00 %
15.07.2019 21:00 17,8 C 21,7 C 15,6 C 73 % 1013,0 hPa 0,0 l/m 2,8 km/h (1 Bft) O-SO 115 0 min 0,000 mm 0,0 UV-I 7 W/m 12,9 C 17,8 C 3,2 km/h (1 Bft) 100,00 %
15.07.2019 21:02 17,6 C 21,7 C 15,6 C 77 % 1013,0 hPa 0,0 l/m 3,1 km/h (1 Bft) S 186 0 min 0,026 mm 0,0 UV-I 7 W/m 13,5 C 17,6 C 3,2 km/h (1 Bft) 95,74 %
15.07.2019 21:04 17,4 C 21,7 C 15,6 C 76 % 1013,0 hPa 0,0 l/m 2,7 km/h (1 Bft) S 186 0 min 0,000 mm 0,0 UV-I 7 W/m 13,1 C 17,4 C 3,2 km/h (1 Bft) 94,44 %
15.07.2019 21:06 17,5 C 21,7 C 15,6 C 75 % 1013,1 hPa 0,0 l/m 2,1 km/h (1 Bft) S 186 0 min 0,000 mm 0,0 UV-I 6 W/m 13,0 C 17,5 C 3,2 km/h (1 Bft) 94,44 %
15.07.2019 21:08 17,6 C 21,7 C 15,6 C 73 % 1013,1 hPa 0,0 l/m 2,1 km/h (1 Bft) S 186 0 min 0,000 mm 0,0 UV-I 5 W/m 12,7 C 17,6 C 3,2 km/h (1 Bft) 97,92 %
15.07.2019 21:10 17,6 C 21,7 C 15,6 C 72 % 1013,1 hPa 0,0 l/m 2,6 km/h (1 Bft) S 186 0 min 0,000 mm 0,0 UV-I 5 W/m 12,5 C 17,6 C 3,2 km/h (1 Bft) 97,87 %
15.07.2019 21:12 17,6 C 21,7 C 16,1 C 71 % 1013,1 hPa 0,0 l/m 3,2 km/h (1 Bft) S 186 0 min 0,000 mm 0,0 UV-I 5 W/m 12,3 C 17,6 C 4,8 km/h (1 Bft) 97,87 %
15.07.2019 21:14 17,4 C 21,7 C 16,1 C 76 % 1013,1 hPa 0,0 l/m 1,9 km/h (1 Bft) S 186 0 min 0,000 mm 0,0 UV-I 5 W/m 13,1 C 17,4 C 3,2 km/h (1 Bft) 97,87 %
15.07.2019 21:16 17,2 C 21,7 C 16,1 C 77 % 1013,1 hPa 0,0 l/m 0,2 km/h (0 Bft) S 186 0 min 0,000 mm 0,0 UV-I 5 W/m 13,1 C 17,2 C 1,6 km/h (1 Bft) 97,87 %
15.07.2019 21:18 17,1 C 21,7 C 16,1 C 78 % 1013,1 hPa 0,0 l/m 1,4 km/h (1 Bft) S 186 0 min 0,000 mm 0,0 UV-I 5 W/m 13,2 C 17,1 C 1,6 km/h (1 Bft) 97,87 %
15.07.2019 21:20 17,2 C 21,7 C 16,1 C 75 % 1013,2 hPa 0,0 l/m 1,3 km/h (1 Bft) S 186 0 min 0,000 mm 0,0 UV-I 3 W/m 12,7 C 17,2 C 3,2 km/h (1 Bft) 95,74 %
15.07.2019 21:22 17,3 C 21,7 C 16,1 C 73 % 1013,2 hPa 0,0 l/m 0,9 km/h (0 Bft) S 186 0 min 0,000 mm 0,0 UV-I 0 W/m 12,4 C 17,3 C 1,6 km/h (1 Bft) 95,74 %
15.07.2019 21:24 17,5 C 21,7 C 16,1 C 72 % 1013,2 hPa 0,0 l/m 0,9 km/h (0 Bft) S 186 0 min 0,000 mm 0,0 UV-I 0 W/m 12,4 C 17,5 C 1,6 km/h (1 Bft) 91,49 %
15.07.2019 21:26 17,7 C 21,7 C 16,7 C 71 % 1013,2 hPa 0,0 l/m 1,0 km/h (0 Bft) S 186 0 min 0,000 mm 0,0 UV-I 0 W/m 12,4 C 17,7 C 1,6 km/h (1 Bft) 94,00 %
15.07.2019 21:28 17,8 C 21,7 C 16,7 C 72 % 1013,2 hPa 0,0 l/m 0,5 km/h (0 Bft) S 186 0 min 0,000 mm 0,0 UV-I 0 W/m 12,7 C 17,8 C 1,6 km/h (1 Bft) 95,74 %
15.07.2019 21:30 17,8 C 21,7 C 16,7 C 73 % 1013,2 hPa 0,0 l/m 0,0 km/h (0 Bft) S 186 0 min 0,000 mm 0,0 UV-I 0 W/m 12,9 C 17,8 C 1,6 km/h (1 Bft) 93,62 %
15.07.2019 21:32 17,7 C 21,7 C 16,7 C 75 % 1013,2 hPa 0,0 l/m 0,0 km/h (0 Bft) S 186 0 min 0,000 mm 0,0 UV-I 0 W/m 13,2 C 17,7 C 1,6 km/h (1 Bft) 93,62 %
15.07.2019 21:34 17,7 C 21,7 C 16,7 C 75 % 1013,2 hPa 0,0 l/m 0,0 km/h (0 Bft) S 186 0 min 0,000 mm 0,0 UV-I 0 W/m 13,2 C 17,7 C 0,0 km/h (0 Bft) 94,29 %
15.07.2019 21:36 17,7 C 21,7 C 16,1 C 75 % 1013,3 hPa 0,0 l/m 0,0 km/h (0 Bft) S 186 0 min 0,000 mm 0,0 UV-I 0 W/m 13,2 C 17,7 C 0,0 km/h (0 Bft) 94,00 %
15.07.2019 21:39 17,8 C 21,7 C 16,1 C 75 % 1013,3 hPa 0,0 l/m 0,8 km/h (0 Bft) S 186 0 min 0,000 mm 0,0 UV-I 0 W/m 13,3 C 17,8 C 3,2 km/h (1 Bft) 95,77 %
15.07.2019 21:40 17,8 C 21,7 C 16,1 C 75 % 1013,3 hPa 0,0 l/m 2,2 km/h (1 Bft) S 186 0 min 0,000 mm 0,0 UV-I 0 W/m 13,3 C 17,8 C 3,2 km/h (1 Bft) 100,00 %
15.07.2019 21:42 17,7 C 21,7 C 16,1 C 77 % 1013,3 hPa 0,0 l/m 4,7 km/h (1 Bft) W 261 0 min 0,000 mm 0,0 UV-I 0 W/m 13,6 C 17,7 C 6,4 km/h (2 Bft) 96,00 %
15.07.2019 21:44 17,3 C 21,7 C 16,1 C 78 % 1013,4 hPa 0,0 l/m 3,1 km/h (1 Bft) W 261 0 min 0,000 mm 0,0 UV-I 0 W/m 13,4 C 17,3 C 4,8 km/h (1 Bft) 97,87 %
15.07.2019 21:46 17,2 C 21,7 C 15,6 C 77 % 1013,4 hPa 0,0 l/m 2,0 km/h (1 Bft) W 261 0 min 0,000 mm 0,0 UV-I 0 W/m 13,1 C 17,2 C 3,2 km/h (1 Bft) 100,00 %
15.07.2019 21:48 17,3 C 21,7 C 15,6 C 77 % 1013,4 hPa 0,0 l/m 0,3 km/h (0 Bft) W 261 0 min 0,000 mm 0,0 UV-I 0 W/m 13,2 C 17,3 C 1,6 km/h (1 Bft) 100,00 %
15.07.2019 21:50 17,2 C 21,7 C 15,6 C 77 % 1013,3 hPa 0,0 l/m 1,1 km/h (1 Bft) W 260 0 min 0,000 mm 0,0 UV-I 0 W/m 13,1 C 17,2 C 3,2 km/h (1 Bft) 100,00 %
15.07.2019 21:52 17,1 C 21,7 C 15,6 C 78 % 1013,4 hPa 0,0 l/m 2,3 km/h (1 Bft) W-SW 258 0 min 0,000 mm 0,0 UV-I 0 W/m 13,2 C 17,1 C 4,8 km/h (1 Bft) 100,00 %
15.07.2019 21:54 16,9 C 21,7 C 15,6 C 79 % 1013,3 hPa 0,0 l/m 4,2 km/h (1 Bft) S-SW 199 0 min 0,000 mm 0,0 UV-I 0 W/m 13,2 C 16,9 C 4,8 km/h (1 Bft) 100,00 %
15.07.2019 21:56 16,7 C 21,7 C 15,6 C 81 % 1013,3 hPa 0,0 l/m 3,9 km/h (1 Bft) S-SW 199 0 min 0,000 mm 0,0 UV-I 0 W/m 13,4 C 16,7 C 4,8 km/h (1 Bft) 100,00 %
15.07.2019 21:58 16,5 C 21,7 C 15,6 C 81 % 1013,3 hPa 0,0 l/m 3,6 km/h (1 Bft) O 87 0 min 0,000 mm 0,0 UV-I 0 W/m 13,2 C 16,5 C 4,8 km/h (1 Bft) 98,00 %
15.07.2019 22:00 16,6 C 21,7 C 15,6 C 78 % 1013,3 hPa 0,0 l/m 1,3 km/h (1 Bft) O 87 0 min 0,000 mm 0,0 UV-I 0 W/m 12,7 C 16,6 C 3,2 km/h (1 Bft) 97,87 %
15.07.2019 22:02 16,8 C 21,1 C 15,6 C 77 % 1013,3 hPa 0,0 l/m 0,7 km/h (0 Bft) O 87 0 min 0,025 mm 0,0 UV-I 0 W/m 12,7 C 16,8 C 1,6 km/h (1 Bft) 96,00 %
15.07.2019 22:04 17,0 C 21,7 C 15,6 C 77 % 1013,3 hPa 0,0 l/m 0,7 km/h (0 Bft) O 87 0 min 0,000 mm 0,0 UV-I 0 W/m 12,9 C 17,0 C 1,6 km/h (1 Bft) 93,62 %
15.07.2019 22:06 17,1 C 21,1 C 15,6 C 76 % 1013,4 hPa 0,0 l/m 0,3 km/h (0 Bft) O 87 0 min 0,000 mm 0,0 UV-I 0 W/m 12,8 C 17,1 C 1,6 km/h (1 Bft) 97,14 %
15.07.2019 22:08 17,2 C 21,1 C 15,0 C 74 % 1013,4 hPa 0,0 l/m 1,2 km/h (1 Bft) O 87 0 min 0,000 mm 0,0 UV-I 0 W/m 12,5 C 17,2 C 3,2 km/h (1 Bft) 94,55 %
15.07.2019 22:10 17,1 C 21,1 C 15,0 C 73 % 1013,4 hPa 0,0 l/m 1,0 km/h (0 Bft) O 87 0 min 0,000 mm 0,0 UV-I 0 W/m 12,2 C 17,1 C 1,6 km/h (1 Bft) 95,74 %
15.07.2019 22:12 17,1 C 21,1 C 15,0 C 75 % 1013,4 hPa 0,0 l/m 0,7 km/h (0 Bft) O 87 0 min 0,000 mm 0,0 UV-I 0 W/m 12,6 C 17,1 C 1,6 km/h (1 Bft) 97,87 %
15.07.2019 22:14 16,9 C 21,1 C 14,4 C 75 % 1013,4 hPa 0,0 l/m 0,2 km/h (0 Bft) O 87 0 min 0,000 mm 0,0 UV-I 0 W/m 12,4 C 16,9 C 1,6 km/h (1 Bft) 97,87 %
15.07.2019 22:16 16,8 C 21,1 C 14,4 C 78 % 1013,4 hPa 0,0 l/m 1,3 km/h (1 Bft) O 87 0 min 0,000 mm 0,0 UV-I 0 W/m 12,9 C 16,8 C 3,2 km/h (1 Bft) 97,87 %
15.07.2019 22:18 16,7 C 21,1 C 14,4 C 80 % 1013,4 hPa 0,0 l/m 0,5 km/h (0 Bft) O 87 0 min 0,000 mm 0,0 UV-I 0 W/m 13,2 C 16,7 C 1,6 km/h (1 Bft) 97,87 %
15.07.2019 22:20 16,3 C 21,1 C 14,4 C 81 % 1013,4 hPa 0,0 l/m 0,5 km/h (0 Bft) O 87 0 min 0,000 mm 0,0 UV-I 0 W/m 13,0 C 16,3 C 1,6 km/h (1 Bft) 95,74 %
15.07.2019 22:22 16,0 C 21,1 C 14,4 C 81 % 1013,4 hPa 0,0 l/m 1,5 km/h (1 Bft) O 87 0 min 0,000 mm 0,0 UV-I 0 W/m 12,7 C 16,0 C 3,2 km/h (1 Bft) 98,00 %
15.07.2019 22:24 15,8 C 21,1 C 14,4 C 82 % 1013,4 hPa 0,0 l/m 2,1 km/h (1 Bft) O 87 0 min 0,000 mm 0,0 UV-I 0 W/m 12,7 C 15,8 C 3,2 km/h (1 Bft) 93,62 %
15.07.2019 22:26 15,7 C 21,1 C 14,4 C 82 % 1013,4 hPa 0,0 l/m 1,9 km/h (1 Bft) O 87 0 min 0,000 mm 0,0 UV-I 0 W/m 12,6 C 15,7 C 3,2 km/h (1 Bft) 95,83 %
15.07.2019 22:28 15,9 C 21,1 C 14,4 C 80 % 1013,4 hPa 0,0 l/m 2,1 km/h (1 Bft) O 87 0 min 0,000 mm 0,0 UV-I 0 W/m 12,5 C 15,9 C 3,2 km/h (1 Bft) 97,87 %
15.07.2019 22:30 16,1 C 21,1 C 13,9 C 76 % 1013,5 hPa 0,0 l/m 1,5 km/h (1 Bft) O 87 0 min 0,000 mm 0,0 UV-I 0 W/m 11,9 C 16,1 C 3,2 km/h (1 Bft) 97,87 %
15.07.2019 22:32 16,3 C 21,1 C 13,9 C 75 % 1013,5 hPa 0,0 l/m 0,8 km/h (0 Bft) O 87 0 min 0,000 mm 0,0 UV-I 0 W/m 11,9 C 16,3 C 1,6 km/h (1 Bft) 95,74 %
15.07.2019 22:34 16,4 C 21,1 C 13,9 C 75 % 1013,5 hPa 0,0 l/m 0,0 km/h (0 Bft) O 87 0 min 0,000 mm 0,0 UV-I 0 W/m 12,0 C 16,4 C 1,6 km/h (1 Bft) 97,87 %
15.07.2019 22:36 16,3 C 21,1 C 13,9 C 75 % 1013,5 hPa 0,0 l/m 0,0 km/h (0 Bft) O 87 0 min 0,000 mm 0,0 UV-I 0 W/m 11,9 C 16,3 C 0,0 km/h (0 Bft) 97,37 %
15.07.2019 22:38 16,3 C 21,1 C 13,9 C 76 % 1013,5 hPa 0,0 l/m 0,0 km/h (0 Bft) O 87 0 min 0,000 mm 0,0 UV-I 0 W/m 12,1 C 16,3 C 0,0 km/h (0 Bft) 95,74 %
15.07.2019 22:40 16,2 C 21,1 C 13,9 C 76 % 1013,5 hPa 0,0 l/m 0,0 km/h (0 Bft) O 87 0 min 0,000 mm 0,0 UV-I 0 W/m 12,0 C 16,2 C 0,0 km/h (0 Bft) 98,00 %
15.07.2019 22:42 16,2 C 21,1 C 13,9 C 78 % 1013,5 hPa 0,0 l/m 0,0 km/h (0 Bft) O 87 0 min 0,000 mm 0,0 UV-I 0 W/m 12,4 C 16,2 C 0,0 km/h (0 Bft) 95,74 %
15.07.2019 22:44 16,1 C 21,1 C 13,9 C 79 % 1013,6 hPa 0,0 l/m 1,1 km/h (1 Bft) O 87 0 min 0,000 mm 0,0 UV-I 0 W/m 12,5 C 16,1 C 3,2 km/h (1 Bft) 95,74 %
15.07.2019 22:46 16,1 C 21,1 C 13,3 C 78 % 1013,6 hPa 0,0 l/m 2,3 km/h (1 Bft) O 88 0 min 0,000 mm 0,0 UV-I 0 W/m 12,3 C 16,1 C 3,2 km/h (1 Bft) 95,74 %
15.07.2019 22:48 16,1 C 21,1 C 13,3 C 79 % 1013,5 hPa 0,0 l/m 2,8 km/h (1 Bft) O 88 0 min 0,000 mm 0,0 UV-I 0 W/m 12,5 C 16,1 C 3,2 km/h (1 Bft) 93,62 %
15.07.2019 22:50 16,1 C 21,1 C 13,9 C 80 % 1013,6 hPa 0,0 l/m 2,3 km/h (1 Bft) O 88 0 min 0,000 mm 0,0 UV-I 0 W/m 12,6 C 16,1 C 3,2 km/h (1 Bft) 93,62 %
15.07.2019 22:52 15,8 C 21,1 C 13,9 C 80 % 1013,6 hPa 0,0 l/m 2,8 km/h (1 Bft) O 88 0 min 0,000 mm 0,0 UV-I 0 W/m 12,4 C 15,8 C 3,2 km/h (1 Bft) 95,74 %
15.07.2019 22:54 15,6 C 21,1 C 13,9 C 81 % 1013,6 hPa 0,0 l/m 2,7 km/h (1 Bft) O 88 0 min 0,000 mm 0,0 UV-I 0 W/m 12,3 C 15,6 C 3,2 km/h (1 Bft) 89,36 %
15.07.2019 22:56 15,5 C 21,1 C 13,9 C 82 % 1013,6 hPa 0,0 l/m 3,3 km/h (1 Bft) S-SO 151 0 min 0,000 mm 0,0 UV-I 0 W/m 12,4 C 15,5 C 4,8 km/h (1 Bft) 95,74 %
15.07.2019 22:58 15,6 C 21,1 C 13,3 C 81 % 1013,6 hPa 0,0 l/m 4,8 km/h (1 Bft) S 175 0 min 0,000 mm 0,0 UV-I 0 W/m 12,3 C 15,6 C 6,4 km/h (2 Bft) 95,74 %
15.07.2019 23:00 15,6 C 21,1 C 13,9 C 81 % 1013,6 hPa 0,0 l/m 4,2 km/h (1 Bft) S 178 0 min 0,000 mm 0,0 UV-I 0 W/m 12,3 C 15,6 C 4,8 km/h (1 Bft) 97,87 %
15.07.2019 23:02 15,7 C 21,1 C 13,9 C 81 % 1013,6 hPa 0,0 l/m 4,3 km/h (1 Bft) S 190 0 min 0,000 mm 0,0 UV-I 0 W/m 12,4 C 15,7 C 6,4 km/h (2 Bft) 95,83 %
15.07.2019 23:04 15,4 C 21,1 C 13,3 C 81 % 1013,6 hPa 0,0 l/m 4,2 km/h (1 Bft) S 190 0 min 0,000 mm 0,0 UV-I 0 W/m 12,2 C 15,4 C 6,4 km/h (2 Bft) 97,87 %
15.07.2019 23:06 15,2 C 21,1 C 13,3 C 82 % 1013,6 hPa 0,0 l/m 4,2 km/h (1 Bft) S-SW 194 0 min 0,000 mm 0,0 UV-I 0 W/m 12,1 C 15,2 C 4,8 km/h (1 Bft) 97,87 %
15.07.2019 23:08 15,1 C 21,1 C 13,3 C 82 % 1013,6 hPa 0,0 l/m 3,9 km/h (1 Bft) S-SW 194 0 min 0,000 mm 0,0 UV-I 0 W/m 12,0 C 15,1 C 4,8 km/h (1 Bft) 97,37 %
15.07.2019 23:10 15,0 C 21,1 C 13,3 C 83 % 1013,6 hPa 0,0 l/m 3,5 km/h (1 Bft) S-SW 194 0 min 0,000 mm 0,0 UV-I 0 W/m 12,1 C 15,0 C 4,8 km/h (1 Bft) 93,62 %
15.07.2019 23:12 15,0 C 21,1 C 13,3 C 83 % 1013,6 hPa 0,0 l/m 3,5 km/h (1 Bft) S-SW 194 0 min 0,000 mm 0,0 UV-I 0 W/m 12,1 C 15,0 C 4,8 km/h (1 Bft) 97,87 %
15.07.2019 23:14 15,0 C 21,1 C 13,3 C 83 % 1013,6 hPa 0,0 l/m 2,8 km/h (1 Bft) S-SW 194 0 min 0,000 mm 0,0 UV-I 0 W/m 12,1 C 15,0 C 4,8 km/h (1 Bft) 95,74 %
15.07.2019 23:16 15,0 C 21,1 C 13,3 C 83 % 1013,6 hPa 0,0 l/m 4,8 km/h (1 Bft) S-SW 194 0 min 0,000 mm 0,0 UV-I 0 W/m 12,1 C 15,0 C 6,4 km/h (2 Bft) 97,87 %
15.07.2019 23:18 14,9 C 21,1 C 13,3 C 83 % 1013,7 hPa 0,0 l/m 4,7 km/h (1 Bft) S-SW 197 0 min 0,000 mm 0,0 UV-I 0 W/m 12,0 C 14,9 C 6,4 km/h (2 Bft) 95,74 %
15.07.2019 23:20 14,8 C 21,1 C 13,3 C 83 % 1013,7 hPa 0,0 l/m 4,5 km/h (1 Bft) S-SW 198 0 min 0,000 mm 0,0 UV-I 0 W/m 11,9 C 14,8 C 6,4 km/h (2 Bft) 95,74 %
15.07.2019 23:22 14,7 C 21,1 C 13,3 C 84 % 1013,7 hPa 0,0 l/m 4,8 km/h (1 Bft) S-SW 198 0 min 0,000 mm 0,0 UV-I 0 W/m 12,0 C 14,7 C 6,4 km/h (2 Bft) 96,00 %
15.07.2019 23:24 14,6 C 21,1 C 13,3 C 84 % 1013,7 hPa 0,0 l/m 4,7 km/h (1 Bft) S-SW 198 0 min 0,000 mm 0,0 UV-I 0 W/m 11,9 C 14,6 C 6,4 km/h (2 Bft) 95,74 %
15.07.2019 23:26 14,6 C 21,1 C 13,3 C 85 % 1013,7 hPa 0,0 l/m 4,6 km/h (1 Bft) S-SW 198 0 min 0,000 mm 0,0 UV-I 0 W/m 12,1 C 14,6 C 6,4 km/h (2 Bft) 95,74 %
15.07.2019 23:28 14,6 C 21,1 C 13,3 C 85 % 1013,7 hPa 0,0 l/m 5,2 km/h (1 Bft) S-SW 198 0 min 0,000 mm 0,0 UV-I 0 W/m 12,1 C 14,6 C 8,0 km/h (2 Bft) 95,74 %
15.07.2019 23:30 14,6 C 21,1 C 13,3 C 85 % 1013,7 hPa 0,0 l/m 5,3 km/h (1 Bft) S-SW 202 0 min 0,000 mm 0,0 UV-I 0 W/m 12,1 C 14,6 C 6,4 km/h (2 Bft) 95,74 %
15.07.2019 23:32 14,6 C 21,1 C 12,8 C 85 % 1013,7 hPa 0,0 l/m 5,1 km/h (1 Bft) S-SW 202 0 min 0,000 mm 0,0 UV-I 0 W/m 12,1 C 14,6 C 6,4 km/h (2 Bft) 97,87 %
15.07.2019 23:34 14,5 C 21,1 C 12,8 C 85 % 1013,7 hPa 0,0 l/m 4,0 km/h (1 Bft) S-SW 202 0 min 0,000 mm 0,0 UV-I 0 W/m 12,0 C 14,5 C 6,4 km/h (2 Bft) 97,87 %
15.07.2019 23:36 14,5 C 21,1 C 12,8 C 85 % 1013,7 hPa 0,0 l/m 2,4 km/h (1 Bft) S-SW 202 0 min 0,000 mm 0,0 UV-I 0 W/m 12,0 C 14,5 C 3,2 km/h (1 Bft) 95,74 %
15.07.2019 23:38 14,5 C 21,1 C 12,8 C 85 % 1013,7 hPa 0,0 l/m 2,8 km/h (1 Bft) S-SW 202 0 min 0,000 mm 0,0 UV-I 0 W/m 12,0 C 14,5 C 4,8 km/h (1 Bft) 97,92 %
15.07.2019 23:40 14,6 C 21,1 C 12,8 C 85 % 1013,7 hPa 0,0 l/m 3,3 km/h (1 Bft) S-SW 202 0 min 0,000 mm 0,0 UV-I 0 W/m 12,1 C 14,6 C 4,8 km/h (1 Bft) 97,87 %
15.07.2019 23:42 14,6 C 21,1 C 12,8 C 85 % 1013,7 hPa 0,0 l/m 2,4 km/h (1 Bft) S-SW 202 0 min 0,000 mm 0,0 UV-I 0 W/m 12,1 C 14,6 C 3,2 km/h (1 Bft) 97,87 %
15.07.2019 23:44 14,6 C 21,1 C 12,8 C 84 % 1013,7 hPa 0,0 l/m 3,5 km/h (1 Bft) S-SW 202 0 min 0,000 mm 0,0 UV-I 0 W/m 11,9 C 14,6 C 4,8 km/h (1 Bft) 95,74 %
15.07.2019 23:46 14,7 C 21,1 C 12,8 C 85 % 1013,7 hPa 0,0 l/m 3,5 km/h (1 Bft) S-SW 202 0 min 0,000 mm 0,0 UV-I 0 W/m 12,2 C 14,7 C 4,8 km/h (1 Bft) 95,74 %
15.07.2019 23:48 14,7 C 21,1 C 13,3 C 85 % 1013,7 hPa 0,0 l/m 4,2 km/h (1 Bft) S-SW 202 0 min 0,000 mm 0,0 UV-I 0 W/m 12,2 C 14,7 C 4,8 km/h (1 Bft) 98,00 %
15.07.2019 23:50 14,7 C 21,1 C 13,3 C 85 % 1013,7 hPa 0,0 l/m 3,7 km/h (1 Bft) S-SW 202 0 min 0,000 mm 0,0 UV-I 0 W/m 12,2 C 14,7 C 4,8 km/h (1 Bft) 95,74 %
15.07.2019 23:52 14,7 C 21,1 C 13,3 C 85 % 1013,7 hPa 0,0 l/m 3,6 km/h (1 Bft) S-SW 202 0 min 0,000 mm 0,0 UV-I 0 W/m 12,2 C 14,7 C 4,8 km/h (1 Bft) 97,87 %
15.07.2019 23:54 14,6 C 21,1 C 13,3 C 84 % 1013,8 hPa 0,0 l/m 3,7 km/h (1 Bft) S-SW 202 0 min 0,000 mm 0,0 UV-I 0 W/m 11,9 C 14,6 C 4,8 km/h (1 Bft) 97,87 %
15.07.2019 23:56 14,4 C 21,1 C 13,3 C 85 % 1013,7 hPa 0,0 l/m 3,8 km/h (1 Bft) S-SW 202 0 min 0,000 mm 0,0 UV-I 0 W/m 11,9 C 14,4 C 4,8 km/h (1 Bft) 100,00 %
15.07.2019 23:58 14,5 C 21,1 C 13,3 C 85 % 1013,8 hPa 0,0 l/m 4,3 km/h (1 Bft) S-SW 202 0 min 0,000 mm 0,0 UV-I 0 W/m 12,0 C 14,5 C 6,4 km/h (2 Bft) 100,00 %
_ Min-Zeit 03:02 03:28 02:38 16:42 18:14 - 00:00 - - - - - - 16:42 03:02 00:00 22:54
Minimum _ 10,9 C 19,4 C 9,4 C 38 % 1012,5 hPa - 0,0 km/h (0 Bft) - - - - - - 8,5 C 10,9 C 0,0 km/h (0 Bft) 89,36 %
_ Max-Zeit 16:40 16:58 13:30 04:08 09:08 06:22 15:44 - - 09:19 14:00 13:26 13:52 09:19 16:42 15:40 00:04
Maximum _ 23,8 C 21,7 C 39,4 C 98 % 1014,6 hPa 0,2 l/m 16,1 km/h
O-NO (3 Bft)
- - 3 min 0,558 mm 5,8 UV-I 1085 W/m 15,1 C 23,7 C 24,1 km/h
O-NO (4 Bft)
100,00 %
Durchschnitt _ 17,0 C 20,5 C 21,6 C 76 % 1013,7 hPa #0,2 l/m 4,2 km/h (1 Bft) S-SW - #9:08 h #4,191 mm 2,7 UV-I 393 W/m 12,0 C 16,8 C 7,0 km/h (2 Bft) 97,15 %